GFSMA_850_thetae_003.txt.gz
Theta_e
323 322 320 319 318 318 318 319 318 318 315 312 310 311 311 310 306 307 311 309 307 307 307 307 307 307 310 318 321 320 322 324 326 326 326 326 324 325 326 326 326 323 321
321 320 318 317 317 317 317 317 318 317 315 312 311 311 311 310 310 311 310 310 308 306 306 306 306 306 307 308 315 322 321 323 325 327 328 328 326 325 326 326 325 324 322
318 319 319 318 318 317 317 317 318 318 317 315 313 311 312 311 310 310 310 309 309 307 304 305 305 306 306 306 306 312 318 320 320 324 326 328 328 326 326 326 325 324 324
319 319 318 318 317 317 318 317 317 317 317 316 315 313 311 311 311 310 310 309 308 309 308 305 304 305 305 305 305 304 305 314 318 319 320 322 326 327 326 326 326 327 326
317 317 317 317 317 318 318 317 317 316 316 316 315 314 312 311 311 311 310 309 308 308 308 308 306 304 304 304 304 304 304 304 306 317 319 318 320 322 326 326 326 325 326
317 317 317 317 317 317 316 316 317 316 316 316 315 314 313 312 311 311 311 310 309 309 307 308 307 305 306 304 304 304 304 303 304 304 310 318 319 318 319 323 326 326 326
313 313 313 313 314 314 314 314 314 314 315 314 316 316 315 313 312 311 311 311 310 309 308 309 309 308 307 305 303 303 302 303 303 302 304 306 309 316 318 319 319 323 326
311 310 310 310 310 310 310 310 311 312 312 312 313 314 314 313 313 313 311 311 310 309 308 309 309 308 307 305 304 303 302 302 301 302 301 304 306 306 309 315 319 320 321
310 309 308 308 308 308 308 308 308 308 309 310 310 311 311 312 313 312 314 312 311 310 309 308 309 308 305 304 304 304 304 303 302 301 301 301 304 306 307 308 312 318 322
307 307 306 307 307 306 306 306 306 306 306 307 308 307 308 310 311 311 311 312 311 310 309 309 308 306 304 303 304 304 303 303 303 302 300 300 300 303 305 306 307 310 313
306 305 305 305 304 304 305 305 305 306 305 305 306 306 307 307 308 308 309 310 311 310 309 308 307 304 304 304 303 302 302 302 302 302 301 299 298 299 302 304 304 306 308
304 304 303 304 303 304 304 303 303 303 303 302 302 301 301 301 301 301 302 305 307 307 308 306 303 304 304 303 303 302 302 301 300 299 300 299 298 298 298 300 302 303 305
303 302 303 303 302 302 302 303 302 302 301 300 299 298 297 298 298 298 298 299 299 301 303 303 301 302 302 302 302 302 300 299 297 297 296 297 297 296 296 298 300 301 303
301 301 302 302 301 301 300 300 300 299 298 298 297 297 296 295 295 295 295 295 297 297 298 298 300 301 301 300 301 300 299 298 296 299 301 300 299 297 296 297 300 301 302
300 300 300 300 299 298 298 298 297 297 297 296 295 295 294 294 294 294 294 294 294 295 297 298 298 299 299 299 299 298 298 298 297 296 297 299 298 298 299 299 300 300 301
299 299 298 298 298 297 297 297 296 295 295 295 295 294 294 294 294 294 294 294 295 294 294 295 294 295 296 296 297 297 297 296 296 296 295 296 297 297 297 299 299 299 300
298 298 297 297 296 296 295 294 294 294 294 294 294 294 294 293 293 292 292 292 292 293 293 293 293 294 294 294 294 295 295 295 295 294 294 294 293 293 295 296 297 296 297
297 295 295 295 294 294 293 293 292 292 292 292 292 292 292 292 292 291 291 291 291 291 291 291 292 292 293 293 294 294 294 295 294 294 294 293 293 292 291 291 294 295 296
295 294 294 293 293 292 292 291 291 291 291 291 290 290 290 290 290 290 290 290 290 290 290 290 290 291 291 292 292 293 293 293 293 293 293 293 292 292 292 292 290 291 292
292 291 290 290 290 289 289 289 289 289 288 288 289 289 289 289 289 289 289 289 289 289 289 289 289 289 290 290 290 291 291 292 292 292 292 292 292 292 292 291 291 290 289
290 289 289 289 289 289 288 288 287 287 287 287 288 288 288 288 288 287 287 286 286 286 287 287 288 289 290 290 290 291 291 291 291 292 292 292 292 292 292 291 291 290 290
289 289 289 289 289 288 287 287 286 285 284 285 286 286 287 287 287 286 285 285 284 284 285 285 287 288 288 289 289 290 290 290 290 290 290 290 291 291 292 292 293 293 292
289 289 289 288 288 287 287 286 285 284 283 283 284 285 286 286 286 285 285 285 285 285 284 284 284 285 286 287 287 288 288 289 289 289 289 289 290 290 290 291 291 291 291
289 289 288 288 287 287 286 285 284 282 282 283 283 284 284 285 285 284 284 284 284 284 284 284 284 284 284 285 286 286 286 287 287 288 288 288 288 289 288 289 289 289 290
289 288 288 287 286 285 284 283 281 280 281 281 282 282 283 283 283 282 282 282 283 283 284 284 284 284 284 284 284 285 285 286 286 287 287 287 287 287 288 287 287 287 287
289 288 287 286 285 284 283 282 280 280 280 280 281 281 281 282 282 282 282 282 282 283 284 283 284 285 285 285 285 283 283 284 285 286 286 287 287 287 288 288 287 287 287

GFSMA_850_thetae_006.txt.gz
Theta_e
317 316 318 317 317 317 317 317 317 317 317 316 313 312 311 310 309 308 307 311 310 308 306 307 307 307 307 307 308 314 319 319 322 323 323 325 326 325 323 323 326 326 325
314 314 313 315 317 318 317 317 317 318 318 318 317 314 312 312 310 310 310 311 310 309 307 306 306 306 306 306 307 307 312 320 320 322 325 326 325 326 324 324 325 326 325
314 313 313 317 318 318 318 317 317 317 317 317 317 316 315 313 312 311 310 309 309 309 309 307 305 305 306 306 306 306 307 312 321 321 323 326 324 323 326 325 325 326 326
318 317 317 316 317 317 315 317 317 317 318 317 316 317 316 315 313 312 311 311 310 309 309 308 306 305 305 306 306 306 306 306 312 318 320 322 325 322 326 326 325 326 325
317 317 314 313 313 315 315 317 317 318 319 318 317 317 315 315 316 313 312 311 311 310 310 309 308 308 305 305 305 306 306 305 305 306 315 318 319 321 323 326 326 326 326
317 313 312 312 313 314 314 314 315 315 313 312 314 315 315 314 315 314 314 312 311 311 310 309 309 309 307 306 305 305 305 305 305 305 305 309 317 319 320 320 323 322 325
313 312 311 311 311 311 311 311 310 309 309 310 311 313 312 313 314 316 316 314 312 311 310 310 309 308 308 307 306 305 304 304 304 304 304 304 305 310 317 319 320 319 326
312 312 310 308 308 308 308 308 309 310 309 308 309 310 311 310 310 311 311 313 314 313 312 310 309 308 309 309 308 306 304 303 303 303 303 303 303 304 306 311 316 319 320
312 308 307 307 306 306 306 302 304 305 307 308 308 307 308 309 309 309 309 310 311 312 313 312 310 309 309 309 307 305 305 304 303 303 302 302 302 302 303 305 307 310 314
308 307 306 305 305 305 304 304 305 305 305 305 305 306 306 306 304 306 307 308 309 310 311 312 312 310 309 309 306 305 304 304 304 304 304 303 302 301 301 302 304 307 308
306 306 304 304 303 303 302 304 304 303 303 304 305 304 304 302 300 300 301 302 304 306 308 310 310 310 308 305 306 304 304 304 303 303 303 303 303 302 300 300 301 302 305
304 302 302 302 302 302 302 302 303 303 303 302 302 301 300 298 298 298 297 297 298 299 301 304 307 306 306 303 304 304 303 303 302 302 301 301 302 302 300 299 299 300 301
302 301 301 301 301 301 301 301 301 300 300 299 299 298 298 297 296 296 297 296 296 297 298 299 302 302 303 301 303 301 303 302 302 301 300 299 298 298 298 298 297 299 299
301 300 301 300 300 300 299 299 298 298 298 297 297 297 296 295 295 295 294 294 294 294 295 296 298 299 300 301 300 300 300 300 300 300 300 297 299 298 298 297 297 297 299
300 300 299 298 299 298 298 298 298 297 297 296 296 295 295 295 293 294 294 294 295 295 294 294 296 296 296 299 299 299 299 298 298 298 298 296 299 300 299 299 298 298 300
299 296 298 297 297 297 297 296 295 295 295 294 294 294 295 294 294 294 294 294 293 293 293 294 294 294 294 295 296 297 298 298 298 297 297 297 296 297 298 298 299 299 299
295 294 294 293 293 293 293 293 292 292 292 292 292 293 293 293 293 293 293 293 292 292 293 292 293 293 293 293 295 295 295 295 296 295 295 295 295 295 296 297 297 298 298
295 295 294 293 292 292 291 291 291 291 291 291 291 291 291 291 290 290 290 290 291 291 291 291 291 291 291 291 292 293 293 295 295 295 295 295 295 294 293 293 293 295 297
293 293 292 291 290 290 290 289 289 290 290 289 288 288 289 289 289 289 288 289 289 289 289 289 290 290 290 290 290 291 291 292 293 293 294 294 294 294 293 293 293 292 292
292 291 290 290 289 289 289 289 289 288 288 287 286 285 287 287 288 289 289 289 289 289 289 288 288 288 288 289 289 289 290 290 291 292 292 292 292 292 292 292 292 291 291
290 290 289 289 289 289 289 288 288 287 287 286 285 285 284 285 286 287 287 287 287 286 286 285 286 286 287 288 289 290 291 291 292 292 292 292 292 292 293 292 292 291 291
290 289 289 289 289 289 288 288 287 287 286 285 284 283 283 284 285 286 286 286 285 285 285 284 284 285 285 286 287 288 288 289 289 290 290 290 290 291 291 291 292 293 292
290 289 289 289 288 288 287 287 286 285 283 282 281 282 282 283 284 285 285 285 285 285 285 285 284 284 283 284 285 286 286 287 287 288 288 289 289 289 289 289 290 291 291
289 289 289 289 288 287 287 285 284 283 282 280 280 280 281 282 283 283 284 283 283 283 284 283 283 284 284 285 284 284 285 285 286 287 287 288 288 288 288 288 289 289 289
289 289 289 288 288 286 284 284 284 282 281 280 280 280 281 281 281 281 282 282 282 282 282 283 283 284 284 284 284 284 284 284 285 286 286 286 286 287 287 287 287 287 287
289 289 288 288 286 284 284 284 283 281 280 280 280 280 280 281 282 282 283 283 283 283 283 282 283 283 283 283 284 285 285 284 283 284 284 285 286 287 287 287 287 287 287

GFSMA_850_thetae_009.txt.gz
Theta_e
315 315 314 314 314 316 317 317 317 316 317 317 317 317 317 316 315 315 313 310 308 309 309 308 307 307 307 307 307 308 311 317 320 321 323 324 326 326 324 324 323 326 325
313 314 313 314 315 318 318 318 317 316 318 317 317 317 317 317 316 316 315 313 312 310 308 308 308 307 306 306 307 307 307 307 312 319 321 323 323 321 322 325 323 324 326
318 316 316 316 316 315 315 314 313 315 317 316 317 317 317 316 316 316 316 314 312 311 311 309 308 308 307 306 306 306 306 306 307 312 321 321 324 320 323 326 324 323 324
318 317 317 312 312 312 313 314 314 316 316 318 318 318 317 315 316 315 315 314 312 311 311 311 310 309 308 306 306 306 307 306 306 306 311 320 322 325 322 323 326 324 324
316 317 315 311 311 311 312 314 314 315 315 315 314 310 309 312 314 314 314 315 314 313 311 311 311 310 309 308 307 305 306 306 306 305 305 310 319 322 323 325 323 325 325
315 315 315 312 312 310 309 310 311 311 310 307 309 311 311 309 312 310 310 312 314 315 314 313 311 311 309 308 308 305 305 306 306 305 305 305 306 316 320 322 324 325 325
314 314 313 311 309 308 308 308 307 306 305 307 306 304 304 304 305 304 305 308 310 311 313 313 312 311 310 309 309 308 307 306 305 304 304 304 305 305 307 317 319 320 323
313 313 311 309 307 307 306 306 305 304 300 302 304 306 307 306 305 306 307 309 309 309 309 311 312 312 311 309 309 308 308 308 304 304 303 303 303 304 304 305 314 319 321
308 308 307 306 306 305 305 304 303 302 302 303 304 304 304 304 304 303 303 305 306 307 308 309 310 311 310 310 310 309 308 308 307 303 302 302 301 302 303 303 305 308 315
308 307 306 305 303 302 303 303 301 301 304 304 303 303 304 304 301 300 300 299 299 299 301 306 303 308 311 310 310 309 309 309 306 304 302 302 302 301 301 302 302 303 305
307 306 305 303 300 300 300 301 301 302 302 303 303 302 302 300 300 299 297 297 296 296 297 297 298 299 303 308 308 308 308 306 303 304 303 302 303 302 300 300 301 302 303
306 303 301 300 300 300 301 301 301 301 301 300 299 298 298 297 297 297 296 296 295 295 295 295 296 297 298 303 306 303 304 303 303 303 304 303 302 302 301 300 300 300 300
301 301 300 300 300 299 300 299 299 298 298 299 298 298 297 296 296 295 295 295 294 294 294 294 294 296 298 298 302 303 302 302 302 300 302 302 302 301 300 299 299 305 306
300 300 300 299 297 297 297 297 297 297 297 297 297 296 296 296 295 295 294 294 294 294 294 293 293 293 294 296 298 301 300 301 301 301 300 301 300 300 299 298 298 299 299
300 299 296 293 294 293 292 292 293 292 293 294 294 293 294 294 294 295 295 295 295 294 294 293 292 292 293 294 295 296 299 299 299 299 298 299 300 300 298 299 299 298 298
299 294 292 293 293 292 292 292 291 291 290 291 291 291 291 292 292 292 292 292 293 293 293 293 292 292 293 292 293 294 295 297 298 298 297 297 298 297 296 298 299 298 299
295 293 293 292 292 291 290 290 289 289 290 290 290 291 290 289 290 290 290 290 290 290 291 291 291 291 291 291 291 292 292 294 295 297 296 296 296 296 296 296 296 297 297
294 293 293 291 290 290 289 289 289 289 289 289 289 289 288 287 286 288 289 289 289 289 289 289 290 290 290 290 290 291 291 292 292 295 295 295 295 295 295 294 293 293 294
294 292 291 290 289 289 289 289 289 289 288 288 288 287 287 286 285 285 286 287 288 289 289 289 289 289 289 289 289 289 290 290 291 292 293 294 294 294 294 294 294 293 293
292 291 290 290 289 289 289 289 288 289 288 287 287 286 286 285 285 284 284 286 286 287 288 288 287 287 286 287 287 288 288 290 290 290 291 291 292 292 293 293 293 292 292
291 290 290 289 289 289 288 288 288 288 287 286 285 284 283 282 283 284 285 286 286 287 287 286 286 285 285 284 285 287 288 288 291 291 291 291 292 292 292 292 292 292 292
291 290 289 289 289 289 288 288 288 287 285 284 283 282 281 280 282 283 283 284 285 285 286 285 285 285 284 284 284 284 285 286 287 288 289 290 291 291 291 291 291 292 293
291 289 289 289 289 289 288 287 285 284 284 283 282 281 280 280 280 281 282 282 283 284 284 285 285 285 284 284 283 283 284 284 284 285 286 288 289 289 289 289 289 290 290
290 290 289 289 288 288 286 284 284 283 283 282 281 280 280 280 280 280 281 281 282 282 282 282 282 283 282 283 283 283 284 284 284 285 285 285 286 287 287 287 288 288 288
290 289 289 288 288 286 284 284 283 282 281 281 280 279 279 279 280 281 281 282 282 282 282 282 282 283 283 283 284 284 284 284 284 284 285 285 285 286 286 286 287 287 287
289 288 288 288 286 284 283 283 282 281 280 279 279 279 279 280 281 280 280 281 281 281 281 282 282 282 282 282 283 282 283 284 285 284 284 284 284 284 285 286 286 286 286

GFSMA_850_thetae_012.txt.gz
Theta_e
314 314 316 316 317 317 317 318 318 317 314 314 317 316 317 317 316 316 316 315 315 314 313 311 309 308 307 307 307 307 307 307 308 313 319 320 323 323 326 325 323 321 323
317 316 316 316 316 315 315 315 315 314 313 315 314 316 317 317 317 317 316 315 315 314 313 312 311 309 309 308 307 306 306 306 306 307 309 318 321 323 325 326 324 323 322
319 318 317 316 312 312 312 312 312 312 313 313 314 317 317 318 317 313 312 314 314 314 313 312 312 311 310 310 309 308 306 305 306 306 306 308 319 322 324 325 325 324 323
319 318 317 316 315 313 312 312 311 311 312 313 314 314 314 313 309 308 311 313 312 315 314 313 312 312 311 311 311 309 307 307 306 305 306 306 310 320 321 323 322 323 325
317 316 316 315 314 314 313 312 310 309 309 309 309 308 307 305 306 309 311 311 309 310 310 311 313 312 311 311 311 311 310 308 306 306 305 305 306 310 320 322 324 325 325
315 314 313 313 313 312 311 311 307 307 306 304 303 302 302 301 302 301 302 303 305 308 309 310 310 312 312 310 310 310 310 310 307 306 306 305 305 305 307 318 322 324 324
313 313 313 313 312 310 307 307 306 304 302 302 301 300 299 299 302 304 303 306 307 308 308 308 309 311 312 312 311 310 309 309 309 308 306 306 305 304 304 306 315 319 323
312 310 308 308 307 306 305 304 303 302 303 300 299 300 302 300 301 301 301 301 302 303 304 304 306 307 309 311 311 310 310 310 308 308 308 308 305 304 303 304 305 310 316
308 308 307 306 305 303 302 300 300 300 299 299 301 303 303 303 302 301 301 300 299 299 299 298 298 300 302 308 309 311 310 309 309 308 306 307 305 303 302 302 304 305 307
308 306 306 306 304 302 300 297 297 299 300 301 301 302 302 302 301 299 299 298 298 297 297 296 295 296 297 299 303 308 310 310 310 309 306 305 304 303 302 301 302 303 306
307 306 303 302 299 297 299 299 300 300 300 300 300 299 299 298 297 296 296 296 296 296 296 295 294 294 296 297 298 299 305 308 310 309 309 304 303 302 301 301 301 302 303
305 306 301 299 299 299 299 297 297 298 298 298 299 298 298 297 296 296 296 295 295 295 294 294 294 293 295 297 298 300 304 304 307 308 308 304 302 302 301 302 303 308 306
304 301 300 300 299 296 293 293 293 293 294 294 295 294 295 295 295 295 295 295 295 294 294 293 293 292 293 294 295 296 298 302 302 305 306 304 301 300 301 300 302 302 307
301 300 300 298 293 292 291 292 291 292 291 290 291 291 292 292 293 293 293 293 295 295 294 294 293 292 292 293 294 294 295 297 300 301 302 300 300 300 299 299 300 300 301
301 300 297 293 292 291 291 291 290 289 289 289 290 290 291 291 291 292 292 291 291 290 291 292 292 292 291 291 291 292 293 294 297 299 300 299 300 301 299 298 299 299 299
300 297 293 293 291 292 290 289 289 289 289 289 289 289 290 290 289 288 287 288 289 290 290 290 289 290 291 291 291 291 292 292 294 295 297 298 298 297 299 299 298 298 298
298 295 294 293 291 290 289 289 289 289 289 289 289 289 289 288 288 288 287 286 287 288 290 289 289 288 289 290 291 291 291 291 291 294 296 297 296 295 296 296 297 296 297
294 293 293 292 290 290 289 289 288 288 288 288 288 288 288 287 286 286 286 285 285 286 287 288 289 289 289 289 289 290 290 290 290 292 293 294 296 295 295 294 294 294 294
295 294 291 290 290 289 289 289 288 288 288 288 288 287 287 285 285 284 284 284 284 284 286 287 287 288 288 288 288 288 288 288 289 289 291 293 291 294 294 294 294 294 294
294 292 290 290 290 289 289 289 288 288 288 288 287 286 284 282 281 281 282 283 284 285 285 286 287 287 287 287 287 286 286 287 288 290 290 290 292 291 293 293 293 293 293
293 290 290 290 289 289 289 288 288 288 287 285 284 283 282 281 280 280 282 283 283 284 285 286 286 286 285 285 285 284 284 284 286 288 290 290 291 291 291 291 292 292 292
291 292 291 289 289 289 288 288 287 285 284 283 283 282 281 280 280 280 280 281 282 283 283 284 285 285 285 285 285 284 284 283 284 286 287 289 289 290 290 291 292 292 292
292 291 290 289 289 288 287 286 285 284 283 282 282 281 280 279 279 280 280 280 280 281 281 282 283 284 284 284 284 284 283 283 284 284 285 287 288 289 289 289 290 290 290
291 290 289 288 288 287 286 284 283 282 282 281 280 279 279 279 279 279 280 281 281 281 281 282 282 282 282 282 282 282 283 283 283 284 284 284 286 287 288 287 287 288 288
290 289 288 288 287 285 284 282 281 280 279 279 279 279 278 278 279 280 280 280 280 281 281 282 282 282 282 282 283 283 283 284 284 284 284 284 284 285 285 285 286 286 287
289 288 287 287 285 284 282 281 279 279 278 278 278 279 278 279 279 280 280 280 280 280 280 281 281 281 282 282 282 282 282 283 283 283 283 284 284 284 284 285 285 286 286

GFSMA_850_thetae_015.txt.gz
Theta_e
313 313 314 314 315 315 313 313 313 312 312 312 312 312 313 316 317 317 317 317 316 315 315 314 313 312 311 309 308 308 307 306 306 307 308 313 318 319 322 323 325 325 323
317 316 316 315 315 313 312 312 313 312 312 312 311 312 313 314 317 316 313 313 312 313 313 314 313 312 311 310 310 309 310 308 307 306 306 306 308 315 320 322 324 325 324
319 319 318 317 316 315 314 313 313 313 312 311 310 312 313 314 313 313 309 308 311 313 313 311 314 312 312 312 312 312 311 310 308 306 306 306 306 307 317 321 323 325 325
320 320 318 317 316 315 314 313 312 312 310 308 307 307 306 306 305 306 308 309 309 311 311 310 313 314 313 313 311 311 311 311 311 310 308 306 306 306 308 318 322 324 325
318 316 316 315 314 313 312 311 311 308 307 306 304 302 302 302 302 301 300 301 302 303 304 305 305 307 310 313 312 311 310 310 310 310 310 308 306 306 305 308 318 321 323
315 314 313 313 310 309 308 309 307 306 305 304 302 302 301 300 299 299 302 304 305 304 307 308 308 308 309 309 311 312 311 310 310 309 309 309 308 307 306 305 306 318 321
314 313 311 309 309 308 307 306 304 303 302 301 299 298 297 298 301 298 300 302 301 301 301 301 302 303 306 307 308 310 312 311 310 312 310 310 309 308 308 307 304 305 314
311 309 310 309 308 306 304 303 302 301 298 296 296 297 301 300 300 301 299 300 300 300 299 298 298 298 299 301 304 306 308 311 311 311 311 311 310 310 308 308 304 304 305
309 309 308 307 305 303 303 299 297 297 296 296 299 299 301 301 300 299 299 298 298 297 296 295 296 296 296 296 298 302 304 306 310 310 310 311 309 308 308 307 306 303 304
308 306 305 303 304 304 302 298 297 298 297 297 298 298 298 299 298 298 297 296 296 296 295 295 295 295 294 295 295 296 298 302 305 308 309 308 308 309 306 305 306 303 302
305 306 306 306 301 299 298 298 296 294 294 296 296 297 296 294 297 296 296 296 295 294 294 295 294 294 293 294 296 296 296 298 300 303 307 309 309 309 306 306 304 302 301
304 303 300 301 300 299 299 294 292 292 291 292 292 293 294 294 294 295 295 295 295 295 294 295 294 293 292 292 294 296 297 298 299 302 303 306 308 308 307 305 302 301 301
301 300 301 300 300 296 292 291 291 290 290 289 289 290 290 291 291 292 293 293 293 292 292 293 294 294 293 292 293 293 295 296 297 299 301 303 306 306 305 303 302 305 302
302 301 300 299 293 292 291 290 289 289 289 289 289 289 289 289 290 290 290 289 289 291 290 290 291 293 292 291 291 291 292 292 295 296 298 300 302 303 302 302 302 302 305
301 299 297 293 293 292 291 290 289 289 289 288 288 288 288 288 289 289 288 287 287 289 288 288 290 289 290 291 291 291 291 291 292 292 295 298 299 301 302 301 301 301 303
299 297 296 294 293 292 290 289 289 288 288 288 288 288 288 288 288 288 287 287 286 285 286 287 287 288 288 288 290 290 290 290 290 291 292 295 298 299 300 299 297 297 299
297 298 297 294 292 291 290 289 288 288 288 288 288 288 288 288 288 287 287 286 285 285 285 285 286 287 289 289 288 288 289 290 290 290 290 293 295 296 298 298 298 298 295
296 297 296 295 291 290 289 289 288 288 288 288 288 287 287 287 287 286 284 283 283 283 284 284 284 286 287 288 288 288 287 288 289 289 289 290 293 293 296 296 295 297 297
295 296 294 293 290 289 290 289 289 288 288 288 287 287 286 284 283 283 282 282 281 282 283 284 284 284 286 287 287 287 287 287 287 287 289 289 291 292 294 295 294 294 294
295 293 292 290 289 290 289 289 289 288 288 287 286 284 283 283 282 281 280 280 281 282 283 283 284 285 286 286 286 286 286 286 286 286 288 290 290 290 291 293 294 294 293
294 293 292 290 290 289 289 289 288 287 286 284 283 283 282 281 281 280 280 280 280 281 282 283 283 284 285 286 286 285 285 284 284 285 285 289 289 290 291 291 292 293 293
293 293 291 290 289 289 288 288 287 285 284 283 282 281 280 280 279 279 279 280 280 281 281 281 282 283 284 285 285 285 284 284 283 284 284 286 288 289 289 291 291 292 292
292 291 291 290 289 288 287 286 284 283 282 281 280 279 279 279 279 279 279 280 281 281 281 281 281 281 282 283 284 284 284 283 283 283 283 284 285 288 289 289 289 290 290
291 291 289 289 288 287 286 284 282 281 280 280 279 279 279 278 278 279 279 280 280 280 280 281 281 281 281 282 282 282 282 282 282 282 283 283 284 284 286 287 288 288 289
290 289 288 288 287 286 284 282 280 280 281 280 279 279 278 278 279 279 280 280 280 280 280 280 280 281 282 282 282 282 282 283 283 283 283 284 284 284 284 285 285 286 287
289 289 288 287 286 284 282 281 280 281 280 279 279 279 278 278 279 279 280 280 280 280 280 280 280 280 280 281 282 282 282 282 282 283 283 283 283 284 284 284 285 285 285

GFSMA_850_thetae_018.txt.gz
Theta_e
316 314 314 314 314 315 315 312 312 313 313 312 312 312 311 313 314 315 315 316 316 316 314 312 309 310 312 312 311 311 310 309 309 308 306 306 307 312 318 321 323 324 325
318 317 316 316 316 314 312 312 313 313 312 311 311 309 309 311 311 310 311 312 312 312 310 309 309 308 307 309 311 311 311 311 311 310 308 306 306 306 307 316 320 322 324
319 319 319 318 317 315 315 314 313 311 310 310 309 307 305 304 304 303 303 304 307 308 307 308 310 308 308 308 309 309 311 311 311 311 311 309 307 306 306 307 314 320 322
319 319 319 317 316 314 312 309 308 308 308 307 306 306 305 304 303 303 302 301 301 301 302 304 306 306 306 311 312 310 311 312 311 311 311 311 310 307 306 306 306 316 321
318 316 315 314 315 310 309 308 307 306 306 305 304 304 305 304 304 302 299 301 304 304 304 305 305 303 303 303 304 307 310 311 312 311 311 311 310 310 307 306 306 306 317
316 316 314 311 309 308 308 307 306 305 304 304 303 302 302 303 301 300 301 301 300 300 300 300 301 303 306 306 306 307 308 309 311 311 310 311 312 310 310 308 307 306 305
313 312 311 309 309 309 308 306 304 304 303 302 300 299 296 297 299 296 296 301 299 298 298 297 296 297 299 300 302 303 304 306 309 310 310 310 313 314 312 309 308 308 307
311 311 310 309 308 307 305 305 304 301 297 295 295 294 297 296 297 300 296 296 298 297 297 296 295 294 294 295 296 296 297 300 303 307 310 311 310 313 313 312 309 308 308
310 309 308 307 306 306 306 300 298 296 296 294 293 296 298 298 297 296 296 294 296 296 296 295 295 295 294 294 295 295 295 296 297 300 303 307 310 311 311 312 311 308 308
307 306 305 304 302 300 299 297 296 296 292 292 292 292 294 295 296 295 295 295 295 295 295 295 294 294 294 293 294 294 295 295 295 296 298 302 304 309 310 312 310 309 308
301 300 300 299 299 300 300 298 295 291 291 290 290 291 291 292 293 294 294 294 293 293 293 293 293 294 293 293 294 294 294 295 295 295 296 297 301 305 308 308 309 310 309
299 299 301 301 300 297 294 292 291 290 289 288 288 289 289 291 290 291 291 291 291 292 290 290 291 293 293 292 292 292 293 295 296 296 297 297 298 301 305 308 309 310 308
300 300 300 300 300 297 293 292 291 289 288 288 288 288 288 288 288 288 289 289 288 288 288 288 289 290 292 293 291 292 292 293 294 295 295 296 297 300 303 306 308 308 308
300 301 300 300 299 296 294 294 291 289 288 288 288 288 288 288 288 288 289 287 287 287 287 287 287 287 288 289 291 290 290 291 292 292 293 293 295 297 300 303 304 305 306
299 300 298 298 296 297 295 291 290 289 288 288 287 287 287 287 288 288 288 287 286 285 286 286 286 286 286 286 287 289 290 290 290 290 290 290 291 295 298 301 302 303 304
299 299 296 296 296 295 292 291 289 289 288 288 288 288 288 288 288 287 287 287 286 285 284 285 285 285 285 285 286 287 287 289 290 289 290 290 290 291 295 298 299 301 302
292 295 295 296 295 294 292 290 289 289 288 288 288 288 288 287 287 287 286 285 284 283 282 282 282 283 284 285 285 288 288 288 288 288 289 289 289 290 294 297 298 296 301
291 293 295 294 293 293 291 289 289 289 288 288 288 288 287 287 286 284 283 283 282 281 280 281 282 282 283 284 287 287 288 288 288 287 288 288 289 289 291 295 298 295 294
291 293 294 293 293 291 289 290 289 289 288 288 288 287 286 284 283 283 282 281 281 280 280 282 282 282 283 284 284 286 286 286 287 287 287 286 288 289 290 293 295 295 296
291 292 294 294 293 289 290 290 289 289 288 287 286 285 283 282 282 281 280 280 280 280 280 280 281 283 283 284 285 286 286 286 286 286 285 285 287 289 289 292 293 294 294
291 293 293 292 290 290 290 289 288 287 287 285 284 282 281 280 280 280 280 280 280 280 280 280 281 281 282 283 284 285 285 285 285 285 284 284 288 289 290 290 292 293 294
291 291 291 292 291 290 288 288 287 286 285 282 281 281 280 279 279 278 279 279 279 280 280 280 280 280 280 281 282 284 284 284 284 284 284 284 285 288 289 290 290 291 293
291 291 291 290 289 288 288 287 286 284 282 281 281 280 279 279 279 279 279 279 279 280 280 280 280 281 281 281 281 282 282 283 283 283 283 283 283 285 287 288 290 291 291
291 290 290 289 288 288 287 286 284 282 281 281 280 279 279 279 278 278 279 279 279 280 280 280 280 280 280 282 281 281 282 282 282 282 282 282 283 283 284 286 289 288 289
290 289 288 288 287 286 285 283 282 281 281 281 280 279 278 278 278 279 279 279 279 280 280 280 280 280 280 280 281 282 281 281 281 282 282 283 283 283 284 284 285 287 287
289 289 288 287 286 285 283 282 281 280 281 280 279 279 278 278 278 278 278 278 279 279 279 280 280 280 280 280 281 281 282 282 282 282 282 283 283 283 284 284 284 285 286

GFSMA_850_thetae_021.txt.gz
Theta_e
319 316 315 315 315 315 315 313 312 312 313 312 311 310 309 308 308 308 309 310 311 312 312 312 312 312 309 307 310 311 309 309 310 310 310 308 306 306 307 316 321 323 324
319 318 317 317 317 317 317 314 314 312 310 309 309 308 307 306 305 304 304 304 304 304 305 307 308 309 311 310 308 309 311 309 310 311 311 310 308 306 306 306 310 318 322
319 319 319 319 318 317 315 312 311 309 308 307 307 307 307 306 306 304 304 305 305 304 302 302 302 304 307 309 308 309 311 312 310 311 311 311 310 310 308 306 306 307 317
319 319 318 316 314 314 312 310 309 308 307 306 306 306 306 306 306 305 304 303 303 302 302 302 302 302 302 302 303 304 307 310 311 311 312 311 311 311 310 306 306 306 307
316 315 314 314 313 310 308 309 307 306 305 305 305 305 305 305 305 305 303 302 301 301 301 300 300 301 302 303 303 304 304 304 305 308 311 311 311 311 311 310 307 306 305
315 314 313 311 310 308 308 307 306 305 305 304 300 299 298 297 296 298 300 299 297 297 299 298 297 297 297 298 299 301 303 304 306 306 308 310 312 311 311 312 310 308 307
311 311 310 309 307 306 306 306 306 305 301 297 296 298 297 295 300 299 295 297 299 295 295 295 295 295 295 295 294 294 296 298 299 302 305 307 309 311 311 311 314 311 308
311 309 307 306 306 305 303 301 298 297 296 295 293 296 297 297 299 299 299 297 297 294 295 296 295 295 295 295 295 294 294 294 295 296 297 302 306 309 310 312 312 313 311
308 307 305 301 300 299 299 300 299 298 295 293 291 295 296 296 296 295 296 296 296 295 295 295 295 294 294 294 294 294 294 294 294 295 295 295 298 303 307 309 312 312 312
304 300 298 296 298 300 300 299 299 295 292 291 290 293 293 294 293 294 293 294 293 293 294 293 293 293 293 293 294 293 294 294 294 294 295 295 295 296 300 303 308 310 311
298 298 298 297 296 297 300 299 297 291 290 289 290 291 292 292 292 293 292 291 291 291 292 291 291 291 291 293 293 293 293 293 294 295 295 295 296 296 296 300 303 308 311
298 297 299 301 299 299 298 297 294 293 291 289 289 290 290 290 290 290 290 290 290 289 289 290 290 290 290 290 291 293 291 292 293 294 294 295 295 295 298 297 300 305 309
297 296 296 300 300 297 297 296 295 292 289 288 288 289 288 289 289 289 289 289 289 288 288 289 289 289 288 289 290 288 291 290 292 293 292 293 293 293 295 297 298 304 309
294 294 295 299 299 297 296 295 293 290 289 288 288 288 288 289 288 288 289 289 288 288 288 288 288 287 288 288 288 286 288 290 290 290 291 291 291 291 292 296 297 301 306
292 291 294 298 298 295 295 295 292 291 289 288 288 288 288 287 288 288 288 287 287 287 287 286 286 286 286 286 287 288 289 289 289 290 290 290 290 290 290 293 296 298 302
291 291 291 296 296 295 294 294 292 290 289 289 288 288 288 288 288 287 287 286 286 286 285 285 284 284 284 284 285 286 287 287 288 288 288 289 290 290 290 290 294 297 299
291 291 291 294 294 294 294 293 292 289 289 289 289 288 288 288 287 286 286 285 284 283 283 283 283 283 283 284 284 285 286 287 288 288 288 287 288 288 289 289 292 295 297
291 290 291 293 293 293 293 292 290 289 290 289 289 288 288 286 286 285 284 283 283 282 282 282 282 282 283 284 284 285 285 287 288 287 288 288 287 287 288 289 290 293 297
291 291 291 292 294 293 293 289 289 290 289 289 288 287 286 285 284 283 283 282 282 282 282 281 282 282 283 283 284 285 285 286 287 286 286 287 286 286 286 288 289 292 295
291 291 291 291 292 292 290 290 290 289 288 287 286 285 284 282 282 282 282 281 281 281 281 281 281 282 282 283 284 284 285 286 286 286 285 286 285 285 286 288 289 292 294
291 291 291 290 291 292 291 290 289 288 287 286 285 283 282 281 281 280 280 280 280 280 281 281 281 281 282 282 282 283 284 284 286 285 285 285 286 287 287 288 290 291 293
290 291 291 291 290 290 288 288 288 287 286 284 282 282 281 281 279 279 279 279 279 280 280 281 281 282 282 282 282 282 283 283 285 285 285 285 285 286 287 289 290 290 293
290 291 291 290 290 288 288 287 287 285 284 282 282 281 280 279 278 278 279 279 280 280 280 280 280 281 281 281 281 282 283 283 283 284 284 284 285 285 285 287 289 290 291
289 290 289 289 289 288 287 286 285 284 282 282 281 280 279 278 278 278 279 279 280 280 280 280 280 281 281 281 281 281 282 282 282 283 283 284 284 284 284 284 287 289 290
289 289 289 288 288 287 286 285 284 282 282 281 281 278 278 277 277 278 278 279 279 279 280 279 280 280 280 280 280 280 281 282 283 283 283 283 283 284 284 284 284 287 290
289 289 288 288 287 286 285 284 282 282 281 281 279 278 278 278 277 277 277 277 278 279 278 278 279 280 280 281 281 280 281 282 283 283 283 283 284 284 285 284 284 284 286

GFSMA_850_thetae_024.txt.gz
Theta_e
320 319 316 317 316 316 316 316 315 315 314 312 311 310 309 309 308 308 308 307 306 304 304 304 305 307 309 309 309 310 311 312 310 310 310 310 308 307 306 306 314 320 323
320 320 318 317 318 318 317 315 315 313 312 311 310 309 308 308 308 307 307 308 307 306 306 305 304 302 303 306 307 308 308 309 311 311 311 311 311 309 307 306 306 308 317
320 320 319 319 319 318 316 313 312 310 310 309 309 308 308 308 308 307 307 307 307 307 306 305 304 303 303 303 302 303 305 306 309 312 312 311 311 311 310 308 307 306 306
319 319 319 315 314 313 312 309 309 309 308 308 308 307 307 307 307 306 306 308 307 306 305 304 302 302 302 302 302 302 303 304 303 304 307 311 312 312 311 310 309 306 306
316 314 314 313 311 309 309 308 308 308 308 308 307 305 304 304 303 301 304 306 305 303 303 302 299 297 298 298 298 298 298 299 301 304 305 305 308 312 312 311 310 308 306
314 312 311 310 309 308 308 308 307 307 306 305 304 301 301 300 301 302 304 303 302 301 301 301 300 299 298 296 294 294 295 295 296 297 301 304 305 306 312 312 311 311 309
312 310 309 308 308 307 307 305 304 303 302 302 301 300 300 300 302 303 302 301 301 300 300 299 299 299 298 298 297 297 295 295 294 294 295 296 300 303 305 311 312 311 311
310 309 308 306 306 303 304 303 302 301 300 300 300 299 299 299 299 301 299 299 298 298 298 298 297 297 297 297 297 296 296 294 294 294 294 296 295 296 299 303 309 312 312
307 306 305 302 299 300 300 301 300 300 299 297 297 297 298 298 297 296 297 296 297 296 296 295 296 295 295 295 296 297 296 295 293 294 294 297 298 296 296 301 304 308 312
303 301 299 298 300 300 301 300 298 298 297 297 296 296 295 295 295 295 295 295 295 294 294 293 294 293 293 294 295 295 295 293 293 293 294 296 297 298 299 299 303 306 308
303 303 302 301 301 301 300 299 298 297 296 296 295 294 294 293 293 293 293 293 293 293 293 292 291 291 292 292 292 293 293 292 292 292 293 295 296 296 297 298 302 304 306
303 303 302 301 300 300 299 298 298 296 296 295 293 293 293 292 292 292 292 292 291 291 291 291 291 291 291 291 290 290 291 290 290 291 293 294 293 293 293 294 297 302 303
299 299 298 298 299 299 298 298 297 296 296 294 293 293 293 292 291 291 291 291 290 290 290 290 290 290 290 290 289 289 290 290 287 289 290 291 292 292 292 292 294 298 301
296 296 296 297 298 298 299 297 296 296 295 294 293 293 292 291 291 290 290 290 289 289 289 289 289 289 289 288 289 288 288 288 289 289 290 290 290 290 290 290 291 295 296
295 295 295 296 297 298 298 297 296 296 295 294 293 292 292 291 290 290 289 289 289 289 289 288 288 287 287 287 287 286 287 288 288 289 288 288 290 290 290 290 290 291 296
295 294 294 295 296 296 296 296 295 295 294 293 292 292 291 291 290 289 289 288 288 288 287 287 287 287 286 286 286 285 286 286 286 287 287 287 288 288 289 289 290 290 292
295 294 294 294 295 295 295 295 294 295 293 292 292 291 291 290 289 288 288 287 287 287 286 286 286 286 286 285 285 286 286 287 287 287 288 288 288 288 288 288 289 290 290
294 294 294 294 294 294 294 294 294 292 292 291 291 290 290 289 288 287 287 286 286 285 285 285 285 285 285 284 285 285 285 286 287 287 289 288 287 287 288 287 287 289 290
294 294 294 294 294 294 292 292 292 291 291 290 290 289 288 287 286 286 285 285 285 284 284 284 284 283 284 284 284 285 285 286 286 287 287 288 286 286 286 287 287 287 288
293 293 293 293 293 292 292 291 290 290 290 289 288 287 286 284 284 283 283 283 283 283 283 283 283 283 283 284 284 284 285 285 286 287 287 287 287 286 286 286 286 286 288
293 293 293 293 292 291 290 290 290 289 288 287 286 285 284 283 282 281 281 281 281 281 282 282 283 283 283 284 284 284 284 284 285 286 287 288 287 287 288 289 288 287 288
293 293 292 292 291 289 290 289 288 287 287 285 284 283 283 282 282 280 280 279 279 280 281 282 282 283 283 283 283 283 283 284 285 285 286 287 287 287 287 289 289 287 289
292 292 292 291 290 289 289 288 287 286 285 284 283 283 282 282 281 281 280 280 281 281 281 281 281 283 283 283 283 283 283 283 284 285 285 286 286 286 287 287 287 287 289
292 292 292 290 289 288 288 287 286 284 284 283 282 282 282 281 281 279 279 280 281 281 281 281 281 281 281 282 282 282 282 283 283 284 284 285 285 285 286 287 286 286 288
291 291 291 290 289 287 287 286 285 284 284 283 282 282 280 280 279 278 278 279 280 280 281 280 279 279 280 281 281 281 282 283 284 284 284 285 285 285 285 286 287 286 287
290 290 290 289 288 288 287 286 284 283 283 282 282 281 280 278 279 277 277 278 279 279 279 279 280 281 281 282 282 282 282 282 283 284 285 284 285 285 286 287 287 287 286

GFSMA_850_thetae_027.txt.gz
Theta_e
323 324 324 322 321 320 320 320 319 318 316 315 314 313 312 312 311 311 310 310 309 308 308 307 305 304 303 303 304 306 307 308 309 310 311 310 311 310 309 306 306 312 319
320 321 320 320 320 320 320 318 317 315 314 313 312 311 311 311 310 310 310 309 309 309 308 308 307 305 304 303 303 303 304 306 306 307 308 311 310 311 311 310 307 306 307
320 319 319 319 320 318 314 313 312 312 312 312 311 310 310 309 308 308 308 307 309 309 308 307 306 304 303 302 302 302 303 303 303 303 305 309 312 311 311 311 311 309 306
320 320 319 319 315 313 312 312 311 311 311 311 310 310 308 305 304 306 304 303 307 308 307 306 303 303 301 298 298 298 298 298 299 301 303 303 304 309 311 311 311 310 310
319 317 314 314 312 312 311 312 312 311 311 310 307 306 305 302 303 302 303 304 307 306 305 303 303 301 300 299 299 299 300 301 302 302 301 303 304 303 304 309 312 311 311
314 313 313 311 311 312 311 311 310 308 307 305 303 303 303 302 301 303 305 305 305 303 303 302 301 301 300 299 299 300 300 301 301 302 302 302 302 304 302 304 308 312 312
312 311 312 312 311 310 308 308 306 304 303 302 302 302 301 300 301 301 302 303 301 301 300 300 300 299 299 299 299 299 299 299 300 298 299 299 300 301 301 301 304 308 312
311 310 310 309 307 306 304 303 304 303 302 301 300 300 299 299 300 300 299 299 299 298 299 298 297 297 297 297 297 296 298 297 296 296 294 294 299 299 300 301 299 302 308
309 308 307 306 304 303 303 302 302 302 301 300 300 299 298 298 297 297 297 297 297 297 297 296 296 295 296 295 295 295 295 294 295 294 294 296 297 298 299 300 301 302 303
307 305 304 304 304 303 303 302 301 300 300 299 299 299 298 297 296 296 295 295 295 295 294 294 295 294 293 293 294 293 293 293 293 292 293 295 298 298 298 298 299 301 302
305 305 305 304 304 303 302 301 300 300 299 298 298 297 295 295 295 294 295 294 294 293 293 293 293 293 292 292 292 292 292 291 290 290 290 293 294 296 297 297 297 298 301
303 302 301 301 300 300 301 300 300 299 298 298 297 295 295 294 294 293 293 293 293 292 292 292 292 292 291 291 291 291 290 290 290 290 290 290 292 293 295 295 295 295 298
300 299 298 298 298 298 299 300 299 298 297 297 296 296 295 294 294 293 293 292 292 291 291 291 291 291 291 290 290 290 289 289 288 288 289 290 290 291 292 293 292 292 292
298 298 297 297 297 298 298 299 299 298 297 297 296 296 295 294 294 293 292 292 291 290 290 290 290 290 289 289 289 288 288 288 288 287 288 289 290 289 290 291 290 291 290
297 297 297 296 296 296 297 298 298 297 297 296 296 296 294 294 293 293 292 291 290 290 290 290 289 289 288 288 288 288 288 287 287 287 287 287 288 288 288 290 290 291 291
297 297 296 296 296 296 296 296 297 296 296 296 295 295 294 293 293 292 291 290 289 289 289 289 288 288 288 287 287 287 287 287 287 287 287 287 287 287 287 287 289 289 291
297 296 296 295 295 295 295 296 295 295 295 295 294 293 293 292 292 291 290 289 289 288 288 288 287 287 287 286 286 286 286 286 286 286 287 287 288 287 288 288 288 288 289
297 296 295 295 295 295 294 294 294 293 293 294 293 292 292 291 290 289 288 288 287 287 286 286 286 285 286 286 285 285 285 286 286 287 287 287 288 288 289 288 287 287 288
297 296 295 295 295 294 293 293 292 293 292 292 292 291 290 289 288 287 286 286 285 285 285 285 285 284 284 284 285 285 285 285 286 286 287 287 287 287 287 286 286 286 287
296 295 295 294 294 294 293 292 292 292 291 291 290 289 288 287 286 285 284 284 284 284 283 283 284 284 284 284 285 285 285 285 285 285 285 287 288 288 287 287 286 285 287
295 295 294 294 294 293 292 291 291 290 290 289 289 287 286 285 284 283 282 282 282 282 282 282 282 283 283 284 284 284 284 284 285 285 286 286 287 288 288 288 288 288 288
294 294 294 294 293 292 291 289 289 289 288 287 287 286 285 285 284 283 282 281 281 281 281 282 282 282 282 283 284 284 284 284 284 284 285 286 286 288 288 288 289 290 289
294 294 294 293 293 292 290 289 288 287 286 286 286 285 285 284 284 283 282 281 281 281 281 282 282 282 283 282 282 283 283 284 284 284 285 285 285 287 287 287 287 287 287
294 294 293 293 292 291 290 288 287 286 286 286 285 285 284 284 282 281 280 280 281 281 282 282 281 281 281 281 281 282 282 283 283 283 284 285 284 285 286 286 286 286 286
293 293 292 292 291 291 289 288 287 286 286 285 285 284 283 282 281 279 278 279 280 280 281 280 280 280 280 281 281 282 282 283 283 284 284 285 285 285 285 285 285 285 286
293 292 292 291 291 290 289 288 286 285 284 285 284 284 283 282 281 278 277 278 279 280 279 279 279 281 281 282 283 283 283 284 284 283 284 285 286 286 286 287 286 287 287

GFSMA_850_thetae_030.txt.gz
Theta_e
325 321 321 320 322 320 320 320 319 318 317 315 314 313 312 311 310 310 310 310 310 309 309 309 308 307 306 304 304 303 303 305 307 308 309 311 311 310 310 310 309 306 306
320 320 323 319 319 318 318 318 314 313 312 312 312 311 311 310 309 308 307 308 309 306 308 309 307 306 305 304 302 301 302 303 303 303 305 307 310 311 311 310 310 309 307
320 320 319 318 318 319 318 314 312 311 312 312 311 310 309 309 309 305 303 305 303 305 309 308 306 305 303 303 301 301 301 300 299 300 302 303 305 307 312 312 311 311 310
321 320 317 317 318 315 313 311 312 312 311 311 310 307 305 305 305 303 303 302 302 303 307 306 305 303 302 301 301 302 302 303 303 303 303 301 301 305 306 307 312 312 311
319 318 317 315 312 311 312 312 312 310 308 305 303 303 303 303 303 301 301 304 306 306 305 303 303 302 301 301 300 301 301 302 302 302 303 303 302 299 302 304 304 309 313
316 314 313 312 312 312 311 310 308 305 304 302 302 301 302 301 300 301 302 304 304 304 302 302 301 300 300 300 299 300 301 301 301 300 300 300 300 300 298 299 301 303 306
313 312 312 312 310 310 308 305 303 303 302 302 301 301 300 299 300 299 300 300 299 299 299 299 298 297 297 297 297 297 298 297 297 298 298 297 297 298 300 299 297 299 302
312 311 311 310 308 305 302 302 302 302 303 302 300 300 300 299 299 298 298 297 297 297 297 297 297 296 296 295 295 295 296 295 294 295 296 296 296 297 298 299 299 298 300
310 309 307 305 303 303 303 303 302 302 301 301 299 300 299 299 298 297 296 296 295 295 295 294 294 294 294 294 293 292 293 293 293 292 292 294 294 295 298 298 299 299 300
307 306 305 305 305 305 302 302 303 302 301 300 300 299 298 297 296 296 295 295 294 294 293 293 293 293 293 293 292 292 292 292 292 292 291 292 292 293 295 297 297 298 298
306 305 305 304 304 304 301 301 301 301 300 300 299 298 297 296 295 295 294 294 293 293 293 292 292 292 291 291 291 291 291 291 291 290 290 291 291 292 293 295 296 297 297
304 303 302 301 299 296 298 299 300 300 300 299 298 297 296 296 295 294 294 294 293 293 292 292 291 291 291 291 291 291 290 290 289 289 289 289 290 291 291 293 295 296 296
301 300 299 297 296 295 297 298 299 300 300 297 298 297 296 296 295 294 294 293 293 292 291 291 290 290 290 290 290 289 289 289 288 288 288 288 289 289 291 292 292 294 295
300 298 298 297 295 296 296 297 298 298 298 298 297 296 295 296 295 294 294 293 292 291 291 290 290 290 289 289 290 288 288 288 288 288 288 287 287 287 288 289 290 291 294
298 298 297 296 296 296 296 296 296 297 297 297 296 296 295 295 294 294 293 292 291 291 290 290 290 289 289 288 288 287 287 287 287 287 287 287 286 287 288 288 289 290 291
298 298 297 297 296 296 296 295 296 296 296 296 295 295 295 294 294 293 292 291 291 290 289 289 289 288 287 287 287 286 286 286 286 286 285 286 286 287 287 287 288 288 290
298 298 297 296 295 295 295 295 295 293 294 293 293 294 294 293 292 291 290 289 288 288 287 287 287 286 286 286 285 285 285 284 284 285 286 286 286 287 287 287 288 288 287
298 298 297 296 295 295 295 295 294 294 292 293 293 293 292 291 290 290 288 287 287 287 286 286 285 285 284 284 284 284 284 284 285 285 285 286 286 287 287 287 288 288 288
298 298 297 296 295 295 295 294 293 292 292 292 292 291 290 289 288 287 287 286 285 284 284 284 284 283 283 283 283 284 284 284 285 285 285 285 285 286 286 288 288 288 287
297 297 296 295 295 294 294 293 292 292 291 291 290 290 289 287 287 286 285 284 283 282 282 282 282 282 282 282 283 283 284 284 284 284 284 284 285 285 286 287 288 287 286
297 297 295 295 294 294 294 293 292 289 290 289 288 288 287 286 286 285 284 283 283 282 281 281 281 281 282 282 282 283 283 283 283 283 284 284 284 285 286 286 288 287 287
296 295 295 295 294 294 293 292 291 289 288 287 287 287 286 286 285 284 284 283 283 281 281 281 281 282 282 282 282 282 281 281 282 282 283 283 283 284 285 288 288 288 288
294 294 295 294 294 294 293 292 291 288 287 286 286 286 286 285 284 284 283 282 279 280 281 281 282 282 281 281 281 280 280 281 282 282 282 282 283 284 284 285 286 287 287
294 294 294 293 293 293 292 291 290 288 287 286 286 286 285 284 284 283 282 279 279 279 280 281 281 280 280 280 280 281 281 281 282 283 283 283 284 284 284 284 285 285 285
293 294 294 293 292 292 291 291 290 288 287 285 285 285 285 284 283 283 281 279 278 279 280 280 279 279 280 281 281 282 283 283 283 283 283 284 283 285 285 285 285 285 285
293 293 293 292 292 291 291 290 289 288 286 285 284 284 284 283 283 282 280 279 278 278 277 278 279 279 280 281 282 282 283 283 283 283 284 284 284 284 285 286 286 287 286

GFSMA_850_thetae_033.txt.gz
Theta_e
326 324 323 322 322 321 320 319 320 320 315 312 311 311 311 311 310 309 308 308 306 306 305 305 308 308 306 306 305 304 303 302 303 303 304 305 307 311 312 312 313 314 310
321 320 320 321 319 319 319 317 318 316 312 310 310 310 309 308 308 309 308 303 303 304 303 308 307 306 304 304 303 302 302 301 299 300 302 303 303 304 308 312 312 312 313
319 319 320 319 318 318 319 318 315 311 310 310 309 308 306 305 305 304 301 302 302 302 303 307 305 305 304 302 303 303 303 303 302 303 303 304 304 303 304 305 309 312 313
321 320 320 317 317 315 312 310 310 311 311 308 304 301 302 302 301 299 301 301 303 306 305 304 303 302 303 302 302 302 302 302 302 303 302 302 302 302 302 302 304 305 309
320 320 317 315 314 311 310 311 311 310 304 303 301 300 300 301 301 299 300 302 303 301 300 300 300 300 300 300 300 300 301 301 301 301 301 300 299 299 298 299 301 302 303
316 314 313 313 311 311 311 310 306 302 301 300 300 300 299 298 298 299 299 300 301 301 299 298 298 298 298 298 298 297 298 299 299 298 298 298 298 298 298 298 300 301 302
313 313 312 312 311 310 307 303 301 301 300 300 300 299 297 299 298 299 299 298 298 297 297 297 296 296 295 295 295 295 296 297 297 296 296 297 296 296 296 298 299 300 301
312 312 311 311 308 304 301 301 300 299 300 301 300 299 299 298 298 298 298 297 296 295 295 295 294 294 294 293 293 293 293 293 292 293 294 294 294 294 295 296 298 300 300
312 310 308 305 304 304 303 302 300 299 301 301 301 299 299 298 298 296 296 295 295 295 294 294 293 293 293 292 292 292 292 292 292 292 292 293 293 293 293 294 295 298 298
308 307 307 306 304 304 303 302 300 299 299 300 300 299 298 298 297 296 295 295 294 293 292 292 292 292 292 291 291 291 291 291 291 291 290 292 292 292 292 292 293 296 298
306 307 306 305 304 303 302 299 295 298 300 300 300 300 298 297 296 296 296 295 294 293 293 292 292 291 290 290 290 291 290 290 290 289 290 290 291 291 291 291 292 293 296
306 305 304 304 303 301 296 293 294 296 299 300 299 298 297 297 297 296 295 294 294 293 293 292 292 290 290 289 289 289 289 290 289 289 288 289 290 290 290 290 290 292 294
305 304 303 301 298 295 294 293 295 297 298 298 297 298 297 297 296 296 295 295 294 293 293 292 291 290 289 289 288 289 289 289 289 288 288 288 288 289 289 289 289 290 292
305 300 299 296 296 296 294 293 293 295 296 298 298 297 296 296 295 296 295 294 293 293 292 291 290 289 289 289 289 288 288 288 287 287 287 287 287 288 288 288 288 289 290
302 299 297 297 296 295 294 295 295 295 296 296 296 296 295 295 295 295 294 293 292 292 291 290 289 288 288 288 288 288 287 287 286 285 286 285 285 286 287 287 288 289 290
299 298 297 297 297 296 295 295 295 296 295 295 293 292 293 294 295 293 292 291 290 289 288 288 288 287 287 286 286 286 286 285 284 284 284 284 285 286 286 286 287 288 289
299 298 298 297 297 297 295 295 295 295 294 293 292 293 292 292 292 292 290 290 289 288 287 287 286 285 284 284 285 284 283 283 284 284 284 284 284 285 286 286 286 286 287
299 298 298 298 297 296 295 295 295 294 293 292 292 292 292 291 290 289 289 288 287 286 286 284 283 283 283 282 282 282 282 283 283 284 284 284 284 285 285 285 285 286 287
298 298 298 298 297 296 295 295 294 294 293 292 292 291 290 289 289 288 287 286 286 285 283 283 282 282 281 281 282 282 282 282 283 283 283 283 284 284 284 284 285 285 287
298 297 297 297 297 294 295 294 294 294 292 291 290 290 289 288 287 287 286 285 284 283 283 282 281 281 281 281 282 282 282 282 282 282 282 282 283 283 283 284 285 285 286
297 296 297 296 295 295 294 294 294 293 292 291 288 288 287 287 286 286 285 284 284 283 283 281 280 281 281 281 282 282 281 280 280 280 281 282 282 282 283 283 284 286 287
294 295 295 295 295 295 294 294 294 293 291 289 287 285 286 286 285 285 284 284 283 282 280 279 280 280 281 281 281 280 280 280 280 281 281 282 283 282 283 283 284 286 288
294 294 294 294 294 294 294 293 293 292 291 289 287 285 286 286 285 284 284 284 282 281 279 279 280 281 281 280 280 280 280 281 281 282 282 283 283 283 283 284 284 284 285
293 293 293 293 294 294 293 292 292 291 291 289 288 285 286 285 285 284 283 282 281 280 279 279 280 280 280 279 280 281 281 282 282 282 283 283 283 283 284 285 285 285 285
293 293 293 293 293 293 292 292 292 291 290 289 287 285 284 285 284 283 283 282 281 280 279 278 279 279 279 280 281 282 281 281 282 282 283 284 284 283 284 283 285 286 286
292 292 293 293 293 292 292 292 291 290 289 288 286 285 284 284 283 283 282 281 280 280 280 280 279 279 279 280 280 280 280 281 281 282 283 283 284 284 284 284 283 284 285

GFSMA_850_thetae_036.txt.gz
Theta_e
324 323 322 322 321 321 320 320 320 320 319 316 310 309 309 310 308 308 308 307 306 302 303 304 307 306 306 305 305 304 304 302 301 301 301 302 303 304 306 309 311 311 311
325 324 322 322 321 321 319 318 318 317 314 310 310 308 306 305 306 306 305 302 302 302 303 306 306 306 304 304 303 303 303 303 301 302 302 301 301 302 303 304 306 309 311
320 320 320 321 321 318 317 318 315 311 310 309 309 305 300 301 303 301 299 300 301 304 306 306 304 304 303 304 303 302 303 303 303 302 301 301 300 299 298 300 302 303 305
319 320 320 320 317 316 314 311 310 309 308 309 302 299 299 300 300 299 300 302 303 304 305 303 301 300 301 302 302 302 302 302 301 302 301 300 297 298 296 298 300 301 300
320 320 319 318 316 313 311 310 310 309 305 300 300 300 300 300 298 299 299 300 300 300 302 300 298 298 298 297 298 299 300 300 300 300 298 299 299 298 298 297 298 301 301
320 319 318 314 312 311 311 309 306 301 300 300 300 300 299 297 299 299 298 298 298 297 297 297 296 296 295 295 296 296 297 298 298 298 297 296 296 297 297 297 297 299 301
317 313 312 312 311 311 308 303 301 301 298 298 299 300 298 299 298 298 298 298 298 297 296 295 295 294 294 294 293 295 295 295 296 296 295 295 295 294 295 295 295 296 298
312 312 312 311 310 307 304 302 301 299 297 298 299 299 298 297 298 296 296 296 295 295 294 294 294 293 293 293 292 292 292 293 294 294 294 294 294 293 293 294 294 295 295
312 312 310 309 309 309 303 302 302 300 298 298 299 299 298 298 298 297 297 295 295 295 294 293 292 292 292 291 291 290 291 291 291 291 292 293 293 293 293 293 293 293 294
312 311 310 310 309 306 304 303 301 298 295 298 299 300 300 299 298 297 296 295 295 295 295 293 292 291 291 291 290 290 290 290 290 290 290 291 292 292 292 292 292 292 293
312 311 310 308 306 304 303 302 299 293 293 295 299 300 299 298 297 297 296 296 295 295 295 293 292 292 291 291 290 289 288 288 289 290 290 290 291 291 291 291 291 291 291
309 307 306 305 304 303 300 297 294 293 293 296 298 298 298 297 297 297 296 296 295 295 295 294 293 292 291 290 289 289 288 288 289 289 288 289 290 289 290 290 290 291 291
307 306 307 305 300 300 296 294 293 292 293 295 296 297 297 297 296 296 295 295 295 295 294 293 292 291 290 289 289 289 289 289 288 288 287 287 287 288 288 288 289 290 290
307 304 302 302 298 296 295 294 293 293 294 294 295 296 296 295 295 294 295 295 294 294 293 292 291 290 289 288 288 288 288 288 288 287 287 286 285 286 287 287 288 288 289
304 304 302 298 297 296 296 295 293 294 295 295 295 295 293 291 292 294 295 294 293 292 291 290 289 288 288 287 286 286 286 285 285 285 284 284 285 286 287 287 288 288 288
303 300 300 299 298 297 297 296 295 294 295 295 294 293 291 291 292 292 293 292 291 290 289 288 288 287 285 284 283 283 283 283 283 283 283 283 284 285 285 286 286 287 287
301 302 301 298 298 298 298 297 296 294 295 294 294 292 291 292 291 291 290 289 289 288 287 286 285 284 283 283 283 283 282 282 282 282 283 283 283 284 284 285 285 285 286
302 299 298 298 298 298 297 297 295 294 295 294 294 292 291 291 290 289 289 288 287 286 285 285 283 283 282 282 281 281 282 281 281 282 282 282 283 283 283 284 284 284 284
300 298 298 298 298 297 297 296 294 295 294 294 293 291 290 290 289 288 288 287 286 285 284 283 283 282 281 281 281 281 281 281 282 281 281 281 282 282 283 283 283 283 284
300 299 298 297 296 297 296 294 295 294 294 294 292 291 289 289 288 287 287 286 285 284 284 283 282 280 280 281 281 281 281 281 280 280 281 281 281 281 282 282 283 283 283
298 296 295 295 295 294 293 294 294 294 294 293 292 291 288 286 286 286 286 285 284 284 283 282 280 279 280 280 280 280 280 280 280 281 282 282 282 283 282 282 282 282 283
299 295 295 294 294 293 294 294 294 294 293 293 292 290 289 286 285 285 285 284 284 284 282 281 279 279 280 280 280 280 279 280 281 282 282 282 283 283 283 283 284 284 284
295 294 294 293 293 293 294 294 294 293 293 292 291 290 288 287 285 285 285 284 284 283 281 280 279 279 280 279 279 279 280 281 281 282 282 282 283 284 283 283 284 285 285
296 294 293 293 292 293 294 293 293 292 292 292 291 290 288 286 285 285 284 284 283 282 281 280 279 279 279 279 279 280 281 281 281 281 281 282 283 283 284 284 284 285 285
293 293 293 291 292 293 293 292 292 292 291 291 290 289 287 285 285 284 284 283 282 281 280 280 280 279 278 279 279 280 280 280 280 281 281 282 283 283 284 284 283 284 284
292 291 291 291 291 291 292 292 292 291 291 290 289 288 286 284 284 283 283 282 281 280 280 280 280 279 278 278 278 279 279 279 280 280 281 281 283 284 284 284 283 283 284

GFSMA_850_thetae_039.txt.gz
Theta_e
323 324 323 322 321 321 320 320 319 318 316 313 310 309 308 305 302 302 301 303 303 301 304 306 308 308 306 305 304 303 303 302 301 303 301 301 300 300 300 301 302 304 306
323 323 323 322 321 320 320 319 318 316 313 310 309 309 305 300 299 300 299 298 297 300 303 308 307 307 305 305 304 304 304 303 304 302 300 300 300 299 298 297 297 298 301
323 324 323 321 321 320 319 318 316 311 310 309 308 305 299 298 298 298 298 299 301 302 305 306 305 305 304 304 304 303 303 303 303 303 302 301 300 299 298 297 296 295 296
322 323 321 321 321 319 317 314 310 310 308 305 300 299 298 299 299 298 298 300 302 304 305 305 304 301 301 300 300 301 301 301 301 302 301 301 300 299 299 295 296 298 300
319 320 320 320 319 316 313 311 310 308 302 300 298 298 299 298 298 297 298 299 299 299 301 302 300 299 297 297 298 298 299 299 299 299 299 299 298 297 297 297 297 297 298
320 320 320 319 316 312 311 310 306 302 300 297 297 297 297 297 298 299 298 297 297 297 297 296 295 295 295 294 294 295 297 297 297 298 298 297 296 296 295 295 296 296 296
320 319 319 315 312 311 309 306 303 301 299 298 296 296 296 297 298 298 297 296 296 295 295 294 294 293 292 293 293 292 294 294 295 295 295 295 295 295 294 294 295 295 295
318 317 313 311 311 309 308 305 303 301 299 297 295 295 297 298 298 297 298 297 295 295 294 295 294 294 292 291 291 291 290 290 292 293 294 294 294 294 294 294 294 294 295
315 312 311 311 308 308 307 306 303 301 300 296 295 296 298 298 298 297 297 296 295 295 295 295 294 294 292 291 291 291 290 290 289 291 292 293 293 293 293 293 293 294 294
313 312 311 308 308 309 307 308 304 301 297 294 294 296 299 300 299 297 297 296 296 296 295 295 295 294 292 292 291 291 290 290 289 289 291 292 292 292 293 292 292 293 293
313 312 310 309 307 305 306 301 300 296 293 293 294 297 298 298 297 297 297 296 296 295 295 295 295 294 293 292 291 291 290 289 289 288 290 291 291 291 291 291 291 291 292
312 311 308 307 305 304 306 301 296 294 293 293 294 296 297 297 297 297 296 296 295 295 295 295 294 294 292 291 290 289 289 288 288 288 288 288 289 290 290 290 290 290 290
313 310 307 305 303 305 303 296 295 294 292 293 294 294 295 295 294 294 294 294 294 293 293 292 293 292 291 290 289 288 288 288 288 288 288 287 287 288 288 288 288 288 289
312 308 306 306 303 304 297 297 296 295 293 293 294 295 294 294 292 291 291 293 294 293 292 292 291 290 289 288 288 287 286 285 285 285 285 284 284 285 286 286 287 288 289
308 306 305 305 305 299 298 297 297 296 296 294 294 294 294 293 291 291 291 292 292 292 290 290 289 288 287 286 284 283 283 283 283 283 283 283 284 285 285 286 287 287 288
305 306 307 304 304 300 298 297 297 297 296 294 294 294 294 293 291 291 291 291 290 289 288 288 286 285 285 283 282 282 282 282 282 282 282 282 283 284 285 285 286 286 287
310 308 302 303 300 298 298 297 297 297 295 294 294 294 294 292 290 290 290 289 289 288 287 286 285 284 283 282 282 282 282 282 282 281 281 281 282 283 282 283 283 285 285
303 301 302 299 298 298 298 297 297 296 294 294 294 294 293 292 290 290 290 289 288 287 286 285 284 283 282 282 281 281 281 281 281 281 281 281 281 281 282 282 282 283 284
301 302 301 298 298 297 297 297 296 293 294 294 294 294 293 291 290 289 289 288 287 286 285 284 284 283 282 281 281 281 281 281 280 280 280 281 281 281 281 281 282 282 283
303 301 299 297 297 296 296 295 293 293 294 294 294 293 292 291 289 287 286 286 286 285 284 284 283 282 281 280 280 280 281 280 279 280 281 282 282 282 283 282 282 282 282
300 299 296 296 295 296 295 293 294 294 294 294 293 293 292 291 289 288 286 285 285 284 284 283 282 281 280 279 280 279 279 279 280 281 281 282 282 282 283 283 283 282 282
298 296 299 299 297 294 294 293 294 294 294 294 293 293 292 290 289 288 286 285 285 284 283 283 282 280 279 279 279 279 279 280 280 281 281 281 281 282 283 284 283 283 284
298 300 299 294 294 293 293 293 293 293 293 293 292 292 291 290 289 287 285 285 284 284 283 282 281 280 279 279 278 279 279 280 280 280 280 281 281 282 284 284 284 283 285
299 296 295 293 293 292 291 292 293 293 293 292 292 291 291 289 288 286 285 284 284 284 282 281 280 280 279 279 278 279 279 279 280 280 280 281 282 283 284 284 284 283 284
295 293 293 292 291 290 290 290 292 292 292 291 291 291 290 288 287 285 284 284 284 283 281 280 280 280 279 279 278 278 278 279 279 279 280 281 281 283 283 284 284 283 284
293 292 291 291 291 291 291 290 290 290 290 290 290 290 289 288 287 285 284 283 283 282 281 280 280 279 279 279 279 278 278 278 278 278 280 280 281 282 282 284 284 284 283

GFSMA_850_thetae_042.txt.gz
Theta_e
322 321 321 321 321 321 320 320 319 319 318 315 311 309 307 304 300 300 299 299 298 298 306 307 308 307 306 305 304 305 305 305 305 304 303 302 300 300 299 298 298 298 297
323 324 323 322 321 321 320 319 319 317 315 310 309 307 303 300 299 298 298 297 297 300 305 306 306 306 306 305 304 304 303 303 303 303 303 302 301 301 300 300 297 295 295
322 323 323 322 321 320 319 318 317 313 310 309 307 301 299 298 298 298 297 298 300 301 303 305 305 305 305 305 304 303 303 302 302 301 301 301 301 300 299 299 296 298 298
323 323 323 322 321 320 319 317 313 310 309 306 301 299 297 297 297 297 297 298 300 302 303 304 304 302 301 300 299 299 300 301 300 300 301 300 299 298 297 298 295 297 298
321 323 323 321 320 320 316 312 310 309 306 301 299 297 297 296 297 298 298 297 297 298 298 299 300 298 296 295 295 296 298 298 299 299 299 299 298 297 296 296 296 296 297
319 320 320 320 319 316 312 310 309 306 302 299 297 296 296 297 298 298 298 297 296 295 296 296 295 294 294 293 293 294 296 296 297 297 296 297 296 296 296 295 295 295 296
320 320 320 319 316 312 311 309 307 303 301 299 297 296 297 297 298 298 297 297 297 296 295 295 294 294 294 294 292 292 293 294 294 294 295 295 295 296 295 295 295 295 295
320 320 318 317 312 311 309 307 305 302 300 298 295 295 296 297 298 298 297 297 296 295 295 295 295 295 294 293 292 291 291 291 291 292 293 293 294 294 294 294 294 294 295
319 318 316 313 311 310 307 306 304 301 298 297 295 294 296 297 298 297 297 297 296 295 295 296 295 295 294 294 292 292 291 291 290 290 292 292 293 293 293 294 294 294 294
317 315 313 311 310 307 306 305 303 303 303 298 294 293 295 298 299 297 297 296 296 295 294 295 295 295 294 294 293 292 291 290 290 289 291 292 292 292 293 293 293 293 293
315 313 312 311 307 306 305 306 307 304 306 295 293 293 294 295 296 297 297 296 295 294 294 293 294 294 294 294 293 292 290 290 289 289 288 287 290 290 291 291 291 292 292
315 313 311 310 307 306 305 307 311 306 295 294 293 293 294 295 295 295 293 292 291 291 293 294 292 294 293 293 291 290 289 289 288 287 287 287 287 289 289 290 290 290 291
316 314 312 310 307 305 306 310 308 299 298 295 292 293 294 294 294 293 292 290 291 291 292 293 292 292 292 291 290 289 288 287 286 285 285 285 285 286 287 288 288 288 288
317 314 311 307 305 307 311 307 305 298 296 295 295 293 294 294 293 293 291 290 291 291 292 292 291 290 289 288 288 286 285 284 283 283 283 283 283 283 285 286 287 287 288
316 313 311 314 310 310 306 303 299 297 296 296 296 294 294 294 293 292 290 290 291 291 290 289 289 288 286 285 285 284 283 283 282 283 283 283 282 284 285 285 286 287 288
317 316 314 309 310 306 302 299 297 297 297 296 295 294 294 294 293 291 290 290 290 289 289 288 287 286 285 284 283 282 282 282 282 282 282 282 282 283 283 284 284 285 285
317 313 309 307 303 302 299 298 297 297 297 296 294 294 294 294 293 292 290 289 289 289 288 287 286 285 284 283 282 281 281 281 281 282 281 281 281 281 281 281 282 283 284
314 305 305 302 301 299 299 297 297 297 296 294 293 294 294 293 293 291 290 289 288 288 287 286 286 285 284 283 281 281 281 281 281 281 280 280 280 280 281 281 281 281 282
306 307 302 301 300 301 297 297 296 296 295 293 294 294 294 293 293 291 290 288 287 287 286 285 284 284 283 282 281 281 281 281 281 280 280 280 281 281 282 282 282 282 282
305 300 301 301 298 297 297 296 295 295 294 294 294 294 294 293 292 291 289 288 286 285 285 284 284 283 282 281 281 280 281 280 280 280 281 281 281 282 282 282 283 283 283
301 301 300 300 299 299 296 295 296 294 294 294 294 294 293 293 292 290 289 288 286 285 285 284 283 283 282 281 280 280 279 279 279 280 281 281 281 281 282 282 283 283 283
301 300 301 300 299 298 297 294 293 293 293 293 293 293 293 292 292 290 289 288 286 285 284 284 283 282 281 280 280 279 279 279 279 280 280 280 280 281 282 283 284 284 283
300 300 300 299 297 295 294 293 293 291 292 293 293 293 292 292 291 290 289 288 286 285 284 283 283 282 280 280 280 279 279 278 279 278 279 280 281 282 282 283 284 284 284
300 300 298 295 294 293 292 291 290 290 291 292 292 292 291 291 291 289 288 286 285 284 284 283 282 281 280 280 279 279 278 278 278 279 278 279 281 281 282 283 284 283 283
298 296 294 293 292 291 291 290 290 290 290 290 291 291 291 290 290 289 287 286 284 284 284 283 282 280 280 280 279 279 279 278 279 279 279 280 280 280 282 283 283 283 284
294 293 292 292 291 291 290 290 290 290 290 290 289 289 289 289 289 288 287 286 285 284 283 282 281 280 280 279 279 279 279 278 278 278 278 278 279 279 280 282 282 283 284

GFSMA_850_thetae_045.txt.gz
Theta_e
313 317 319 320 320 321 320 320 320 319 318 317 312 309 307 303 300 299 298 298 297 297 309 308 307 307 306 305 304 304 304 304 302 303 303 302 301 302 300 299 296 295 295
320 320 321 321 321 321 320 320 320 319 317 312 309 307 302 300 299 298 298 297 298 299 306 308 307 306 306 305 305 305 304 303 303 303 303 302 302 301 300 300 298 295 295
322 323 323 323 322 321 320 320 319 317 312 309 307 301 300 298 298 297 297 298 297 301 302 303 305 305 305 305 304 301 300 302 302 301 301 302 301 300 299 298 298 296 299
322 322 322 322 321 320 320 319 317 312 310 305 301 299 298 297 297 297 298 297 298 302 304 304 304 303 301 300 299 299 300 300 300 300 300 300 300 299 298 297 297 296 294
321 322 322 322 321 320 320 317 312 310 306 303 300 299 297 296 297 297 298 297 297 297 297 298 299 299 297 296 294 296 297 298 299 299 299 298 298 298 297 297 296 296 296
320 319 322 322 321 320 318 314 310 308 305 302 300 299 297 296 297 297 298 297 296 297 295 295 295 294 295 294 294 294 296 296 297 297 297 297 297 297 297 297 297 296 296
318 319 320 320 320 318 315 311 309 307 304 305 302 297 297 297 297 297 298 297 297 297 295 295 295 295 295 295 294 293 293 294 294 294 295 295 295 295 295 296 296 296 296
319 320 320 319 318 316 312 310 307 307 308 303 298 296 299 298 297 297 297 297 297 296 295 295 295 295 295 295 294 294 293 292 292 292 293 294 294 294 295 295 295 295 295
319 320 320 318 316 313 311 308 307 308 306 299 296 296 299 299 296 297 296 296 296 295 295 295 294 294 294 294 294 294 293 292 292 291 292 293 293 294 294 294 294 295 294
319 319 318 316 313 311 310 307 307 308 304 295 298 298 295 294 298 298 297 296 296 294 295 294 293 294 294 294 293 293 293 292 291 290 290 290 292 292 292 292 293 293 294
319 318 317 315 313 311 308 307 306 308 307 307 299 297 296 294 294 297 296 296 295 294 294 294 292 293 292 294 294 293 292 292 289 289 288 288 289 290 290 291 291 292 292
319 318 316 314 312 310 307 306 308 310 310 303 300 298 293 296 297 296 296 295 294 293 292 292 293 293 292 292 292 292 291 290 289 288 287 285 285 285 288 289 290 290 291
318 318 316 313 312 309 306 306 309 310 307 300 297 294 294 293 294 294 294 294 293 293 293 292 290 292 292 292 291 289 289 288 286 285 284 284 283 283 284 285 287 288 289
320 319 316 313 311 309 312 306 308 304 299 296 295 296 295 294 294 293 293 293 293 292 292 292 291 289 289 288 287 286 285 284 284 283 283 283 283 283 283 285 286 287 288
319 318 314 312 310 308 306 307 302 300 297 296 296 296 295 294 294 293 292 291 292 291 291 291 290 289 287 286 286 285 284 283 283 283 283 282 282 283 283 284 285 286 286
320 319 313 312 309 307 306 302 299 298 298 296 296 296 294 294 294 294 293 291 292 290 290 290 289 288 286 286 285 284 283 282 282 282 282 282 282 282 282 283 283 284 284
320 318 314 311 307 304 302 299 299 301 297 297 296 295 294 294 294 293 293 291 291 291 290 290 288 287 286 285 284 283 282 282 282 282 282 282 282 281 281 280 281 281 282
319 318 314 307 303 305 300 298 299 300 299 296 295 293 294 294 294 293 293 292 291 290 289 288 288 286 285 284 283 282 281 281 281 281 281 281 281 280 281 281 281 282 282
318 316 309 302 302 300 299 300 301 298 296 296 295 294 294 294 294 293 293 291 290 289 287 287 286 285 284 283 283 281 281 281 281 281 281 281 281 281 281 282 282 282 282
314 311 304 302 300 299 300 301 299 296 296 295 295 294 294 294 294 293 292 291 290 289 287 286 286 285 284 283 282 281 281 281 281 281 281 281 281 281 281 281 281 282 282
303 301 301 299 300 301 300 299 299 296 295 294 294 294 294 293 294 293 292 291 290 288 287 286 285 285 284 283 282 280 281 281 281 281 281 281 281 282 282 282 282 282 283
301 300 299 300 301 301 299 298 295 293 293 293 292 293 293 293 293 293 292 291 290 288 287 286 285 284 284 283 281 280 280 281 281 281 281 281 281 282 282 282 283 283 284
300 300 300 301 300 299 297 294 293 292 292 291 290 291 293 293 292 292 291 291 290 288 287 285 285 284 283 282 280 280 281 280 281 280 280 281 281 281 282 282 283 284 283
300 301 300 299 297 295 293 292 291 291 290 290 289 290 292 292 291 290 290 290 289 287 286 284 284 284 283 281 280 280 280 280 280 280 280 280 281 281 282 282 283 284 283
300 299 297 294 293 292 292 291 291 291 290 290 290 289 290 290 290 290 289 289 289 287 286 284 284 283 282 280 280 280 280 280 280 280 280 280 281 280 281 282 283 283 283
297 294 293 292 292 292 291 290 290 290 290 289 289 289 289 289 289 289 288 289 289 287 286 285 283 283 281 280 280 279 280 280 280 280 280 279 279 280 280 281 282 282 283

GFSMA_850_thetae_048.txt.gz
Theta_e
313 314 317 319 319 320 320 320 319 318 319 317 312 309 307 303 301 301 306 299 297 298 311 310 309 306 306 304 304 305 305 305 304 303 304 303 303 302 301 301 298 293 293
313 314 317 320 320 320 320 319 318 319 318 315 310 308 303 301 300 299 305 306 298 299 307 310 309 307 306 305 306 305 304 303 303 303 302 303 302 302 301 300 299 296 296
317 320 320 321 321 321 320 319 319 318 316 310 309 305 302 300 300 300 304 306 306 303 304 304 304 304 304 305 305 304 302 302 302 302 302 302 301 301 300 299 298 298 297
323 323 323 323 323 321 320 319 319 316 312 309 307 304 302 301 299 300 304 303 304 305 303 302 302 305 304 303 302 300 300 300 300 301 301 301 301 301 300 299 298 298 298
322 322 323 322 322 321 320 319 318 314 310 307 305 304 306 302 300 300 300 299 298 301 300 300 297 299 299 298 296 295 298 299 299 299 299 299 299 299 299 299 298 298 298
323 322 322 321 322 321 320 318 315 311 308 306 304 304 305 301 300 301 301 299 299 298 299 298 298 298 296 295 295 295 296 297 297 297 297 297 297 297 297 297 297 297 297
322 321 320 320 321 321 318 317 313 310 307 307 306 306 305 301 300 301 300 300 300 299 298 297 297 297 297 296 295 295 295 296 296 296 296 296 296 296 296 296 296 297 297
321 319 319 320 320 318 318 316 312 309 308 309 307 306 307 305 302 302 301 300 300 299 297 297 298 298 297 296 296 294 294 294 294 294 295 295 295 295 295 296 296 296 296
322 321 320 320 320 319 318 314 311 308 308 308 309 307 306 308 304 303 302 301 300 299 299 298 298 297 296 295 295 295 294 294 294 294 293 294 294 294 294 294 295 295 295
323 322 320 320 320 318 315 313 310 307 308 307 307 306 303 302 303 304 302 301 300 299 299 298 297 296 296 295 294 293 293 293 293 293 292 290 291 292 293 293 293 293 294
324 322 320 319 318 317 315 312 311 307 307 309 308 304 302 303 302 300 300 300 299 298 297 296 295 296 296 295 294 294 292 292 292 292 290 290 289 289 289 291 291 292 293
324 322 319 318 317 315 314 312 309 307 308 310 310 302 302 302 300 300 300 299 298 297 296 296 296 296 295 294 292 291 292 292 291 290 289 287 285 284 286 288 289 290 290
324 321 319 318 316 314 313 311 308 306 308 309 305 302 300 299 299 298 298 298 297 296 296 295 295 294 294 293 293 291 289 287 287 285 284 284 283 283 283 284 287 288 289
324 322 320 318 316 314 313 310 307 306 307 302 300 297 299 299 299 298 297 296 296 296 295 294 294 294 293 292 291 288 287 287 285 284 284 283 283 283 283 283 283 286 287
323 322 321 318 317 314 312 308 305 307 303 297 297 297 299 299 298 297 296 296 296 296 295 294 293 293 292 291 290 288 287 286 284 283 283 283 282 282 282 283 284 285 286
323 322 321 319 317 315 309 305 305 302 301 297 299 299 299 298 297 296 296 296 295 295 294 293 292 292 291 290 289 287 286 285 284 283 283 282 282 282 282 282 283 283 283
323 322 321 319 317 315 307 303 304 301 297 300 300 298 298 297 296 296 296 296 295 294 294 293 292 291 291 289 288 287 286 285 284 283 283 282 282 282 282 282 281 281 282
322 322 321 319 316 312 304 303 301 298 299 300 298 299 298 297 297 296 296 295 294 294 293 292 292 291 290 289 288 287 286 285 284 284 283 282 282 282 282 282 281 281 282
321 320 319 314 312 304 302 303 302 300 299 298 297 298 297 297 297 296 296 295 294 294 293 292 291 290 289 289 288 287 285 284 284 284 283 282 282 282 282 281 281 281 282
318 317 314 310 305 302 302 300 301 300 299 297 297 296 296 297 296 296 295 295 294 293 292 291 290 290 289 289 287 286 285 284 284 284 284 284 283 283 283 283 283 282 282
315 313 309 305 302 301 301 301 300 300 299 298 297 298 296 295 294 295 294 294 294 293 292 291 290 289 289 288 287 286 285 284 284 284 284 284 284 284 284 284 284 284 284
305 303 302 301 301 301 301 300 299 298 297 296 295 295 295 294 293 293 293 293 293 293 292 291 290 289 289 288 287 286 284 284 284 284 284 283 283 284 284 284 284 283 283
303 301 301 301 301 301 300 299 297 294 294 294 294 294 293 293 293 292 293 293 292 292 291 290 289 289 288 287 286 285 283 284 284 284 283 283 283 283 284 284 284 283 283
300 301 301 300 299 298 296 294 293 292 292 293 293 293 293 292 293 293 292 292 291 290 289 289 288 288 287 286 285 284 283 283 283 283 283 283 283 283 284 284 283 283 283
301 299 298 297 296 295 294 292 292 291 293 293 293 292 292 292 292 291 290 291 290 290 289 289 288 287 285 284 284 283 283 283 283 283 283 283 283 283 283 283 284 284 284
297 295 294 294 293 291 290 290 290 290 290 291 291 291 291 291 290 290 289 289 289 289 289 289 286 287 286 284 283 282 282 283 283 283 283 282 282 282 282 282 283 283 283

GFSMA_850_thetae_054.txt.gz
Theta_e
321 317 318 318 319 320 320 321 320 319 319 318 311 310 309 307 307 308 309 309 301 299 313 312 310 306 303 302 302 304 304 304 304 305 304 304 304 304 302 302 301 300 299
322 322 323 323 322 322 321 321 320 319 318 317 313 310 308 308 309 308 308 309 306 299 310 312 311 309 307 304 303 303 303 303 302 302 303 303 303 303 303 302 301 301 300
322 323 324 323 323 323 322 321 320 319 318 315 312 310 311 311 312 308 308 309 308 308 301 302 306 303 302 302 304 304 304 302 301 301 302 302 302 302 301 301 301 301 301
322 321 322 324 324 323 323 321 320 319 317 314 311 309 308 310 310 308 307 307 307 308 307 305 303 301 300 299 301 302 302 300 298 300 301 301 301 301 300 300 300 300 300
322 321 324 324 324 323 322 321 320 318 317 315 312 310 309 308 308 306 306 306 306 305 306 304 301 301 299 299 297 297 297 296 295 298 300 300 300 299 299 299 299 299 298
320 322 324 324 323 323 322 320 319 319 318 315 312 309 309 310 310 307 307 306 305 303 303 302 301 301 300 299 299 299 298 297 296 299 299 299 299 298 298 297 297 297 298
321 321 322 325 323 323 321 321 320 318 318 314 312 309 311 311 311 309 307 305 305 303 303 302 302 300 300 300 300 299 299 297 296 295 297 298 297 297 297 297 297 297 297
322 323 323 323 323 322 322 321 320 319 318 314 313 311 312 312 311 311 308 307 305 304 303 303 301 300 300 300 300 299 298 297 296 296 293 294 295 295 295 296 296 296 296
324 324 322 324 323 321 321 320 320 319 317 313 313 312 312 313 310 310 308 307 305 304 303 303 301 301 301 300 299 298 298 297 296 295 293 291 292 293 294 294 294 294 294
324 324 324 324 324 322 321 320 320 319 316 313 313 312 310 311 310 309 308 307 305 305 304 303 302 301 301 299 298 298 298 297 296 294 292 290 290 292 292 292 292 292 292
324 323 325 324 323 322 321 320 319 319 318 316 313 312 311 309 309 307 307 307 306 305 302 302 302 300 299 298 298 298 298 296 295 293 291 288 287 286 286 287 290 290 290
326 324 324 324 323 323 322 320 319 317 317 313 313 311 310 309 309 307 307 305 305 304 302 301 300 299 298 298 298 297 296 295 294 293 291 289 288 286 285 285 286 289 289
325 324 324 322 323 323 323 321 319 316 315 314 310 311 310 307 306 306 304 302 302 303 302 301 299 299 298 297 297 296 295 295 293 292 290 289 288 286 285 284 284 285 287
327 325 324 323 321 322 321 319 317 315 314 312 311 310 307 307 306 306 302 302 301 301 300 300 299 299 296 296 296 295 295 294 293 292 291 289 288 286 285 284 283 283 283
327 326 325 325 323 322 321 319 317 315 314 312 310 307 306 305 305 304 303 302 301 300 299 299 299 298 297 296 295 294 294 293 292 291 290 289 288 287 285 284 283 282 282
326 326 326 324 324 322 321 318 315 314 312 311 309 307 305 305 304 303 301 301 300 299 299 298 297 297 296 295 295 294 294 293 292 291 290 289 288 286 286 284 283 283 283
327 325 324 324 323 322 319 316 316 314 311 309 305 304 303 303 302 301 301 300 299 299 298 298 297 296 295 295 295 294 293 292 292 291 289 288 288 287 285 284 284 284 283
324 323 321 321 320 319 318 315 313 310 308 305 303 303 303 302 301 300 300 300 299 298 298 297 297 297 295 294 295 293 292 292 291 291 290 289 287 285 285 285 285 285 284
323 322 321 319 318 317 315 312 310 308 306 304 303 303 302 301 300 299 300 299 298 298 297 298 297 296 296 295 294 293 292 292 291 290 289 288 286 286 286 285 285 285 285
321 320 319 318 316 314 310 308 307 306 303 302 303 301 300 299 299 299 299 298 298 298 298 298 297 297 296 295 294 293 292 291 291 290 289 288 287 286 286 286 285 285 285
318 317 316 315 312 309 307 304 302 302 301 301 301 299 299 299 298 298 298 297 297 298 297 296 296 296 296 295 294 293 292 291 290 290 289 288 287 286 286 286 285 285 285
313 312 309 306 305 303 302 301 301 300 300 300 299 298 297 297 297 297 296 296 296 295 294 294 293 293 295 294 294 293 292 291 290 290 288 287 286 286 286 284 285 285 285
307 306 304 302 301 301 300 300 300 299 298 296 295 295 295 295 295 295 295 294 294 294 294 294 294 293 292 292 293 292 291 291 290 288 287 286 286 285 285 285 285 285 285
302 302 302 301 300 299 298 297 295 293 293 293 294 294 294 294 294 294 294 294 294 293 293 293 294 293 292 292 292 291 290 289 289 288 287 286 285 285 285 285 284 284 283
302 301 300 298 298 298 297 295 293 292 291 290 290 290 290 291 291 292 292 292 292 292 292 292 292 291 291 291 291 291 290 289 288 288 287 285 284 285 285 285 284 283 283
300 299 298 297 295 294 294 294 293 292 291 290 288 287 286 285 284 284 285 288 290 290 291 291 291 291 290 290 290 290 290 289 288 287 287 285 284 285 285 284 283 283 283

GFSMA_850_thetae_057.txt.gz
Theta_e
317 316 317 317 318 318 319 320 320 319 319 318 311 312 309 308 309 308 309 309 305 301 304 307 306 303 301 300 300 301 302 303 303 303 304 303 304 303 303 303 302 301 301
319 317 317 318 319 320 321 321 320 320 319 318 316 310 310 308 311 309 309 309 309 306 302 308 309 306 302 300 300 301 302 302 301 300 300 301 302 303 302 302 302 301 301
320 322 323 323 322 322 322 321 321 319 318 318 316 313 310 310 309 311 311 310 308 307 306 303 306 306 304 303 302 301 302 301 300 299 299 302 302 302 301 300 299 299 300
321 323 323 324 323 322 322 322 321 320 318 318 315 313 310 310 310 309 311 310 308 307 307 307 305 304 302 301 299 298 299 300 297 297 300 301 301 300 300 299 299 299 299
318 322 322 322 323 323 323 322 322 320 319 317 314 312 312 310 310 311 310 308 307 306 306 306 305 302 301 300 300 299 298 299 298 297 299 300 300 300 299 299 298 298 298
317 319 320 322 324 323 323 323 321 320 319 317 315 313 311 309 308 310 311 309 307 305 304 304 303 302 302 300 300 299 300 299 298 296 295 295 300 299 298 298 298 298 298
314 315 318 322 324 323 322 322 321 320 319 318 315 313 309 308 310 311 311 310 309 309 306 303 303 303 302 300 300 300 300 299 298 297 296 295 293 295 297 297 297 297 297
321 320 317 321 322 322 323 322 320 320 320 319 316 313 311 311 311 311 311 310 308 306 305 304 304 303 301 300 300 301 300 299 298 297 297 295 293 291 295 295 295 295 295
322 322 321 321 321 322 323 322 320 320 320 319 318 316 312 312 312 312 311 310 307 306 305 304 303 303 301 301 301 300 299 299 298 298 297 295 292 290 293 293 294 294 294
322 321 322 322 322 322 323 322 321 320 320 319 317 315 313 313 312 310 309 309 307 306 306 305 303 303 302 301 301 300 298 298 298 298 296 293 292 289 288 290 291 292 292
324 323 324 323 322 323 323 323 321 321 320 318 315 314 312 312 310 310 309 309 307 306 305 305 303 302 301 301 300 299 298 298 298 297 295 293 292 290 288 287 287 288 291
324 324 324 324 322 324 324 323 322 321 320 318 316 314 313 312 310 311 309 308 307 305 305 305 303 301 301 300 298 298 298 298 297 295 294 294 292 291 289 288 287 287 289
323 325 325 325 324 323 323 323 322 321 319 317 317 316 314 311 311 311 307 308 306 307 304 303 302 301 300 299 298 297 297 296 296 295 294 293 292 291 289 288 287 285 284
323 324 324 325 324 322 321 323 322 320 319 316 316 314 314 311 311 309 307 306 306 305 305 304 303 300 299 298 297 296 296 296 295 294 294 293 292 291 289 288 287 285 284
325 325 325 325 324 323 323 322 321 320 318 316 314 314 312 311 310 306 305 306 305 302 302 302 300 300 299 298 297 296 295 295 294 293 293 293 292 291 289 288 287 285 284
324 324 325 325 324 324 324 322 321 319 317 315 315 313 311 310 307 305 305 305 303 302 301 300 300 299 298 297 296 295 295 294 294 293 293 292 292 291 289 287 285 285 285
327 326 325 324 324 324 322 321 321 319 316 314 313 310 309 305 304 305 303 302 301 301 300 300 299 298 298 297 297 296 295 294 294 293 293 292 291 290 289 287 286 285 285
328 326 325 322 321 320 321 320 319 317 314 312 310 308 305 304 303 302 301 301 301 300 300 299 299 298 298 297 297 296 295 294 294 293 292 292 291 290 288 287 286 286 285
325 323 322 322 320 319 319 318 314 311 309 308 306 304 303 303 301 300 300 299 300 300 300 299 298 298 297 297 297 297 296 295 294 293 292 291 290 289 288 287 287 286 286
323 322 321 320 320 318 315 312 310 308 307 305 303 302 302 301 300 299 299 299 299 298 297 297 297 297 297 296 296 295 295 295 294 293 291 291 290 289 288 288 286 286 286
322 321 320 318 316 314 312 309 308 306 303 302 302 300 300 299 297 297 297 297 296 296 296 295 295 295 295 294 293 293 294 294 293 292 291 290 290 289 288 287 286 286 285
318 317 316 314 313 310 307 305 303 301 301 300 300 298 297 296 296 295 295 295 295 295 295 294 294 294 294 294 294 294 293 293 293 292 291 291 290 289 288 287 286 285 285
314 313 311 308 305 303 301 300 300 300 299 298 296 294 294 294 294 294 294 294 294 295 294 293 293 292 293 293 293 293 292 292 292 291 290 289 289 288 288 286 285 285 285
308 307 305 302 301 300 300 299 297 295 293 293 293 293 293 293 293 293 292 292 292 292 292 292 292 292 291 292 292 291 291 291 291 290 290 289 288 288 287 285 284 285 285
303 301 301 299 299 298 297 296 294 293 292 291 291 290 289 288 287 285 284 284 284 284 283 283 282 282 285 290 292 291 291 291 291 290 290 289 288 288 287 285 285 285 285
301 300 298 298 297 297 295 294 293 293 292 290 288 286 285 285 284 283 282 282 282 283 283 283 284 283 282 282 283 289 290 290 290 290 290 288 288 287 285 284 284 284 283

GFSMA_850_thetae_060.txt.gz
Theta_e
315 315 317 318 318 319 319 319 319 319 318 317 310 311 311 310 310 310 310 309 307 303 305 310 306 304 302 301 300 300 300 301 300 299 299 299 300 303 303 301 301 302 302
315 315 316 317 318 318 319 320 320 320 319 319 313 311 311 311 311 311 310 311 310 308 306 305 306 304 302 301 300 300 299 299 299 299 298 298 301 301 299 299 299 300 300
315 316 316 317 317 319 320 321 321 320 319 318 318 312 311 311 311 311 311 310 310 308 308 307 306 304 303 303 302 301 300 299 299 298 297 299 300 301 299 297 295 295 297
317 317 318 321 321 321 322 322 321 321 320 319 319 316 311 310 310 311 311 310 310 310 308 308 307 306 305 303 301 300 298 298 297 298 298 299 299 300 300 299 298 297 298
317 318 319 321 322 323 322 322 322 321 321 320 319 316 314 313 310 310 310 311 311 310 309 308 307 306 305 303 301 300 299 299 299 299 298 298 299 300 300 299 299 298 299
321 322 321 322 323 323 323 323 322 322 321 320 319 317 314 312 310 308 309 310 311 310 309 308 307 305 304 302 302 301 300 300 300 299 298 297 296 296 296 296 298 298 298
319 320 319 319 320 322 322 323 323 322 321 320 318 316 312 312 310 308 310 311 310 309 307 308 308 305 304 303 303 301 301 300 300 299 298 297 296 295 293 291 293 296 296
314 313 313 314 319 322 321 323 323 322 321 320 318 316 314 313 310 311 310 311 310 309 307 307 307 305 304 303 302 301 301 301 300 299 298 298 297 295 292 290 293 295 295
312 314 319 319 316 321 321 322 323 322 321 320 319 318 313 312 314 313 312 311 310 309 308 308 307 305 304 303 302 301 301 301 300 298 298 298 297 294 292 290 289 289 292
315 318 319 322 322 320 320 321 323 323 322 320 320 319 317 314 313 311 312 311 309 309 309 307 306 305 304 303 302 302 301 301 300 298 298 298 296 293 292 291 290 289 288
316 320 321 322 321 321 320 321 322 322 322 321 321 320 318 316 312 312 311 310 310 312 308 306 305 305 305 303 302 301 301 301 299 298 297 296 295 293 293 292 290 289 291
315 319 322 323 322 323 323 322 321 322 322 321 321 320 319 317 314 311 311 311 312 310 307 306 307 305 305 303 302 302 301 299 298 297 296 296 295 293 293 292 290 289 289
319 320 322 323 324 324 324 324 322 322 323 322 321 320 318 316 314 312 312 311 311 309 308 308 306 305 303 301 301 300 299 298 297 297 296 296 294 293 293 292 291 289 288
320 321 321 322 323 324 324 323 322 323 323 323 321 319 318 317 315 314 312 311 309 307 306 307 307 306 303 303 303 299 297 297 297 296 296 294 293 293 293 292 291 289 287
321 321 322 322 323 323 324 323 322 322 322 322 320 319 317 316 314 312 311 310 308 306 305 304 304 303 301 300 300 299 298 296 295 295 294 294 294 293 293 292 291 290 288
324 324 325 325 324 324 323 323 322 323 322 321 319 318 315 314 312 311 309 306 305 305 303 302 302 301 300 300 299 298 297 295 295 295 294 294 294 293 293 291 291 290 289
325 324 323 322 323 324 323 322 323 322 321 320 318 316 314 313 310 308 305 305 304 304 302 301 301 300 300 299 299 298 298 297 296 296 295 294 294 293 292 291 290 289 289
325 325 323 324 325 323 322 322 321 321 320 318 315 313 311 309 307 304 304 303 301 301 301 301 300 299 298 299 299 298 298 297 297 296 296 295 294 292 292 291 290 289 289
321 324 324 325 322 320 319 318 319 319 317 314 311 309 307 305 304 303 301 300 299 299 300 300 300 299 297 297 296 296 296 296 295 295 295 295 293 293 292 291 289 289 287
322 326 325 323 321 320 319 319 318 315 313 310 308 306 304 303 301 300 299 298 297 297 297 296 296 296 296 295 295 295 294 294 293 293 293 293 294 293 291 290 289 287 288
326 325 322 321 320 320 319 317 315 312 309 307 304 303 302 300 299 298 297 296 296 296 296 296 296 296 295 294 294 294 293 293 293 293 293 292 293 291 291 291 289 288 287
324 322 321 320 319 317 315 314 311 308 305 303 302 300 299 298 297 296 295 295 295 295 295 294 294 294 294 293 292 292 292 292 292 292 292 292 292 292 291 290 288 288 286
321 319 317 316 315 313 311 308 305 302 301 300 299 298 297 295 293 293 293 293 294 294 293 292 292 291 289 287 286 288 290 291 291 291 291 291 291 291 289 289 289 287 286
316 314 313 311 309 306 303 301 300 299 299 298 297 293 292 292 292 292 291 290 288 286 285 284 283 283 283 283 283 282 281 283 288 290 290 291 291 290 290 288 288 287 285
312 310 307 305 303 302 300 300 299 296 293 292 292 291 291 290 289 286 284 284 284 284 283 283 283 283 283 284 285 285 285 284 285 286 289 289 290 290 289 289 288 287 284
306 304 302 301 300 299 298 296 295 293 292 292 291 290 286 285 284 284 284 283 283 283 282 282 281 281 281 282 284 285 285 283 284 286 286 289 290 290 288 288 287 285 284

GFSMA_850_thetae_063.txt.gz
Theta_e
316 317 318 318 318 318 318 318 318 318 318 316 310 311 310 310 311 311 311 311 309 307 307 308 308 306 303 301 301 300 300 299 299 299 299 299 298 299 298 296 296 297 299
317 317 318 318 318 318 318 319 319 319 319 318 313 311 310 310 311 311 312 311 310 308 307 308 308 307 305 303 302 302 301 300 299 299 298 298 298 298 297 296 296 298 299
316 317 317 317 318 318 319 319 319 320 319 318 317 312 310 310 311 311 311 311 311 309 308 307 308 308 306 305 304 303 301 299 299 298 299 299 298 298 297 296 296 298 299
315 316 316 316 316 318 319 320 321 320 320 319 318 317 316 311 310 311 311 311 311 310 308 307 308 308 307 305 304 302 302 301 299 299 300 299 298 298 299 298 297 298 299
315 316 316 316 317 319 321 321 321 321 321 320 319 318 315 314 314 312 310 310 310 310 309 308 308 308 307 305 304 302 302 301 300 300 300 299 297 297 297 296 294 293 298
316 316 316 318 321 322 322 322 322 322 321 321 320 319 316 316 314 314 310 308 310 310 310 309 309 308 306 305 304 303 303 301 300 300 300 299 298 297 296 295 293 291 291
319 319 318 320 321 321 321 322 322 322 322 321 320 319 317 316 315 315 313 310 310 311 311 310 309 309 306 305 305 304 303 301 303 301 300 299 298 298 297 295 292 291 290
318 321 320 319 320 319 320 322 323 323 322 321 321 319 318 315 314 314 312 311 310 310 311 310 309 308 307 305 304 304 303 301 303 302 300 299 298 298 297 294 292 291 290
320 320 319 320 318 315 316 318 320 322 322 322 322 320 316 315 316 315 314 312 310 309 310 309 309 308 306 305 304 304 303 302 301 301 300 299 298 297 296 293 292 291 290
316 315 314 313 315 320 318 315 318 320 322 322 322 320 319 317 315 315 315 314 313 309 309 309 311 308 306 306 305 304 303 302 301 301 300 298 298 297 295 294 292 292 290
316 315 312 312 315 316 321 322 321 321 321 321 321 321 320 319 318 317 314 314 315 312 310 310 311 310 306 305 305 304 303 302 301 301 300 298 297 296 295 294 293 292 291
315 315 315 313 315 318 321 322 322 321 320 321 321 322 321 320 319 318 318 314 313 311 311 312 312 308 306 305 305 304 303 303 302 301 300 298 297 296 296 294 294 293 292
314 314 314 312 318 320 322 323 322 323 323 322 322 322 322 321 320 319 318 314 313 312 311 312 311 308 307 307 306 304 303 301 301 300 298 297 296 296 296 294 294 293 292
314 313 313 313 314 318 321 323 323 322 318 322 322 322 322 321 319 318 316 315 313 312 311 311 311 309 306 305 306 303 301 302 301 298 297 297 296 296 295 294 294 293 293
314 317 318 319 320 321 321 322 323 320 318 321 323 322 321 320 318 318 316 313 312 310 308 308 307 307 306 304 301 300 299 300 299 298 297 297 296 295 294 294 293 293 293
320 323 323 322 321 321 321 322 319 321 322 323 322 322 321 319 318 316 314 312 311 309 305 305 305 305 303 301 300 300 299 299 298 298 296 295 295 295 294 294 293 293 292
322 323 324 324 324 323 320 323 323 323 325 322 321 321 320 318 315 313 312 310 308 305 304 304 303 302 301 300 300 299 299 299 298 297 297 297 296 296 296 295 293 293 292
324 324 320 323 324 324 323 323 323 322 322 322 321 319 318 315 313 310 308 305 304 303 301 300 300 301 300 299 298 298 297 297 296 296 296 297 296 296 296 295 295 293 291
324 323 320 320 324 324 324 323 321 322 321 321 319 316 314 312 309 307 305 303 303 301 300 299 298 298 297 297 296 296 295 295 295 294 294 293 293 292 292 293 293 293 292
324 323 320 321 322 323 323 321 319 319 319 317 315 312 310 308 306 304 302 301 300 299 296 296 296 296 295 295 295 295 294 294 294 293 293 293 293 292 292 292 292 292 292
325 323 323 321 321 323 322 320 319 319 318 315 313 310 307 304 303 302 301 300 298 296 295 295 294 294 294 293 293 293 293 292 292 291 291 290 290 290 291 291 292 291 291
326 324 324 322 323 321 320 319 319 316 315 311 309 306 304 302 301 300 298 297 295 294 294 293 293 293 293 293 291 288 285 283 282 284 287 287 288 289 290 291 291 291 290
325 323 324 324 321 320 319 317 315 312 309 307 305 303 301 300 299 298 296 294 293 293 292 292 291 289 285 283 283 283 283 284 284 284 284 282 285 285 289 289 291 290 289
323 323 322 320 319 316 314 312 310 308 305 303 301 299 298 298 296 293 292 291 291 289 286 284 284 283 283 282 282 282 283 284 284 284 284 284 285 285 285 289 290 290 288
322 320 318 316 314 311 308 307 304 303 301 299 299 298 295 293 291 290 289 287 285 285 284 283 283 282 282 281 280 280 280 283 283 284 285 284 284 285 285 285 289 289 288
318 315 313 310 308 305 302 301 300 299 298 295 293 292 291 290 289 285 284 284 284 284 283 283 282 282 281 280 280 280 281 280 281 283 284 284 285 284 286 287 288 288 287

GFSMA_850_thetae_066.txt.gz
Theta_e
315 314 313 310 310 310 310 311 311 313 311 310 310 310 309 310 310 311 311 311 309 308 309 309 309 308 305 303 301 302 301 300 300 299 299 299 299 298 298 296 296 296 296
316 317 316 315 314 315 317 316 317 318 318 315 310 310 309 310 310 310 311 311 310 309 309 309 309 309 307 305 304 303 302 302 300 299 299 299 299 298 298 296 296 296 295
317 318 318 318 317 318 318 318 319 318 318 318 313 310 310 309 310 310 310 311 310 310 309 309 309 309 308 307 306 304 302 302 301 300 300 300 299 298 297 296 296 295 294
316 318 318 318 318 318 319 319 319 319 319 318 317 316 313 312 310 310 310 310 310 310 310 309 309 309 308 307 306 304 303 303 302 300 300 300 300 298 298 297 296 295 293
317 317 317 317 317 317 318 319 320 320 320 320 319 318 318 314 312 313 311 310 310 310 310 310 309 309 308 307 305 303 303 303 301 300 301 301 300 299 298 297 296 294 293
316 316 316 316 316 315 317 320 321 321 321 321 320 320 319 317 315 314 314 311 310 311 310 310 309 309 308 307 305 305 304 303 302 302 301 301 300 299 298 297 297 294 293
315 316 316 316 316 315 319 320 321 322 322 322 321 320 320 319 318 317 315 315 313 310 310 310 310 309 308 307 306 306 305 303 303 303 302 301 300 299 298 297 296 294 293
315 316 316 316 316 317 320 322 322 322 322 322 321 320 320 320 319 318 318 317 315 312 310 310 309 308 308 307 306 305 305 304 303 304 303 302 300 299 298 297 296 294 292
317 317 317 318 317 320 321 320 320 319 321 322 322 320 319 319 319 318 318 317 315 313 311 308 308 308 308 308 307 306 304 304 303 302 302 302 300 300 298 297 296 294 294
316 316 317 320 320 321 320 315 316 317 320 321 321 322 321 321 318 317 317 317 316 314 313 312 309 308 311 311 308 305 305 304 304 303 302 301 300 300 299 297 296 295 295
315 315 318 319 317 315 313 314 318 321 320 319 320 321 322 321 320 318 317 318 318 316 314 314 315 309 311 312 310 305 305 304 306 303 302 302 301 300 298 297 296 296 294
316 315 315 316 313 312 312 314 317 320 321 321 321 321 321 321 321 321 319 319 317 317 315 314 312 311 311 312 308 305 303 303 304 303 302 301 300 300 300 298 296 296 295
315 315 315 316 315 315 314 313 318 320 321 322 322 322 322 322 322 321 319 319 317 316 314 313 312 312 312 309 305 305 305 305 304 303 301 300 300 300 298 297 297 297 297
315 316 316 315 315 315 314 313 313 316 319 319 321 317 318 321 321 321 320 319 317 316 313 313 313 312 310 307 306 305 306 305 303 301 302 300 299 298 298 297 297 296 295
316 316 315 315 314 314 314 318 319 319 319 321 318 317 319 321 321 320 319 318 317 315 312 311 311 310 309 307 307 304 302 300 299 299 299 299 298 297 297 297 297 296 295
316 315 315 314 314 314 318 321 321 320 321 318 318 318 319 321 321 319 318 317 315 312 311 308 308 307 307 306 305 302 300 300 300 299 299 298 298 297 296 296 296 295 295
314 314 314 314 315 322 323 322 322 322 321 320 322 321 322 321 320 319 317 315 313 312 310 307 306 305 304 303 301 300 299 299 298 297 297 297 297 297 297 297 296 295 295
314 315 316 321 321 322 322 324 324 322 320 322 322 322 321 320 319 317 315 313 311 310 307 305 303 302 302 299 299 298 297 297 296 296 295 295 295 294 294 294 293 293 292
319 318 318 320 322 322 320 320 321 324 323 321 320 320 321 319 317 314 312 310 309 306 304 302 301 300 298 296 296 295 294 294 293 293 292 292 292 292 291 291 292 292 292
320 321 321 321 322 322 321 319 321 323 321 319 320 319 319 315 313 311 309 307 305 303 302 301 299 295 294 293 292 291 290 289 288 287 287 286 286 286 285 285 287 289 290
320 321 321 320 322 324 319 320 322 321 319 319 319 317 314 312 311 309 306 304 303 301 300 296 294 293 292 291 291 289 287 286 285 286 286 285 285 284 284 284 284 285 289
321 321 321 323 323 324 323 320 322 321 319 318 316 314 313 311 307 305 302 301 300 298 296 294 292 292 290 288 285 285 284 284 284 285 284 284 284 283 284 284 284 284 289
324 323 323 325 324 323 322 321 321 318 317 315 312 311 310 306 303 302 300 299 297 294 293 292 290 287 285 284 284 284 284 283 283 283 282 283 282 283 283 284 284 284 286
323 323 323 321 321 322 321 319 319 315 313 311 309 307 304 302 301 299 298 295 293 292 289 286 284 284 284 283 283 282 282 281 281 281 281 281 281 281 283 284 284 284 285
321 319 320 321 320 318 318 317 314 312 310 307 305 302 300 299 297 296 293 291 289 286 284 284 284 283 283 282 281 281 281 280 281 281 281 281 282 282 282 284 284 284 285
320 320 319 317 316 314 312 309 309 307 305 303 300 298 298 295 292 291 289 286 284 284 284 284 283 282 282 281 281 280 280 279 279 280 280 281 281 281 282 284 284 285 286

GFSMA_850_thetae_069.txt.gz
Theta_e
311 316 316 316 315 315 314 313 311 311 311 310 310 309 310 311 311 311 311 309 309 309 310 311 311 310 307 305 304 303 301 301 300 300 299 300 300 300 299 298 297 297 296
309 309 312 314 313 313 312 311 311 311 310 310 310 310 309 310 310 311 311 310 310 310 309 310 310 310 308 306 305 304 302 302 301 300 300 300 300 300 300 299 297 296 295
312 310 309 310 311 311 311 313 317 318 317 312 310 310 309 309 310 310 310 310 310 309 309 309 310 310 309 307 306 305 303 303 302 301 301 301 301 300 300 299 298 297 295
314 314 311 310 312 317 317 318 318 318 318 317 316 315 311 310 309 310 310 310 310 310 310 309 309 309 309 308 307 305 304 304 304 303 301 301 301 301 301 299 298 297 296
315 315 314 315 317 318 318 319 319 319 319 319 318 318 318 315 311 310 311 310 310 310 310 310 309 309 309 308 307 306 305 305 305 304 303 302 301 301 301 300 299 298 296
316 317 317 317 318 318 319 319 320 320 320 320 320 320 319 318 316 314 313 312 310 309 310 310 310 309 309 308 307 305 305 306 305 304 304 303 301 301 301 300 300 298 297
315 317 318 318 318 317 317 317 319 321 321 321 320 320 320 319 319 317 316 315 315 313 310 309 310 310 309 308 307 306 305 305 306 305 304 304 303 302 301 301 300 298 297
315 316 317 317 316 316 316 315 318 319 321 321 321 321 319 320 320 320 319 318 317 315 314 311 309 309 309 309 308 307 306 305 305 305 305 304 304 303 301 301 299 298 297
316 316 316 316 316 316 316 317 318 318 320 321 322 321 320 320 320 319 319 318 318 316 315 316 311 309 309 308 310 308 306 304 304 304 305 306 304 303 301 301 299 298 297
316 316 316 316 316 317 317 317 318 317 317 318 320 320 321 321 320 319 319 318 317 318 317 316 315 310 311 307 308 308 307 304 303 303 303 303 305 305 303 301 300 298 297
316 316 316 316 318 317 318 318 319 315 318 320 320 319 320 321 321 320 319 318 319 319 318 317 317 314 313 313 307 310 312 311 306 303 302 304 303 304 305 303 302 300 299
316 317 316 316 317 316 319 317 314 314 315 318 319 321 321 321 321 320 320 320 320 318 318 316 316 315 314 311 310 311 312 310 305 304 302 302 305 301 304 304 304 302 301
316 316 316 316 316 318 318 313 313 313 313 314 318 320 321 320 320 320 320 319 319 318 318 317 313 313 313 312 311 311 309 306 306 305 304 305 303 302 302 302 301 302 301
316 315 315 315 315 315 316 315 316 315 314 314 313 316 319 317 317 320 320 320 317 317 317 316 314 312 313 312 310 308 306 306 306 305 304 303 301 301 302 300 300 299 299
315 315 315 315 315 315 315 315 315 315 314 316 319 319 320 318 317 318 318 320 318 315 315 315 313 312 312 310 309 307 306 305 302 301 300 300 299 299 299 299 298 298 298
317 316 315 315 315 316 316 316 315 314 314 317 320 320 317 317 317 319 320 320 317 317 314 313 311 310 310 308 307 306 304 302 301 300 299 299 299 299 299 298 298 297 296
318 317 316 316 315 316 315 315 315 314 318 321 321 321 321 319 321 321 321 320 319 316 315 312 309 309 308 306 305 304 302 300 300 298 298 297 296 296 295 295 296 296 295
314 314 315 316 315 314 314 314 314 317 320 322 323 320 319 321 321 322 320 319 317 315 312 311 309 307 305 305 304 302 296 296 295 294 293 293 292 292 292 292 292 292 292
314 314 313 314 313 314 313 318 320 321 320 320 320 323 323 320 321 319 320 318 314 312 311 309 307 304 304 303 298 294 293 292 291 290 289 288 288 287 287 287 286 286 286
314 314 314 314 317 317 317 318 321 322 322 321 321 322 320 320 320 318 317 314 312 311 308 305 304 303 301 294 292 291 290 289 288 288 288 288 288 287 287 287 287 286 285
315 316 319 319 319 319 321 321 321 322 320 320 322 320 319 318 318 316 314 312 311 308 304 303 301 299 294 292 291 289 286 286 287 288 287 288 287 287 287 286 286 285 284
318 318 319 321 320 320 321 322 323 323 319 321 321 319 319 318 315 313 311 310 306 303 302 300 297 294 292 290 287 285 285 284 285 286 285 286 286 286 286 285 284 283 283
321 321 321 322 322 322 321 322 322 321 320 320 321 320 317 313 310 310 307 304 302 301 299 296 293 291 289 285 285 285 284 283 284 284 284 284 285 285 284 283 283 283 283
323 323 323 322 323 323 323 323 322 320 319 319 318 316 312 309 306 305 303 301 299 297 294 292 289 286 285 284 284 284 283 283 283 284 283 283 283 283 283 283 283 282 284
323 323 323 322 321 321 321 321 321 318 316 314 310 307 305 304 303 301 299 298 295 292 290 287 285 284 284 283 282 282 282 282 281 282 283 282 283 282 282 283 284 284 285
324 323 321 321 320 319 318 318 317 316 313 309 306 305 301 300 299 298 295 292 289 286 284 284 283 283 282 281 282 281 282 281 280 280 281 280 280 281 282 282 284 284 285

GFSMA_850_thetae_075.txt.gz
Theta_e
323 324 324 322 319 320 318 316 320 320 319 319 319 320 320 320 320 319 314 310 311 312 314 312 309 308 307 307 307 306 306 306 306 305 304 303 303 303 303 303 302 300 299
322 323 323 323 322 322 321 320 320 319 318 318 319 320 320 321 320 319 317 310 312 313 314 313 311 310 308 308 307 306 306 307 306 305 304 304 303 303 303 303 303 302 302
320 323 323 323 323 323 322 321 319 318 317 318 318 319 319 320 320 320 318 312 310 311 314 313 312 311 310 309 308 308 307 307 307 306 306 305 304 303 303 304 303 303 302
320 322 324 324 324 324 323 320 318 317 317 317 317 317 318 318 319 320 320 319 315 313 310 312 313 311 311 310 309 308 308 308 308 308 307 306 305 305 304 304 303 304 304
318 318 320 321 322 322 320 319 317 317 316 316 316 316 316 317 318 318 319 319 319 318 317 312 311 310 310 310 310 310 309 308 308 308 307 307 306 305 304 304 304 304 304
317 316 317 318 319 319 318 318 318 318 317 316 315 315 314 315 316 316 317 318 319 318 319 319 318 314 310 310 310 309 310 310 310 308 307 307 306 306 305 304 304 303 303
316 316 316 314 315 317 317 318 319 319 319 317 316 316 317 317 316 315 314 315 317 318 317 318 318 318 316 316 315 310 310 313 313 312 310 307 307 306 306 305 304 303 303
313 316 317 319 317 319 320 320 321 321 320 318 318 319 320 318 319 319 317 316 315 315 315 317 318 318 318 318 317 316 311 310 312 312 311 310 308 307 306 306 306 306 305
313 314 316 314 313 317 318 319 319 320 321 320 320 321 320 322 322 320 319 318 317 316 316 315 315 316 313 316 316 316 314 309 308 308 309 310 309 308 307 307 307 306 306
313 315 315 313 311 313 318 319 320 318 319 318 319 320 320 322 320 321 321 320 319 318 318 318 316 316 315 314 312 313 312 311 309 308 307 306 306 308 308 308 307 308 307
313 314 317 315 312 315 318 319 319 317 317 318 318 318 322 319 319 318 320 321 320 319 320 319 319 319 317 317 317 315 313 312 309 309 308 308 306 304 303 306 306 306 306
315 318 318 315 313 317 318 317 317 317 317 318 318 317 317 319 322 321 321 321 321 321 321 321 320 320 319 319 317 316 314 314 311 311 308 307 311 312 308 304 303 303 305
315 315 318 318 315 318 318 317 317 317 317 317 317 318 317 320 320 320 321 321 322 322 321 320 320 318 317 316 317 316 316 314 313 312 309 309 311 311 308 305 305 304 303
320 318 318 318 315 316 317 317 317 317 317 318 318 319 318 317 318 320 320 321 321 320 318 317 318 318 318 319 317 316 314 313 313 311 311 311 311 308 306 307 306 304 304
318 319 316 316 315 316 317 316 317 316 316 317 317 318 318 315 318 321 320 320 320 319 318 317 319 319 319 316 316 314 313 312 312 312 311 309 308 307 307 305 302 302 302
320 319 319 319 316 316 316 316 317 316 316 316 318 320 319 318 320 320 320 319 320 320 318 317 318 318 318 315 315 315 313 312 311 310 309 308 307 306 304 300 296 297 297
321 320 320 320 316 316 316 317 317 317 317 317 319 320 319 319 320 321 321 319 321 320 318 317 317 318 317 315 316 315 312 310 309 308 308 306 305 304 297 294 293 292 291
322 321 321 320 320 319 317 318 317 318 318 319 320 320 319 319 319 320 320 320 321 319 317 315 315 316 316 315 314 311 310 307 307 304 303 305 302 294 293 291 290 290 289
323 322 321 321 320 319 320 319 319 319 320 320 319 320 320 319 319 319 320 320 318 317 316 315 314 315 314 313 310 310 309 307 305 303 300 298 293 291 290 289 289 289 289
323 322 322 321 321 320 320 320 320 320 320 320 320 320 319 318 317 318 318 317 314 315 316 316 313 313 312 309 309 309 307 305 301 298 295 292 290 289 289 289 289 290 290
322 322 322 322 322 321 321 320 320 320 320 319 319 319 319 318 314 315 317 316 318 316 316 315 311 311 309 307 308 307 304 299 296 295 292 291 291 290 290 289 290 291 291
321 322 321 322 322 321 321 321 320 320 320 319 317 316 315 315 317 319 320 320 320 319 317 316 311 309 309 307 306 303 298 296 292 292 291 291 290 290 289 289 290 290 289
321 320 320 320 320 320 320 319 318 318 317 315 315 316 319 321 322 322 320 320 319 317 314 314 310 307 304 302 301 297 295 292 290 291 290 290 289 288 289 289 289 289 289
322 322 322 321 321 321 321 321 320 319 317 317 318 320 322 322 321 320 319 318 314 307 305 305 305 303 302 298 296 293 290 289 289 288 287 288 288 288 288 288 288 288 286
323 323 323 322 321 321 321 320 320 321 321 320 320 322 321 320 317 316 315 311 305 302 302 301 300 298 297 294 290 287 286 286 286 288 287 287 287 287 287 287 286 287 286
324 323 322 321 320 320 321 322 321 321 320 320 319 317 315 312 309 308 305 303 302 300 298 299 297 293 288 285 284 284 284 284 285 286 287 286 286 285 285 285 285 285 284

GFSMA_850_thetae_081.txt.gz
Theta_e
324 322 322 311 307 307 306 307 307 313 320 320 321 321 321 321 320 317 307 307 307 307 307 306 307 307 308 307 307 307 306 306 306 305 305 305 305 305 305 305 304 303 303
324 321 324 310 307 307 307 308 307 316 320 320 320 320 320 320 320 314 308 308 308 310 310 309 308 308 308 308 307 307 307 307 306 306 306 306 306 305 305 305 305 305 305
325 320 325 312 308 308 308 311 313 314 317 319 319 321 320 320 320 315 308 309 311 312 311 311 310 310 309 310 310 310 310 310 309 309 308 308 307 307 306 306 306 306 306
323 323 325 317 310 309 318 318 319 320 319 318 320 321 320 320 319 318 309 310 312 312 312 312 311 311 311 311 311 310 310 311 310 310 310 309 308 308 307 307 307 306 305
323 321 323 316 313 314 320 321 320 319 318 318 320 320 320 320 320 318 318 311 311 311 311 311 311 311 311 311 311 311 310 311 311 311 311 310 309 307 307 307 306 306 306
321 318 321 317 316 314 320 321 320 318 318 319 319 320 319 320 320 320 319 317 317 316 314 311 312 311 312 312 312 312 312 312 311 311 310 310 310 309 308 307 307 306 307
320 321 320 319 322 320 320 321 319 318 318 318 318 318 318 318 319 320 320 320 320 319 319 318 318 318 318 317 316 313 312 313 314 313 312 312 311 310 308 307 307 307 307
320 321 321 322 321 322 321 320 318 318 318 317 317 317 316 317 317 318 318 319 319 319 319 319 318 317 318 318 317 315 315 316 315 315 315 314 314 313 312 311 310 308 308
318 317 318 318 323 322 322 320 318 317 317 316 316 316 315 315 315 316 315 317 317 318 318 318 318 318 317 317 317 317 317 317 317 316 316 315 314 314 312 311 310 310 309
316 316 320 319 321 322 320 320 319 317 315 316 316 316 316 318 320 319 317 317 316 316 316 316 316 316 316 317 317 318 317 317 316 316 315 315 315 313 312 311 310 310 310
316 317 320 320 320 321 321 321 318 314 314 317 317 316 317 320 320 319 320 320 319 319 319 318 318 317 316 317 317 317 317 317 316 316 315 315 314 313 311 311 310 310 310
317 318 319 319 317 318 318 316 315 315 315 315 319 318 317 320 320 319 318 317 317 317 317 317 320 319 319 318 318 317 316 316 316 315 314 315 314 313 312 309 309 308 308
314 317 318 318 319 319 317 317 317 317 315 317 320 320 319 319 319 318 317 317 317 317 317 318 319 319 320 320 320 320 319 317 318 317 318 317 315 312 313 311 309 308 307
314 314 317 318 318 319 317 315 316 316 317 319 319 320 318 317 317 317 318 318 317 317 317 317 316 316 316 316 317 318 319 319 319 318 317 316 315 314 313 312 310 309 307
314 314 316 316 317 316 315 314 313 313 318 318 317 319 317 317 317 317 317 317 318 318 318 317 317 317 317 317 316 318 318 318 318 318 318 317 316 315 313 312 310 309 309
322 316 316 315 315 317 318 316 314 315 314 318 319 318 317 317 317 317 317 317 318 318 319 318 317 316 317 318 318 317 318 318 317 317 318 317 316 315 312 311 310 310 308
322 322 321 316 313 311 312 314 314 314 315 313 314 316 317 317 317 317 317 317 317 318 319 319 318 318 318 318 319 317 317 317 317 316 316 316 316 312 312 311 310 308 307
322 322 322 322 319 314 311 312 313 314 315 315 313 315 317 318 317 317 317 317 317 316 316 317 319 318 318 318 319 318 317 318 316 315 315 315 316 312 311 309 308 307 306
322 322 321 322 322 322 320 315 313 314 314 315 316 315 315 316 318 317 317 317 317 317 317 318 320 319 318 318 319 318 318 317 316 315 315 314 314 311 308 307 306 304 303
323 323 322 322 322 322 321 321 319 317 317 318 316 316 316 315 315 315 316 317 317 318 319 319 320 319 318 319 318 318 317 316 315 313 312 312 309 307 305 303 301 296 293
323 323 323 323 323 322 322 322 321 320 320 320 319 318 317 316 316 316 317 317 318 319 319 317 318 319 318 318 315 315 316 315 314 310 308 307 305 303 300 301 302 297 291
325 325 324 324 323 323 322 322 322 322 321 320 319 319 318 319 318 318 318 318 319 320 320 319 318 318 318 319 318 314 312 311 308 307 304 304 303 303 302 296 294 292 290
325 325 325 325 325 324 323 323 323 322 322 321 321 321 320 319 319 319 320 320 321 321 321 320 319 318 318 318 317 313 312 309 307 305 304 301 300 299 295 293 292 291 290
326 325 325 325 325 325 325 324 324 323 323 322 321 321 320 320 320 321 321 321 321 321 320 320 319 317 316 315 313 310 308 304 302 300 299 298 297 295 292 291 290 289 288
326 326 326 325 324 324 324 325 324 323 322 322 322 321 321 320 320 321 320 321 320 318 318 317 313 310 308 307 305 304 301 299 297 295 295 295 293 289 288 287 288 287 288
328 327 327 326 325 324 324 324 324 324 324 324 323 323 323 322 321 321 321 320 318 316 312 306 303 302 300 298 298 297 297 296 295 291 288 287 286 286 288 288 288 287 287

GFSMA_850_thetae_084.txt.gz
Theta_e
326 330 328 319 313 312 310 310 320 321 321 321 321 321 321 321 320 319 310 308 308 307 307 307 307 307 307 306 306 305 305 305 304 304 304 304 304 305 305 304 304 303 303
326 328 324 314 311 310 307 309 320 321 321 321 321 321 321 321 320 319 309 307 307 307 307 307 307 307 308 307 307 307 306 306 306 305 305 305 305 306 305 305 305 305 305
326 324 320 312 309 307 307 308 317 320 321 320 320 320 320 320 320 317 307 307 308 308 309 309 309 308 308 308 308 308 308 308 307 307 306 307 306 306 306 305 306 306 307
325 322 321 310 307 307 307 307 312 320 320 320 320 320 320 320 319 318 308 308 310 311 311 310 310 309 309 310 310 310 310 310 310 310 310 309 308 307 307 307 307 307 307
323 324 323 310 307 307 307 307 317 317 318 318 320 320 320 320 319 318 310 309 311 312 312 311 311 311 311 310 311 311 311 311 311 311 311 311 309 308 308 308 307 307 307
324 324 323 312 307 308 312 314 312 314 311 315 320 320 320 320 320 319 315 311 311 311 311 311 311 311 311 311 311 311 311 311 311 311 311 311 310 310 309 308 308 308 308
324 323 325 312 308 314 319 316 318 319 318 317 320 320 320 320 320 320 319 318 314 315 314 314 311 311 311 313 315 313 311 312 312 312 312 311 311 310 310 310 309 308 308
324 324 324 313 311 319 320 318 320 320 318 318 319 320 319 319 320 319 319 319 318 319 318 318 318 317 317 317 318 317 316 314 312 315 315 314 313 314 313 312 311 311 310
324 321 320 319 315 315 320 321 320 318 318 319 318 318 317 318 318 319 319 318 318 319 318 318 317 317 318 318 317 317 317 317 315 316 317 317 316 315 315 314 313 312 311
321 320 322 318 316 320 318 321 320 317 318 318 318 317 316 315 316 316 317 318 317 317 317 317 316 317 317 317 317 317 317 318 318 317 317 317 317 316 316 315 313 312 312
320 321 323 321 320 321 318 321 319 317 317 317 317 317 316 315 316 316 316 315 315 316 316 317 317 317 317 317 317 317 317 317 316 317 317 317 316 316 316 316 315 313 311
321 321 320 321 319 319 320 321 320 318 318 317 317 315 315 316 318 320 319 319 319 319 319 318 318 319 318 319 319 319 319 319 318 317 316 315 316 316 315 315 315 314 313
320 319 317 317 318 319 321 320 320 318 319 318 315 316 315 316 316 319 319 319 318 317 316 316 316 317 318 318 320 320 319 319 319 319 319 317 316 316 316 315 315 314 314
319 316 315 318 319 320 319 320 320 319 319 317 314 317 317 318 317 318 319 319 317 317 317 317 317 317 317 317 316 316 316 317 317 318 319 318 317 317 317 317 316 313 314
321 318 316 316 319 319 319 318 318 318 316 316 317 317 319 319 319 318 319 318 317 317 317 317 317 317 317 317 316 317 317 317 317 316 317 318 318 317 317 317 316 312 313
322 322 320 318 315 317 318 319 319 318 318 317 316 316 318 319 319 317 317 317 317 318 317 317 317 318 318 317 318 317 317 318 318 318 317 318 318 317 317 317 315 314 313
321 322 320 315 314 316 317 317 319 319 316 315 314 314 315 318 318 316 317 317 317 317 317 317 317 317 317 317 317 318 318 318 318 318 317 316 317 317 316 317 314 312 311
321 321 321 320 315 314 314 316 317 317 316 315 315 314 314 314 317 318 318 317 317 317 317 317 317 317 317 317 317 317 317 318 318 319 319 317 317 316 315 315 314 311 309
322 322 321 321 322 320 316 316 316 316 316 316 316 315 315 314 314 315 315 316 317 317 317 317 317 317 317 317 318 318 319 319 318 319 317 317 317 316 314 313 312 309 307
323 322 321 321 321 321 322 322 321 318 315 314 312 312 313 314 314 314 314 313 315 317 317 317 317 317 317 318 318 318 318 318 317 317 316 315 316 315 312 309 308 305 304
321 322 321 322 321 321 321 321 322 322 322 321 319 317 314 312 313 314 315 315 316 315 315 316 316 317 318 319 318 317 317 318 317 318 316 315 314 313 310 307 305 303 301
324 323 323 322 321 322 322 322 322 322 322 321 321 320 320 319 318 316 317 318 317 317 316 317 317 318 318 319 319 318 318 317 317 316 315 312 311 309 307 305 302 302 299
325 325 325 324 324 323 323 323 323 322 322 322 322 321 321 321 320 319 319 318 318 317 318 318 318 318 319 319 319 319 318 317 316 315 313 308 305 304 303 301 299 298 297
326 326 326 325 325 325 324 324 324 324 324 323 323 322 322 322 321 321 320 320 320 319 319 319 320 320 320 319 318 317 316 315 312 309 305 302 301 300 298 297 297 293 291
326 326 326 326 325 326 325 325 325 325 324 323 323 322 322 321 321 321 320 320 320 320 320 320 321 320 320 320 317 314 311 309 304 300 298 299 297 296 294 294 291 289 288
325 325 326 327 326 326 326 326 325 325 325 324 324 324 323 322 321 321 321 321 321 321 320 319 317 316 315 314 311 307 304 304 301 296 294 294 294 293 290 288 287 287 287

GFSMA_850_thetae_087.txt.gz
Theta_e
326 327 328 327 326 324 322 325 324 323 321 322 321 321 320 320 319 316 309 310 308 311 308 307 306 306 306 305 305 305 305 305 305 304 304 304 304 305 305 304 303 303 303
327 328 324 324 325 322 322 322 323 322 321 321 321 320 320 320 320 319 312 308 307 308 307 307 307 307 306 306 305 305 305 305 305 305 305 305 305 305 305 305 305 305 305
328 327 324 328 319 317 321 319 321 320 321 321 321 321 321 320 320 318 312 308 308 307 307 307 307 307 308 308 307 307 306 306 306 306 306 306 306 306 306 306 306 306 307
327 327 328 327 314 315 317 316 321 320 320 321 321 321 320 320 319 318 309 308 307 308 307 307 308 308 308 308 308 308 308 308 308 308 308 308 308 308 308 307 308 307 307
325 326 327 321 313 312 310 312 321 320 320 320 321 320 320 320 319 318 309 308 308 309 310 309 309 309 309 309 310 310 310 311 310 310 310 310 309 308 308 308 307 307 307
326 326 324 318 310 310 309 313 321 320 320 320 320 320 320 320 319 318 314 309 310 311 311 311 310 310 311 310 310 311 311 311 311 311 311 311 309 310 308 308 308 307 308
327 321 322 318 309 308 308 311 318 320 320 320 320 320 320 319 319 319 317 312 310 311 312 311 311 311 311 311 311 311 311 311 311 311 311 311 311 311 311 309 309 308 308
327 324 323 321 308 307 307 308 313 319 319 318 319 320 319 319 320 319 319 319 318 312 313 312 313 311 310 312 312 315 316 315 314 312 313 314 313 312 312 312 311 310 310
327 324 323 321 308 307 309 309 316 318 316 317 319 319 319 320 320 320 320 319 319 318 317 318 317 316 316 316 317 317 317 317 317 317 315 316 317 317 316 315 315 314 313
327 325 325 322 309 308 312 314 314 316 316 317 319 320 318 317 318 319 319 318 317 317 317 318 318 317 316 317 317 318 317 317 317 317 318 317 317 317 317 317 316 316 315
325 325 324 325 314 313 317 319 314 319 320 318 316 318 319 317 316 316 316 316 316 316 316 316 317 317 316 316 317 317 317 317 316 316 316 317 317 317 317 317 317 317 316
325 325 324 322 320 316 314 320 316 316 320 318 316 317 317 317 316 315 315 315 314 315 315 316 316 317 318 318 318 318 318 318 318 317 317 317 316 316 316 316 316 316 316
324 323 322 320 320 317 315 316 318 320 320 317 318 317 318 317 316 315 315 317 318 318 317 318 318 316 316 317 317 316 317 319 319 319 318 318 318 318 318 316 315 315 315
324 322 321 321 323 321 318 319 321 319 319 319 318 317 317 317 316 316 316 317 319 319 318 317 317 316 317 317 316 317 317 317 316 316 316 317 317 317 318 318 317 315 315
323 321 321 321 321 321 320 319 320 318 319 318 316 316 317 316 316 315 316 317 318 319 319 317 317 317 317 317 318 317 317 316 316 317 317 318 318 317 317 317 317 317 314
322 322 321 320 319 318 318 319 320 320 320 319 319 318 317 317 315 316 317 317 317 318 318 318 317 316 317 317 318 317 317 317 317 317 317 318 318 318 318 317 317 317 316
322 322 322 321 319 316 316 319 319 319 319 319 319 319 318 316 316 317 316 319 319 318 316 316 316 317 317 317 317 317 317 317 317 317 317 317 317 317 318 318 317 317 317
321 321 322 322 322 319 316 316 317 318 318 319 319 318 317 317 317 315 315 315 318 317 316 316 317 317 316 316 317 317 317 317 317 317 317 317 317 317 319 318 317 317 316
321 321 321 321 321 321 321 319 318 316 317 318 318 318 319 318 316 316 314 314 315 316 317 317 317 317 317 317 317 317 317 317 317 317 318 318 318 317 318 316 317 317 316
321 321 320 320 320 320 321 321 319 315 314 315 315 315 316 317 316 315 314 314 315 316 316 317 318 317 316 316 317 317 316 315 315 317 317 317 317 317 318 316 315 315 315
322 321 321 320 321 321 320 320 320 320 321 319 317 316 317 317 316 315 316 315 315 315 315 316 316 316 316 317 316 316 316 317 316 317 318 317 317 317 317 317 315 314 312
324 324 323 322 322 321 321 320 320 320 320 321 321 321 321 321 321 320 319 319 315 314 314 315 315 316 316 316 316 316 317 317 316 317 317 318 318 317 316 316 313 309 308
325 325 325 324 324 324 323 323 322 321 321 321 322 321 321 321 321 321 321 320 319 317 316 315 315 316 316 316 316 317 317 317 317 317 316 316 316 315 313 311 307 305 304
323 324 325 325 325 325 325 325 324 323 323 323 323 322 322 322 322 322 322 321 321 320 319 318 317 317 317 317 317 318 318 318 318 316 314 310 309 309 305 304 301 300 298
323 323 323 323 324 325 325 325 325 324 324 324 324 324 324 323 323 321 321 320 321 321 321 320 320 318 318 318 318 318 318 317 315 310 308 305 303 299 297 296 296 295 294
319 320 321 323 323 323 323 324 324 324 324 324 324 324 324 324 324 323 323 322 321 322 321 320 320 319 317 317 317 316 315 310 309 303 299 297 295 295 293 292 291 291 290

GFSMA_850_thetae_090.txt.gz
Theta_e
326 326 326 325 327 325 325 325 325 326 326 322 322 321 319 309 308 308 308 318 320 320 319 317 313 310 307 306 305 304 304 304 304 304 304 304 304 305 305 305 305 304 304
326 326 325 326 326 326 325 324 325 326 324 322 321 321 319 318 316 312 311 316 317 318 319 319 315 310 306 305 305 305 305 305 305 304 305 305 305 305 305 305 305 305 305
324 326 326 326 326 325 325 325 326 325 323 321 321 321 319 320 319 318 313 312 315 316 318 318 314 309 307 306 306 305 306 306 306 306 306 305 305 306 306 306 306 306 306
327 326 326 327 327 325 325 325 325 323 322 321 321 320 320 320 319 318 315 310 311 310 312 312 311 309 307 307 307 307 307 308 308 307 307 307 307 307 307 306 307 306 307
329 327 327 327 325 324 325 325 324 322 321 321 321 320 320 320 319 318 313 311 311 309 309 308 307 308 308 308 308 309 309 310 310 309 310 309 310 309 308 307 308 308 308
327 327 325 324 325 321 324 324 322 320 321 321 321 321 320 319 319 318 315 310 310 309 309 309 309 309 309 309 310 310 311 311 311 311 311 311 311 311 310 309 309 309 308
328 323 325 326 326 317 322 323 319 320 320 321 321 320 319 319 319 318 317 312 309 310 311 311 310 310 310 310 310 310 310 311 311 311 311 311 311 311 311 311 311 310 309
325 323 325 327 323 316 322 321 318 320 319 320 320 320 319 319 319 318 318 315 311 310 311 312 312 311 311 311 311 311 311 312 312 312 312 312 312 313 312 312 312 312 311
325 323 322 325 320 316 312 312 318 319 319 320 320 320 319 319 319 319 319 319 318 318 313 311 312 312 313 311 311 313 313 316 317 317 317 317 316 316 317 317 316 315 315
327 327 326 322 322 312 309 310 317 318 319 320 320 319 318 317 319 319 319 319 319 314 314 316 316 317 317 316 317 317 317 317 317 317 317 317 317 317 317 317 317 317 317
326 327 326 323 322 317 309 308 311 316 318 319 319 319 318 318 317 316 316 317 319 316 316 316 315 316 316 317 316 316 317 317 317 317 317 317 316 316 317 317 317 317 317
325 326 326 324 323 317 309 307 309 309 317 317 317 314 313 315 317 316 314 315 315 316 316 315 315 315 316 316 317 317 317 317 317 317 317 316 316 316 316 316 317 316 316
325 326 325 325 323 321 314 309 311 312 313 317 317 318 318 317 318 317 315 315 315 315 315 316 315 315 317 317 317 316 317 316 316 317 318 319 318 318 318 317 317 317 317
323 325 325 325 325 323 318 311 316 317 316 313 316 319 319 317 317 317 317 316 316 316 316 317 318 317 318 316 317 317 317 316 316 317 317 316 316 316 317 317 317 317 317
322 324 324 323 324 322 317 316 314 314 319 317 317 319 319 317 318 318 317 317 315 317 317 317 318 318 317 317 317 317 317 317 317 317 317 317 316 317 317 317 318 318 318
322 323 323 323 321 320 321 319 318 316 316 316 319 320 319 318 317 317 316 316 315 315 316 316 316 317 318 318 317 317 317 317 317 318 317 317 317 317 317 317 317 318 318
322 322 322 322 321 320 321 322 322 320 320 320 320 319 318 318 317 316 316 317 316 316 316 316 317 317 317 317 317 317 317 317 316 317 317 317 317 317 317 317 317 317 317
322 322 322 322 322 321 321 320 318 319 320 319 319 320 320 318 319 319 318 318 317 315 316 316 315 317 318 317 317 316 316 317 317 316 317 317 317 317 317 317 317 317 317
320 321 321 322 322 321 321 321 319 317 316 318 319 319 319 319 319 319 318 318 318 316 316 316 315 315 315 315 316 316 316 317 317 316 315 315 316 316 316 317 318 318 318
320 320 320 320 320 320 320 321 321 321 320 318 317 317 318 318 318 318 318 318 318 318 318 317 316 316 315 315 316 316 316 315 315 314 315 315 316 317 316 317 317 317 318
321 321 320 320 320 320 320 320 320 320 320 320 320 319 318 317 316 317 317 316 316 317 317 317 316 315 315 315 315 314 315 314 315 316 317 317 317 317 317 317 318 317 317
324 324 323 322 322 322 321 321 320 320 319 319 319 319 319 320 320 320 320 320 318 317 317 316 316 316 315 315 315 315 315 315 315 315 315 316 316 316 316 317 317 317 318
323 323 324 324 324 324 324 324 323 322 322 321 321 321 321 321 320 320 320 320 320 320 319 317 316 316 316 316 316 316 316 316 316 316 316 316 316 316 316 315 315 316 316
322 322 321 321 322 322 323 323 324 324 323 323 324 324 323 323 323 323 322 321 320 320 320 319 319 319 317 315 315 315 315 315 316 316 316 316 316 315 313 310 307 302 303
321 321 321 322 322 322 321 321 322 322 323 323 324 324 324 324 324 323 323 324 323 323 321 320 319 319 319 319 317 315 315 315 315 314 314 311 307 302 298 296 295 293 294
313 315 316 317 318 320 320 322 322 322 322 322 322 322 320 319 321 321 319 321 321 322 322 320 319 317 316 315 314 314 315 311 309 307 303 299 298 297 292 290 290 291 291

GFSMA_850_thetae_093.txt.gz
Theta_e
326 326 325 325 326 324 328 326 327 326 324 323 323 323 320 318 311 318 319 319 320 320 320 318 318 317 316 315 306 305 304 305 305 305 304 304 304 305 305 305 305 305 305
325 325 326 325 327 325 326 324 327 325 325 325 323 321 319 308 309 312 318 319 320 320 320 320 318 318 312 309 305 305 305 305 305 305 304 305 305 305 305 305 305 306 306
325 326 327 326 326 325 323 325 326 325 326 324 322 320 318 316 313 310 314 318 319 319 319 318 318 318 310 306 305 305 305 305 305 305 305 305 306 306 306 306 306 306 307
325 326 328 327 325 326 324 324 325 326 326 322 321 321 319 318 317 316 315 315 318 319 318 318 318 316 309 306 306 306 305 306 306 306 306 306 307 307 308 308 307 307 308
325 325 325 327 326 326 322 322 326 326 325 321 321 321 319 319 318 317 316 313 314 317 318 318 316 312 307 307 307 307 307 307 307 308 308 308 309 309 310 309 309 308 308
326 326 326 326 326 325 322 325 326 325 324 322 321 320 319 319 318 318 316 312 313 312 311 311 311 312 308 308 308 308 309 309 310 310 310 311 311 311 311 311 310 310 309
327 328 326 327 327 326 325 326 326 324 321 321 321 320 319 319 319 318 317 312 312 311 310 310 310 310 309 308 308 309 310 312 311 311 311 312 312 312 312 312 312 311 310
326 326 326 326 327 326 325 325 325 322 321 321 321 320 318 318 319 318 317 315 312 311 310 311 311 311 310 310 310 310 310 311 312 312 312 312 312 312 312 313 312 312 312
324 327 322 325 325 325 324 325 325 323 320 320 321 320 319 320 319 319 318 318 314 310 309 311 312 312 311 311 311 310 310 311 312 315 316 316 316 316 315 316 316 316 315
324 325 323 325 325 326 320 323 324 322 320 320 320 320 320 319 320 319 319 319 318 317 315 312 311 311 311 312 313 312 312 314 315 316 317 317 318 317 317 317 317 317 317
327 325 324 322 325 324 318 322 324 322 319 319 320 320 320 319 317 315 316 317 318 316 315 315 313 315 314 315 316 316 316 317 317 317 318 318 318 317 317 317 316 317 317
324 326 326 321 323 324 316 314 313 313 314 319 320 320 320 319 317 315 314 315 313 314 315 316 316 316 315 314 314 315 316 316 316 316 317 317 317 317 316 316 316 316 316
325 324 326 325 324 323 323 318 315 309 312 319 319 319 320 319 318 314 315 315 314 314 315 315 316 316 315 315 315 316 317 317 317 317 317 317 317 318 318 318 317 317 317
324 323 326 326 326 324 323 321 316 309 314 316 317 318 318 317 315 313 315 317 316 315 315 315 315 316 316 317 316 317 316 316 317 317 316 316 317 317 317 317 318 318 317
322 323 324 325 324 324 323 320 314 310 308 309 311 316 317 316 315 319 318 318 318 317 317 316 315 315 316 316 317 316 316 316 316 317 317 317 316 317 317 317 316 316 317
324 322 323 325 324 324 324 320 318 310 310 311 316 313 313 314 315 318 318 318 318 317 317 316 315 315 315 315 316 317 317 317 317 317 317 317 317 317 317 317 317 317 317
322 322 322 323 323 323 323 322 320 311 312 315 316 317 317 315 316 319 319 318 317 317 317 316 316 315 316 315 315 316 317 318 317 317 317 317 317 317 316 317 317 317 317
322 322 322 323 322 323 322 321 320 315 318 316 316 315 316 317 317 319 319 319 318 317 316 316 316 316 316 315 315 316 316 316 316 317 316 316 316 317 316 316 315 316 317
321 321 321 322 321 322 321 321 320 321 321 321 322 321 319 320 320 319 320 320 318 317 317 316 317 318 317 316 315 315 315 315 315 315 315 314 314 314 315 316 316 314 316
320 320 320 320 321 321 321 321 321 321 320 320 319 319 318 317 318 319 319 319 319 319 319 318 318 318 318 318 318 317 317 316 316 314 314 314 313 313 314 315 316 316 316
320 320 320 320 320 320 319 319 320 320 320 320 320 320 320 320 320 319 318 318 319 318 318 318 318 318 318 317 317 317 317 316 315 316 315 316 317 317 316 317 318 318 317
322 322 322 321 320 321 320 320 320 320 320 320 319 319 319 319 319 319 319 320 319 319 318 317 317 317 317 317 317 317 317 317 317 317 317 317 317 318 317 317 317 316 316
322 321 321 321 322 322 322 322 322 322 322 322 322 322 322 322 322 322 322 321 321 320 320 319 318 318 317 317 318 317 317 316 316 317 316 316 316 315 315 316 316 316 316
321 321 321 320 321 321 321 321 321 322 322 322 322 322 322 322 322 322 323 322 322 323 323 322 320 319 317 316 316 316 316 316 316 315 315 315 315 314 313 312 312 313 313
318 318 318 319 319 319 320 320 321 321 321 321 320 319 319 320 320 321 319 319 319 320 319 320 318 317 316 316 316 316 315 314 314 313 312 312 309 306 302 300 298 295 296
311 312 311 313 313 313 314 316 317 318 318 318 317 316 316 317 317 318 318 318 318 315 314 314 315 313 312 311 311 310 309 308 308 306 303 301 299 297 293 290 290 291 291

GFSMA_850_thetae_096.txt.gz
Theta_e
328 329 330 330 326 325 326 325 325 328 328 327 327 325 326 324 323 322 322 321 319 320 319 319 317 318 317 313 308 305 307 305 305 304 305 305 305 305 305 305 304 304 304
331 331 329 329 326 325 325 325 325 328 327 327 325 325 324 323 321 321 321 319 320 319 320 319 319 318 315 312 307 305 305 305 305 305 305 305 305 305 305 305 305 305 306
331 330 327 327 327 326 324 326 325 327 327 327 326 325 324 320 320 320 320 321 321 319 319 319 319 315 314 309 306 305 305 305 305 305 304 304 305 305 305 305 306 306 307
328 327 327 328 327 325 325 324 324 327 327 327 325 324 322 320 320 320 320 320 320 321 319 318 318 317 317 308 306 305 305 305 305 305 305 305 306 306 307 307 307 307 307
327 327 328 327 326 326 325 321 323 326 326 325 325 324 322 322 322 321 321 320 320 320 319 318 319 318 318 312 308 307 308 306 306 306 306 306 307 308 309 309 309 308 309
328 326 326 328 326 326 325 323 323 325 325 325 324 323 322 323 323 322 321 320 320 319 319 318 317 316 314 311 308 309 310 309 308 308 308 308 309 310 310 311 310 310 309
329 327 326 326 327 326 325 324 324 325 324 324 323 322 322 322 322 322 321 321 319 319 319 318 318 317 314 309 309 308 309 311 310 311 310 311 311 311 312 312 312 312 311
326 326 325 326 326 325 325 323 323 324 324 323 322 322 320 320 322 321 320 320 318 318 318 318 318 319 318 315 309 310 310 311 313 312 312 312 311 312 312 312 312 312 312
327 326 327 326 326 326 326 323 323 324 324 323 323 322 321 321 321 322 320 322 319 318 317 318 318 318 317 317 312 311 310 310 311 313 314 315 314 314 314 313 314 315 315
325 326 325 326 326 326 324 323 324 325 323 323 323 323 322 321 321 322 321 320 320 318 312 316 317 317 314 312 311 311 310 310 310 311 312 316 318 318 318 317 317 317 317
327 326 320 325 325 326 325 325 325 325 324 323 321 322 322 322 322 321 321 321 320 318 314 312 315 311 311 311 311 311 312 313 313 314 315 316 317 317 318 317 317 317 317
326 325 324 322 325 324 324 325 324 324 323 323 321 321 322 322 321 320 318 320 318 319 316 315 314 314 314 313 314 314 315 315 315 316 316 317 317 317 317 317 317 317 317
325 325 325 325 325 325 326 324 319 323 324 318 321 319 322 321 320 319 318 317 319 319 318 315 315 315 316 316 315 315 315 314 315 317 317 317 317 317 317 317 317 317 317
326 324 325 326 324 321 322 323 320 319 318 317 316 317 319 321 321 321 320 317 316 317 319 319 315 315 315 316 316 315 316 316 316 317 316 316 317 316 316 317 317 317 317
323 325 324 325 325 323 323 323 321 317 315 314 314 317 319 320 320 320 321 318 316 318 317 318 318 316 315 315 315 316 316 316 316 316 316 316 317 317 317 317 317 317 317
323 325 323 324 325 324 323 324 323 322 318 315 312 314 319 319 319 319 318 318 317 319 319 318 318 319 318 317 316 315 315 315 317 317 316 316 317 317 317 317 317 317 317
323 323 322 324 325 324 324 324 324 323 320 316 311 314 313 316 314 318 317 315 314 315 318 318 318 317 317 319 318 317 316 315 315 315 316 316 317 317 317 317 317 317 317
324 324 322 323 323 323 324 323 322 323 319 316 316 311 311 310 316 315 314 314 314 315 317 318 317 318 317 317 316 316 316 317 317 317 315 316 316 316 315 316 316 315 316
323 323 322 322 322 322 322 323 322 322 320 318 317 313 314 313 314 316 317 317 316 316 317 319 319 319 318 319 319 319 319 320 319 317 316 316 316 315 315 315 314 314 314
321 322 322 322 322 322 322 322 322 322 321 320 316 315 318 317 316 319 318 318 321 321 321 320 320 320 320 320 320 320 320 320 319 319 318 318 318 317 317 317 316 316 316
320 320 320 320 320 321 321 321 322 321 321 321 321 321 320 320 320 319 320 321 321 321 321 321 321 320 320 320 320 320 320 320 319 319 319 319 319 319 319 319 319 318 318
321 321 320 320 320 320 320 319 320 319 319 319 319 320 320 320 320 320 320 320 320 320 320 321 321 321 320 320 320 320 320 319 318 319 318 318 319 319 319 318 318 318 317
322 322 321 321 321 322 322 321 321 321 320 320 320 321 321 321 321 321 321 322 321 321 320 319 319 320 320 320 319 319 319 319 318 318 318 318 318 317 317 317 318 317 317
320 320 321 321 320 321 321 321 322 322 322 321 320 319 319 320 319 320 319 320 321 321 319 318 318 317 317 318 317 317 317 317 316 316 316 316 315 314 315 314 312 313 314
316 316 317 317 317 317 319 320 321 320 320 320 320 320 320 319 319 319 319 318 318 317 317 317 317 316 316 316 316 315 314 313 313 313 311 310 311 310 305 302 303 301 299
311 311 312 311 312 312 313 314 315 315 316 316 317 316 316 316 316 317 317 316 316 315 313 312 313 313 312 311 310 309 308 308 306 304 304 302 302 301 299 296 294 293 291

GFSMA_850_thetae_099.txt.gz
Theta_e
332 332 332 333 331 330 330 329 327 327 325 327 328 327 328 326 325 326 324 321 322 320 320 319 318 319 318 315 309 307 305 305 304 304 304 305 305 305 305 305 304 304 304
332 331 331 331 330 330 329 327 327 325 325 327 327 327 326 325 324 324 324 321 320 320 320 320 320 319 317 314 308 305 305 305 305 305 304 305 305 305 305 305 305 305 305
332 331 330 330 331 329 328 326 326 324 326 327 326 327 325 324 323 322 323 321 319 319 320 319 319 319 319 317 309 306 305 305 305 305 305 305 305 305 305 305 305 306 306
331 331 330 331 330 329 328 326 325 326 327 326 326 325 324 322 322 322 322 321 320 319 319 320 319 319 318 318 311 306 305 305 306 305 305 305 305 305 305 306 306 307 307
329 329 329 330 329 328 327 325 325 325 327 326 326 324 323 321 321 320 322 321 321 319 319 319 319 318 317 317 311 306 306 306 306 306 306 305 306 306 307 307 308 308 308
327 327 329 328 328 328 326 325 324 325 326 325 325 323 322 322 321 321 321 321 321 321 321 321 318 318 318 318 313 308 310 309 307 307 307 308 308 308 309 310 310 309 309
326 326 328 327 330 327 326 325 325 326 325 325 324 323 323 322 322 321 320 321 322 321 320 320 320 318 315 311 311 308 309 311 308 309 310 310 311 311 311 312 312 311 311
326 326 328 327 327 327 326 325 322 321 323 324 323 323 322 322 322 321 321 321 321 320 320 319 319 319 319 317 309 309 309 310 311 311 311 311 312 312 313 313 312 312 312
327 327 326 327 325 326 326 326 321 323 325 324 323 322 322 322 321 321 321 321 321 320 319 319 320 319 319 320 318 311 309 310 311 312 312 312 312 312 312 312 312 312 313
326 327 326 326 326 325 326 326 325 324 324 324 323 322 321 321 322 323 321 320 320 320 319 319 319 319 319 319 319 317 311 311 311 311 311 311 312 314 316 316 316 316 317
326 326 322 326 326 325 326 325 325 324 323 324 323 323 322 322 322 322 322 321 321 322 320 319 318 318 317 318 318 314 311 311 310 310 310 310 312 314 315 317 318 318 318
327 326 323 324 325 325 326 325 322 322 323 324 323 322 322 324 323 322 322 322 322 322 322 321 316 316 315 313 312 311 311 311 313 314 315 315 315 316 316 317 317 317 317
327 328 323 324 324 324 325 324 323 323 324 324 323 322 323 320 320 321 317 317 321 320 322 321 320 314 313 312 313 314 314 314 315 315 315 315 316 316 317 317 317 317 317
326 326 325 322 325 322 323 324 324 324 324 324 323 323 320 315 316 322 321 320 319 319 320 321 318 315 315 314 315 316 316 315 315 315 315 315 315 316 317 317 317 317 316
325 326 326 325 322 323 324 324 325 323 320 319 317 318 315 319 319 321 322 320 320 318 317 318 320 320 318 319 318 316 316 316 316 316 316 316 316 316 316 316 317 317 317
324 326 324 325 325 324 322 322 324 323 320 320 318 320 316 317 317 319 320 321 322 320 319 317 318 319 320 319 318 317 316 315 315 315 315 315 316 316 316 316 316 317 316
324 323 325 325 325 324 324 322 322 324 322 319 319 319 317 318 318 317 317 319 319 319 318 318 318 318 319 320 320 319 319 319 317 317 317 316 315 315 316 317 317 317 317
323 324 325 323 324 325 325 324 322 323 323 320 321 321 319 316 315 318 320 319 318 317 317 317 316 314 314 315 316 317 317 317 319 319 317 316 316 317 316 315 316 316 316
322 323 323 322 323 324 324 323 323 323 324 324 323 322 318 317 312 313 316 316 316 316 315 315 315 315 314 315 316 319 320 319 319 319 318 317 318 317 317 316 316 316 315
324 323 324 323 322 323 323 324 323 323 323 321 321 320 319 319 316 315 315 312 315 315 316 317 317 318 319 320 321 321 321 321 321 321 321 321 320 320 320 320 320 320 319
325 324 323 323 323 323 323 322 322 322 322 322 321 321 320 319 315 313 314 316 316 317 321 320 320 322 322 322 322 322 322 322 322 322 321 321 322 321 322 321 320 320 320
321 321 321 321 322 323 323 322 322 323 322 322 322 321 321 321 321 320 320 320 320 320 320 320 321 321 321 322 322 322 322 322 322 321 321 321 320 320 319 319 319 319 319
320 320 321 319 320 320 320 320 320 320 321 321 321 321 321 322 322 322 322 321 321 321 320 320 319 319 319 320 320 320 321 320 320 320 319 319 319 319 319 318 319 319 319
321 321 321 321 321 321 321 321 321 320 320 320 320 321 322 322 322 321 321 320 320 320 319 319 318 318 318 318 318 317 317 317 317 316 314 312 312 313 313 314 313 313 314
313 315 316 316 315 316 318 320 320 320 319 318 318 319 319 319 318 319 319 318 317 316 316 316 315 315 314 314 314 313 312 311 310 308 307 307 306 305 306 303 303 302 299
302 306 308 308 307 309 309 312 314 315 315 314 313 313 313 313 313 315 316 315 313 313 312 311 310 309 307 306 305 305 305 305 304 302 302 300 301 299 298 297 297 295 293

GFSMA_850_thetae_102.txt.gz
Theta_e
334 333 333 332 332 331 330 329 329 329 327 328 325 326 327 326 328 327 325 324 322 320 321 320 316 320 321 318 317 313 307 305 305 305 305 305 305 305 304 304 304 303 304
333 333 332 332 332 332 330 330 330 329 327 326 325 326 327 326 327 325 325 323 321 319 319 318 319 319 319 319 314 310 306 305 304 304 305 305 305 305 305 305 304 304 305
333 332 332 331 331 330 330 330 329 327 327 325 324 326 326 326 325 325 324 322 320 319 318 320 320 319 319 317 312 307 306 306 305 305 305 305 305 305 305 305 305 305 306
332 331 331 330 330 330 330 330 327 327 327 325 326 326 326 325 323 323 322 321 318 319 318 319 318 319 319 316 310 306 305 306 306 305 305 305 305 306 306 306 306 307 307
329 331 331 331 330 329 331 329 327 326 324 326 326 326 324 323 321 322 321 320 316 319 319 319 319 319 318 318 312 307 305 306 306 306 306 306 306 306 307 308 308 308 308
328 328 329 330 330 328 330 329 327 325 325 326 326 325 324 321 321 322 321 320 321 318 318 318 319 318 318 317 311 306 308 308 306 306 306 306 307 307 308 309 310 310 310
326 325 327 326 328 328 330 329 326 325 326 326 326 324 322 321 320 321 322 323 322 321 320 319 319 318 317 316 314 308 308 312 309 307 307 308 308 309 310 310 311 312 312
328 327 326 327 327 328 328 328 326 325 326 326 326 323 322 322 320 320 321 322 323 321 319 320 319 318 316 315 310 308 308 309 316 310 309 310 310 311 312 312 312 312 313
328 327 327 327 326 327 327 328 326 325 325 325 324 322 323 322 322 321 321 319 321 322 321 319 318 317 319 319 318 318 310 309 310 312 312 311 311 311 312 312 312 312 313
328 327 328 327 327 326 326 327 326 325 325 325 324 323 321 321 321 322 321 319 320 322 320 320 320 319 320 319 320 319 314 310 310 311 311 311 312 312 313 313 313 313 313
326 326 326 326 326 326 326 325 326 324 325 324 324 323 321 321 320 319 321 321 320 321 319 320 320 319 319 319 320 319 314 313 311 311 310 310 310 310 311 312 314 316 317
325 327 326 326 324 326 326 326 326 324 323 322 324 322 321 322 322 322 321 320 319 318 320 319 318 319 318 317 316 316 314 312 311 311 310 312 312 312 313 314 315 316 317
325 326 326 325 324 325 325 325 326 325 322 321 324 323 321 320 323 323 322 322 321 321 321 321 321 319 316 314 311 311 312 312 311 311 312 314 315 315 315 316 316 316 316
326 326 327 324 324 324 325 324 325 325 324 324 323 323 322 322 322 322 321 320 317 320 322 321 319 317 314 314 312 311 312 314 314 314 314 315 315 315 315 315 315 316 317
325 325 326 323 323 324 324 325 325 325 322 322 323 323 322 322 321 318 317 317 317 320 320 320 319 318 318 318 317 315 314 315 316 315 316 316 316 316 315 316 316 316 316
324 326 325 325 324 323 324 324 324 322 321 322 323 323 323 321 319 316 316 319 320 322 320 319 319 319 320 320 320 320 319 318 317 315 315 315 315 315 315 315 315 316 316
325 325 325 325 324 322 323 322 321 323 323 323 323 321 320 319 318 316 317 319 319 321 318 319 318 319 320 320 320 319 320 319 319 318 318 317 317 316 317 316 315 315 315
325 324 324 324 324 325 325 324 322 322 322 324 322 321 320 319 321 318 318 316 315 318 317 319 318 317 317 317 317 317 316 315 315 318 317 316 317 317 317 317 317 316 317
324 324 323 323 324 324 323 324 323 322 322 322 323 323 321 319 320 319 317 318 318 318 319 319 317 316 315 315 314 315 316 316 316 316 319 319 319 319 319 319 319 319 319
323 323 323 323 323 323 324 324 324 323 323 322 323 323 321 321 321 319 318 316 317 319 318 318 318 316 316 319 319 319 320 320 321 321 321 321 322 322 321 321 321 321 320
323 322 322 323 322 322 322 322 323 323 323 322 323 321 321 321 320 320 319 317 315 315 314 315 314 314 319 321 321 322 322 322 322 322 322 322 322 322 323 322 322 322 321
325 325 323 325 323 322 322 322 323 323 323 323 322 321 320 320 320 320 320 319 316 313 315 319 320 321 322 321 321 321 322 321 321 321 321 320 318 318 321 322 321 321 320
323 324 324 324 324 323 323 322 322 322 322 322 323 322 322 322 321 321 320 320 320 320 320 320 319 320 320 320 320 320 319 319 318 317 318 317 317 316 316 315 315 314 314
321 321 321 321 321 321 321 321 321 322 322 321 322 322 321 321 319 319 321 321 321 320 320 320 320 319 318 319 318 318 317 316 315 313 313 311 312 310 308 309 308 308 308
316 318 318 318 318 318 319 320 320 320 319 320 320 319 319 320 319 320 319 317 317 317 317 316 316 315 313 313 312 312 310 309 309 308 307 306 304 303 302 301 301 299 298
301 301 305 308 307 309 311 313 315 313 311 310 310 311 312 314 315 314 314 315 311 310 310 308 308 306 305 304 304 304 304 304 304 303 302 301 299 298 297 296 296 294 293

GFSMA_850_thetae_105.txt.gz
Theta_e
331 332 333 334 333 332 330 329 328 328 328 327 325 324 326 327 327 328 328 326 324 322 319 312 313 314 319 319 320 315 310 307 306 305 304 305 304 304 305 305 305 305 305
332 333 333 333 332 332 331 329 329 328 328 327 327 324 324 327 326 328 327 324 323 322 318 315 318 321 320 320 320 315 310 305 305 305 305 305 305 305 305 305 305 305 305
333 333 333 333 331 331 331 331 330 329 329 327 327 324 325 327 327 327 326 324 322 321 318 319 319 320 320 321 317 312 307 305 305 305 305 305 305 305 305 305 305 305 306
332 332 332 332 332 331 329 329 329 328 328 326 326 325 324 326 326 326 325 323 321 320 317 318 319 319 318 314 312 309 306 305 305 305 305 305 305 306 306 306 306 306 307
331 332 332 331 330 329 329 329 329 328 327 326 326 324 325 325 324 324 323 322 320 318 317 320 320 320 318 317 313 307 306 305 305 306 305 305 305 306 306 306 307 307 308
330 331 332 331 330 330 329 329 329 329 326 327 326 324 326 324 323 323 321 321 319 316 317 318 319 319 319 317 317 311 308 307 306 306 306 306 305 306 306 307 308 308 309
326 327 327 330 330 331 331 329 328 329 326 325 326 326 326 324 322 321 322 321 319 318 315 317 319 318 318 317 318 310 310 309 306 306 307 307 306 306 307 308 309 310 311
328 326 324 325 328 327 329 329 327 329 326 324 326 326 324 322 321 321 322 321 321 321 319 319 315 318 318 317 314 309 306 307 313 311 307 308 308 308 308 309 310 311 312
329 328 326 326 326 326 327 327 327 329 326 324 326 325 322 322 321 322 323 322 321 321 320 320 319 317 315 315 313 312 310 308 308 309 310 309 310 310 311 311 312 312 312
329 328 328 327 327 326 326 326 329 328 326 325 326 323 322 321 320 321 321 321 321 321 320 320 320 319 316 314 315 317 318 316 310 309 310 311 311 312 312 312 312 312 313
331 329 328 327 327 326 325 325 327 327 327 325 326 323 322 322 320 320 320 319 319 321 321 321 320 320 319 317 317 318 319 318 313 310 310 311 311 311 311 311 312 313 314
330 329 328 327 327 326 326 326 326 327 326 325 326 323 322 321 321 320 320 319 318 320 321 321 321 320 320 319 319 318 318 317 316 314 311 310 310 310 310 311 312 312 313
329 328 325 326 326 326 325 325 326 325 326 325 325 323 322 321 320 320 320 319 319 319 320 321 319 320 320 320 319 317 316 313 313 312 311 311 310 311 312 313 314 314 315
329 327 323 325 325 324 324 325 326 326 324 325 325 323 322 322 321 322 321 322 321 320 319 319 318 318 318 318 314 312 311 310 310 312 312 312 311 312 314 315 315 315 315
327 323 326 326 326 324 325 325 325 325 325 325 325 323 323 322 321 323 322 320 318 320 320 321 321 320 318 316 316 316 314 313 312 313 314 315 315 315 315 315 315 315 316
325 324 325 325 324 324 324 324 324 325 325 325 323 322 323 323 321 321 322 321 318 318 320 320 320 319 319 318 318 318 319 319 318 317 316 316 316 315 315 315 315 316 316
324 324 324 325 324 323 323 324 324 325 325 325 324 322 322 321 322 321 321 319 316 316 319 318 320 320 321 321 320 320 319 319 319 319 318 317 318 318 317 317 316 317 318
324 325 324 324 325 323 323 324 324 324 324 323 321 321 322 322 323 320 320 318 318 316 317 319 320 320 319 319 319 319 319 319 319 318 316 315 316 315 315 317 318 318 319
325 324 326 325 325 325 323 322 323 323 322 321 322 322 322 322 322 321 320 319 318 316 317 317 316 317 315 316 318 316 313 314 316 317 319 320 320 320 321 321 321 320 320
323 323 323 325 324 324 325 324 323 323 322 322 321 321 323 322 321 321 320 320 319 319 318 318 318 318 318 317 316 316 316 320 321 321 321 321 321 322 322 322 322 321 321
324 323 322 322 322 324 323 324 324 323 323 323 323 322 323 322 322 322 320 320 319 319 318 318 319 317 316 317 316 318 320 321 322 322 322 322 322 322 321 320 317 317 320
324 323 323 322 321 321 322 322 324 322 323 322 322 322 322 322 321 320 320 320 319 319 318 316 315 315 314 318 320 321 322 320 320 319 318 319 319 319 319 318 317 318 317
322 323 323 322 322 321 322 322 322 322 322 322 321 320 320 320 321 320 320 320 319 319 319 319 317 316 319 321 320 320 319 319 319 319 317 316 315 315 314 311 313 312 310
320 321 321 320 318 320 321 322 322 321 322 321 321 321 321 321 321 321 320 320 320 320 320 319 319 318 318 318 318 318 316 316 314 314 312 311 311 309 307 307 304 303 302
310 314 312 311 313 316 319 320 320 320 320 320 320 319 319 320 320 320 320 319 319 317 317 316 315 314 313 314 314 314 311 310 310 308 307 306 305 302 301 301 299 297 297
303 303 303 305 302 307 308 313 312 315 316 316 315 316 317 317 317 316 313 314 314 311 308 309 307 305 304 303 306 306 305 305 305 303 302 300 298 298 297 295 295 293 293

GFSMA_850_thetae_108.txt.gz
Theta_e
331 332 333 334 333 333 332 330 328 328 327 327 326 326 327 326 326 326 328 328 326 325 322 319 313 314 316 319 320 315 310 310 310 307 305 304 304 304 304 304 304 304 304
330 331 332 333 332 332 332 331 329 328 327 328 327 327 326 326 326 326 327 328 326 323 321 318 314 321 317 319 319 315 311 310 309 305 304 305 304 304 304 304 304 304 304
332 331 331 332 331 332 331 331 331 329 328 328 327 325 325 326 326 326 327 328 324 322 321 319 315 320 320 319 317 315 312 308 308 307 305 305 305 305 304 304 304 304 304
332 332 332 332 332 331 331 331 330 330 329 329 328 327 326 324 325 326 326 327 324 322 321 319 318 322 319 320 319 316 310 306 308 309 306 305 305 305 305 305 305 305 305
330 332 332 332 332 332 330 331 330 329 329 328 327 327 326 325 326 326 327 325 323 321 319 317 318 319 320 320 318 316 309 306 305 306 305 305 305 305 306 305 305 305 306
328 330 331 331 331 331 331 329 328 328 328 328 327 326 325 325 326 325 326 324 321 320 318 316 319 319 319 319 318 316 312 309 306 306 306 305 305 306 306 306 306 307 307
326 329 330 332 332 330 330 330 329 328 329 328 327 325 326 325 325 326 324 322 321 319 317 317 318 319 319 319 318 315 314 309 308 308 306 306 305 306 306 307 308 309 310
328 328 329 330 332 332 331 330 330 329 329 328 327 326 326 326 325 325 322 321 320 317 316 316 317 318 319 318 317 316 312 311 311 311 306 307 307 306 307 308 309 310 311
332 330 327 327 328 330 331 329 329 330 329 328 327 326 325 324 324 324 322 322 320 320 319 317 316 316 318 317 316 315 311 307 307 309 308 308 307 308 308 308 310 311 312
332 331 330 327 326 325 326 327 328 329 329 327 327 325 326 324 322 322 322 322 321 321 320 320 319 318 317 317 316 315 311 310 310 309 310 310 309 309 309 309 310 311 312
332 331 332 330 327 326 326 326 328 327 328 326 327 325 325 322 322 321 322 322 322 321 320 320 320 319 319 318 315 313 315 317 318 317 311 309 311 311 311 311 311 312 312
330 329 331 329 328 328 326 326 329 328 325 325 327 325 325 322 321 320 321 322 322 321 321 320 320 320 320 319 319 316 317 317 318 318 315 311 310 311 311 312 312 312 312
329 330 329 330 329 330 327 326 326 325 326 326 327 325 325 322 321 320 319 320 321 320 320 320 320 321 320 320 319 318 317 317 317 316 316 315 312 311 310 310 310 311 312
330 331 332 332 329 328 325 326 324 325 325 326 326 325 324 322 321 320 319 318 319 320 319 319 320 321 320 319 319 319 318 317 315 312 313 313 313 312 311 311 311 313 314
332 330 329 329 327 324 325 326 323 323 326 326 324 325 324 322 321 320 320 319 319 318 320 318 319 318 319 318 317 318 317 315 313 312 311 312 313 313 314 314 313 314 315
332 330 329 327 323 325 325 323 326 325 325 325 325 324 325 322 321 320 319 321 322 321 319 319 318 319 320 320 318 318 318 318 317 316 317 317 316 315 317 316 316 316 316
332 330 328 323 325 325 324 324 324 324 324 325 325 325 324 322 322 321 322 322 320 318 318 318 320 320 320 319 319 319 318 319 319 319 319 317 318 318 316 315 316 317 316
330 329 327 322 325 325 323 327 324 323 324 324 325 325 325 323 323 320 320 319 322 318 318 317 316 317 318 319 320 319 319 319 318 318 318 318 318 317 316 317 318 317 317
329 328 323 322 323 324 323 322 324 324 324 325 325 324 324 323 323 323 319 319 321 321 321 318 318 317 318 320 319 318 316 316 319 317 316 316 317 318 319 320 321 321 321
328 324 323 324 322 322 323 323 323 325 324 324 324 324 323 321 321 321 319 322 321 321 320 318 317 317 317 317 316 317 318 317 316 316 318 320 320 320 320 321 321 321 322
324 323 322 322 322 322 323 323 323 323 323 323 322 321 321 322 322 322 323 323 321 320 320 320 319 318 318 319 318 317 316 315 317 320 320 321 320 320 320 319 319 318 320
324 322 323 322 322 323 323 323 323 323 323 323 322 322 323 322 322 323 323 321 320 320 320 320 319 318 318 318 317 315 315 317 319 320 318 318 318 317 316 316 316 316 315
324 325 323 322 322 320 321 322 322 322 322 322 322 322 323 322 322 321 322 321 320 320 319 319 319 318 317 316 315 315 318 319 320 318 318 317 316 313 312 313 311 310 310
321 323 323 322 322 322 320 320 321 321 320 320 321 321 321 320 320 320 320 320 320 319 319 319 319 319 318 318 317 319 318 317 316 317 315 311 310 307 307 305 305 303 303
307 304 311 314 319 321 321 320 320 320 319 318 319 319 319 319 319 320 320 319 319 319 319 318 318 318 318 318 317 316 314 313 311 310 310 308 307 304 302 300 299 298 298
301 303 299 302 303 310 313 316 312 313 316 316 315 314 316 317 316 315 316 315 314 314 313 312 311 310 311 310 311 310 310 307 308 306 304 303 301 300 298 296 294 293 292

GFSMA_850_thetae_111.txt.gz
Theta_e
331 334 334 335 334 333 332 332 329 327 326 325 325 328 328 327 328 326 326 328 326 326 327 323 320 317 313 318 320 319 318 315 313 311 310 309 308 305 304 303 303 304 304
329 330 331 333 334 333 332 332 330 328 327 326 325 326 328 327 327 327 325 328 327 326 326 323 322 317 313 319 319 318 315 313 313 312 309 308 306 304 304 304 304 304 304
329 329 330 331 333 333 332 332 331 329 327 327 327 326 326 326 327 326 326 326 327 326 323 321 321 321 320 320 319 319 315 314 316 311 308 305 305 304 304 304 304 304 304
328 329 329 330 331 331 331 330 331 330 328 328 327 327 327 326 326 326 326 325 327 326 323 321 321 320 320 320 319 319 318 314 314 312 309 305 305 305 305 304 304 305 305
329 330 330 330 331 331 331 330 330 331 330 329 328 328 327 325 325 325 326 325 327 325 322 321 319 320 319 320 319 319 318 314 309 316 310 305 305 306 305 305 305 305 305
326 329 331 331 331 332 332 331 330 330 330 329 329 328 328 326 327 324 325 324 326 324 322 319 318 318 320 319 319 319 320 316 309 311 309 306 305 305 305 305 305 306 306
323 326 329 331 332 332 331 332 330 330 328 327 327 328 328 326 327 325 326 325 325 323 321 319 318 317 319 318 319 318 318 318 317 310 309 305 305 306 306 305 306 306 307
325 323 325 329 331 331 331 331 330 330 328 328 327 327 326 326 325 325 326 324 325 323 320 319 317 318 318 318 318 318 318 319 319 314 309 307 306 305 305 306 306 307 308
328 326 324 327 330 331 332 331 330 329 329 328 327 327 326 326 325 324 325 325 323 322 320 318 317 317 317 319 318 318 316 318 319 317 313 311 307 306 306 306 307 308 309
330 329 328 327 329 333 332 329 328 328 328 326 327 328 327 326 325 323 324 324 322 321 319 318 316 316 317 317 318 317 315 314 312 312 315 314 310 308 308 307 308 309 310
332 331 331 330 330 328 328 328 330 327 326 326 326 326 327 326 325 324 323 323 321 321 320 319 319 318 317 317 317 317 316 316 313 311 310 310 310 314 314 310 310 310 311
331 329 333 331 331 329 328 327 326 329 325 325 326 325 327 326 325 323 323 322 321 321 320 321 320 320 319 319 318 318 316 314 315 317 318 317 313 310 311 313 312 311 311
331 330 328 331 329 329 328 327 326 327 326 326 326 326 327 326 325 324 323 322 321 321 320 320 321 320 319 320 319 319 317 316 317 317 318 318 317 315 312 310 310 310 310
330 329 329 328 329 329 328 328 326 325 325 326 327 326 326 325 326 323 323 322 321 321 321 320 321 320 320 320 320 319 319 318 318 317 317 317 317 317 315 313 312 311 311
332 331 330 328 327 329 329 329 326 326 324 327 326 325 326 326 326 322 322 322 320 320 320 318 320 320 319 319 319 319 318 318 318 318 318 317 314 314 314 313 313 313 313
332 333 331 331 329 330 328 329 328 326 324 325 323 323 325 326 324 322 321 319 319 318 318 317 318 319 318 319 319 319 318 318 318 318 318 316 315 314 314 315 315 317 317
330 332 332 331 329 329 329 328 325 324 322 324 324 325 325 324 325 323 320 319 318 317 318 317 318 319 318 319 319 319 319 319 319 319 319 318 319 318 317 318 318 317 316
330 330 332 331 329 328 322 324 324 322 324 324 324 325 325 325 324 323 321 320 319 319 321 320 319 319 319 319 319 319 318 319 319 318 319 318 318 318 318 318 317 317 317
329 331 332 330 328 327 321 327 323 322 323 323 324 324 325 324 324 323 321 320 320 320 319 319 318 318 318 317 318 317 318 318 319 318 317 317 318 317 315 316 316 317 317
329 330 332 328 326 322 324 323 323 321 323 323 323 324 324 324 324 323 321 322 322 319 320 321 319 320 320 318 319 319 320 319 317 317 318 318 316 315 316 319 320 320 320
330 331 329 324 322 322 322 322 321 322 323 323 323 323 324 324 324 323 322 321 320 319 319 319 321 319 318 318 317 317 318 317 319 318 317 317 317 320 320 320 319 319 318
324 325 325 323 322 323 323 322 321 321 322 323 323 323 322 323 322 322 321 321 321 320 320 322 320 320 319 319 319 318 318 318 318 317 316 318 319 319 317 317 317 316 316
322 323 322 322 322 322 322 321 322 322 323 322 323 322 322 321 321 321 322 322 321 321 321 321 320 320 320 319 318 318 318 318 316 315 316 316 317 313 313 310 311 310 311
307 316 316 318 321 321 321 321 321 321 321 321 321 321 321 322 322 321 321 321 320 320 320 319 319 319 318 318 317 316 316 316 315 316 314 313 310 310 306 304 303 302 302
304 303 303 305 309 316 320 320 320 320 320 320 319 319 320 319 320 320 320 319 318 319 319 319 319 318 318 318 318 318 317 316 316 314 313 310 307 303 299 298 299 297 297
300 301 303 303 302 303 305 305 314 317 317 317 317 316 317 315 317 317 316 316 317 316 318 317 315 314 316 316 315 314 313 311 311 308 307 305 304 301 300 298 296 294 295

GFSMA_850_thetae_114.txt.gz
Theta_e
329 331 333 335 335 334 332 332 330 328 327 326 326 327 329 329 328 327 326 326 327 326 327 325 323 320 318 315 318 318 319 319 319 315 313 316 315 313 308 304 304 304 305
328 330 332 334 335 334 333 332 331 328 326 326 325 326 328 328 328 327 327 326 327 327 327 326 325 323 321 318 320 319 319 319 319 316 312 314 312 306 304 304 304 304 305
328 330 330 331 332 333 333 332 331 330 327 326 326 326 325 327 328 327 327 326 326 327 326 325 324 324 322 319 319 319 318 318 318 314 312 309 309 305 304 304 304 304 305
327 329 330 329 330 331 333 332 331 331 329 327 327 327 326 326 326 326 326 327 326 327 326 325 322 322 321 320 319 318 318 318 318 316 311 308 305 305 305 304 304 304 304
325 328 328 329 329 330 332 332 331 331 330 329 328 328 327 327 327 326 326 326 326 326 325 325 322 321 320 320 319 319 318 318 318 318 314 308 305 305 305 305 304 304 304
325 326 328 328 329 330 331 331 331 330 329 330 330 329 327 327 327 326 325 326 326 325 326 324 321 320 320 319 319 319 318 318 317 317 317 309 306 307 305 305 305 305 305
324 326 327 328 329 330 330 331 331 330 330 330 330 328 327 326 326 326 325 325 326 325 326 323 321 318 319 318 319 319 318 318 318 316 319 315 309 306 306 305 305 306 306
324 324 324 326 329 330 331 331 331 330 331 330 328 326 326 326 326 326 325 325 325 325 325 324 320 318 317 319 318 318 318 318 318 318 317 318 315 309 308 306 306 306 306
329 327 326 325 327 330 330 331 331 332 330 329 331 326 326 325 326 325 325 325 325 325 324 323 320 318 317 318 318 318 318 318 318 318 318 317 317 309 308 306 306 306 306
331 331 329 328 325 330 334 332 329 328 328 327 325 325 325 325 325 324 325 325 325 325 324 322 320 317 316 318 317 318 317 316 315 318 318 318 317 312 310 307 306 306 307
331 332 331 330 328 328 334 329 328 328 327 326 325 325 325 324 325 325 324 324 324 324 324 322 321 318 315 317 317 318 318 318 316 314 314 316 317 318 315 310 309 308 308
330 331 333 331 330 330 330 330 329 328 328 326 325 324 325 326 325 325 324 324 324 324 324 322 320 319 317 316 317 316 317 317 317 316 314 312 314 318 318 317 315 311 310
331 330 331 331 331 330 330 329 329 330 329 326 324 324 324 325 325 324 325 324 324 323 323 321 321 320 319 318 318 318 318 317 317 316 315 316 317 317 315 313 314 313 313
332 332 331 330 331 329 329 329 329 328 327 325 324 324 324 323 326 325 325 324 322 322 322 321 320 320 320 320 319 319 319 318 317 315 316 317 318 318 317 317 316 313 311
332 333 333 331 331 330 328 328 328 328 326 325 324 323 323 324 325 324 326 326 323 322 321 321 322 321 319 319 318 319 320 319 319 318 317 318 318 317 316 317 316 315 314
331 332 332 332 331 330 329 327 327 327 327 325 323 323 323 325 325 325 325 326 324 322 321 322 321 319 316 318 320 320 319 319 319 319 319 319 319 318 317 315 314 314 314
332 332 332 332 331 331 329 328 326 327 326 325 322 323 323 323 324 323 324 324 323 323 321 321 320 316 316 318 319 319 319 320 320 319 319 319 319 319 318 316 317 317 317
331 330 330 330 330 331 330 329 327 327 325 327 325 321 325 323 324 324 323 323 322 322 321 319 319 317 315 316 318 319 319 320 320 320 319 319 320 319 319 319 318 317 317
332 331 330 328 328 330 330 329 330 327 321 325 321 322 322 324 323 323 323 323 323 320 319 319 318 318 320 317 319 319 320 318 317 317 318 320 318 318 317 317 317 317 317
327 329 329 328 328 330 331 329 327 320 323 322 321 321 323 324 324 324 323 323 322 319 319 319 320 319 319 320 319 319 319 318 317 317 317 319 318 317 317 317 317 315 315
324 326 326 328 328 330 329 326 321 323 321 320 320 322 323 323 324 324 323 323 322 321 320 319 319 319 319 318 318 318 318 317 318 318 318 318 318 317 317 316 316 318 319
322 323 324 324 323 325 324 323 323 322 320 320 320 321 321 321 322 324 324 323 321 321 320 320 320 320 319 319 318 319 319 319 318 317 318 317 317 317 316 315 317 318 319
312 314 314 320 321 317 322 322 322 322 321 320 321 323 323 322 322 322 322 321 321 322 321 321 319 319 319 319 319 320 318 318 317 317 317 317 316 315 314 313 314 315 314
307 308 309 309 311 315 319 321 320 321 321 321 322 322 321 322 322 321 321 322 321 321 321 321 320 320 320 320 320 320 320 319 318 318 317 315 314 311 309 305 308 308 307
303 303 303 305 308 310 307 311 315 316 318 320 320 321 320 320 320 319 320 321 321 320 320 320 319 319 320 319 319 319 318 317 317 315 314 314 310 304 300 299 299 300 302
300 300 301 302 303 303 304 304 304 305 310 311 313 316 315 318 318 319 318 317 317 318 317 316 316 316 317 316 317 316 316 316 316 312 309 306 303 300 297 294 293 295 295

GFSMA_850_thetae_120.txt.gz
Theta_e
335 339 340 340 337 337 336 336 336 334 332 333 334 335 335 332 332 330 330 328 327 328 326 326 326 325 324 321 316 320 321 320 321 320 318 315 317 317 310 305 304 305 306
334 338 339 339 338 337 336 336 336 334 333 333 333 333 334 334 331 330 329 328 328 327 326 327 327 325 323 320 319 321 321 320 320 320 316 315 318 316 311 307 305 306 306
332 334 335 337 337 336 334 335 335 334 334 333 333 333 333 333 332 330 330 329 328 327 327 326 326 326 324 321 320 320 319 320 320 318 317 318 318 318 313 309 305 305 306
329 332 331 331 334 334 334 335 334 335 334 333 332 332 332 332 333 331 329 329 328 327 326 326 327 325 323 323 319 320 320 318 319 318 317 318 315 317 315 310 307 305 305
327 328 330 331 332 333 334 335 334 334 335 334 333 332 332 331 332 332 330 329 327 327 327 327 326 326 324 324 322 320 319 319 318 318 316 317 315 315 313 309 309 305 304
325 327 328 329 331 333 334 335 334 332 334 334 333 332 331 330 331 329 329 328 327 327 327 327 327 326 324 323 322 320 319 318 317 318 318 317 315 311 312 313 306 304 304
324 325 326 327 329 331 331 333 334 334 333 334 333 330 330 329 329 328 328 328 326 326 327 327 326 326 324 323 321 320 320 319 317 318 318 317 315 310 310 313 309 305 304
324 325 324 325 327 329 330 330 332 334 333 333 331 331 331 329 328 327 327 327 327 326 326 326 326 325 324 323 320 319 320 320 319 317 318 317 316 314 311 308 311 309 305
324 325 325 325 326 328 328 329 329 333 333 332 332 331 330 328 327 328 326 326 326 326 327 326 325 326 325 323 320 319 319 320 319 318 317 317 317 317 315 311 312 310 306
326 326 326 325 324 325 327 327 329 330 332 332 331 330 329 328 327 327 325 324 325 326 325 326 326 326 325 324 321 320 320 318 319 318 319 318 316 318 317 315 314 314 312
328 328 327 327 325 324 325 326 327 329 330 331 331 329 328 329 328 328 327 325 324 324 325 326 325 325 325 324 322 322 319 319 319 318 319 320 318 317 317 317 317 316 316
332 331 330 328 327 326 326 326 326 328 330 330 331 329 330 328 328 328 327 325 325 325 324 324 325 325 325 325 323 321 318 317 319 317 318 318 319 317 317 317 317 316 317
334 334 333 332 329 328 329 329 329 329 329 328 329 328 329 329 328 326 326 326 326 326 324 324 324 324 324 325 324 321 317 316 317 318 317 317 316 317 318 318 317 316 316
336 334 335 335 333 332 332 332 332 331 331 331 328 329 329 328 328 328 327 327 327 324 324 324 324 323 323 324 325 322 318 316 316 317 317 317 318 316 316 316 317 317 317
333 337 336 336 335 333 332 334 333 332 332 331 329 329 329 329 328 328 328 327 324 324 324 323 323 324 324 324 324 323 320 318 315 315 316 317 318 317 317 315 313 315 316
333 333 333 335 334 333 332 332 332 331 330 332 330 329 329 329 328 328 327 325 324 323 324 324 323 324 324 324 324 324 321 319 318 317 317 317 317 317 317 316 315 316 317
330 331 332 333 332 331 330 330 329 328 325 333 332 329 329 328 329 329 327 325 323 324 324 324 324 324 324 324 324 324 322 319 319 318 318 318 318 318 317 316 317 318 318
327 329 330 330 330 329 329 331 330 329 330 332 332 331 329 328 327 328 327 325 324 323 323 323 323 323 323 323 323 323 324 319 319 321 319 319 320 319 318 317 318 318 319
323 325 328 328 328 328 328 328 329 331 330 331 332 331 330 329 327 327 326 324 323 323 323 323 323 323 322 323 322 322 322 319 319 320 319 320 320 320 319 319 319 319 319
322 324 326 326 326 327 326 326 327 327 328 329 329 330 329 328 327 326 324 324 323 323 324 324 323 322 322 322 322 321 321 321 320 319 320 320 320 320 320 319 319 319 319
317 319 321 322 323 324 325 325 325 325 325 325 327 327 328 328 327 324 323 322 322 324 323 323 321 321 320 321 321 321 321 319 316 315 318 319 319 320 320 320 319 319 319
308 310 313 315 317 318 319 322 322 324 325 325 323 323 324 323 321 322 321 321 322 322 322 322 322 320 320 321 320 320 318 316 316 315 318 319 319 319 318 318 318 318 318
303 305 306 308 308 310 312 315 319 320 320 320 322 322 322 321 321 321 321 321 322 322 323 323 322 322 321 321 320 320 319 318 317 316 318 319 318 318 316 316 316 316 316
301 301 301 302 303 304 307 309 311 312 312 316 318 319 321 320 321 321 322 321 322 321 322 321 321 320 320 320 320 319 318 319 318 317 317 318 317 315 314 311 311 311 310
298 298 298 299 299 300 301 303 305 306 307 309 310 310 311 314 318 320 320 320 320 321 322 321 320 320 320 319 319 319 319 318 318 318 317 317 315 309 305 301 301 299 301
296 295 296 296 296 298 298 300 300 301 302 302 303 305 307 308 307 311 318 312 317 317 318 318 318 319 319 319 319 319 319 318 318 317 317 314 311 308 297 294 295 295 295

GFSMA_850_thetae_123.txt.gz
Theta_e
339 340 340 339 338 338 338 336 336 335 335 335 335 335 334 334 334 334 331 330 329 328 327 325 325 326 326 325 322 318 318 322 321 321 321 319 316 315 311 312 308 304 306
339 339 339 339 338 338 336 336 336 335 336 335 334 334 334 333 334 334 331 329 328 327 327 327 326 327 324 324 322 318 321 320 320 321 320 319 318 317 311 311 310 305 306
340 340 338 338 337 338 336 335 335 335 335 334 334 334 333 332 333 333 333 330 329 328 327 327 327 326 326 323 320 319 321 321 320 320 319 317 317 318 315 307 308 307 306
338 337 338 339 336 336 336 336 336 336 334 334 333 333 333 333 332 332 332 331 329 329 328 327 326 327 326 323 323 319 320 320 320 319 319 317 317 317 315 310 306 306 306
337 334 339 337 339 336 337 336 337 337 334 334 333 333 333 332 332 331 331 331 331 329 329 328 326 326 326 325 324 322 318 317 319 319 318 317 317 317 317 313 307 305 305
337 335 334 332 331 334 332 335 337 335 336 333 334 333 332 332 331 331 330 331 332 329 329 328 327 326 326 326 324 324 322 319 318 319 318 317 317 317 317 315 310 305 305
329 333 333 332 330 334 330 332 334 335 337 334 334 332 332 332 331 332 333 332 332 330 329 328 328 327 327 325 323 324 322 321 320 318 317 318 317 317 316 314 311 307 305
321 331 328 328 328 334 330 332 333 334 336 335 334 332 332 330 330 328 329 330 330 330 330 328 327 328 327 326 324 322 322 321 321 319 316 318 318 317 316 315 314 309 305
325 326 327 326 327 329 329 333 331 332 333 333 334 332 331 330 329 332 328 329 329 329 329 328 328 327 327 326 325 322 320 321 321 321 319 317 318 317 315 315 314 313 311
331 324 325 326 327 327 327 329 329 330 330 333 334 333 332 330 329 328 330 330 328 329 330 327 327 328 327 326 325 323 321 319 321 321 320 317 317 317 317 315 315 312 314
336 325 325 326 326 326 326 328 329 329 328 330 332 333 331 333 331 330 329 329 329 328 327 327 327 326 326 326 326 324 323 321 319 320 320 318 317 317 316 317 316 314 315
334 336 327 325 325 325 326 327 329 329 328 328 332 331 331 331 330 330 330 330 329 328 326 327 327 326 326 326 326 325 324 322 321 319 319 318 319 319 317 317 317 316 315
333 337 336 333 329 327 327 328 328 328 328 329 329 333 331 331 330 331 329 330 329 328 328 326 325 326 325 325 325 325 325 322 322 319 318 319 318 320 320 318 317 316 316
336 334 335 336 337 334 331 333 331 331 332 331 332 331 331 330 330 330 331 329 328 329 329 327 326 325 326 325 324 324 325 324 323 319 319 318 317 318 318 318 317 317 317
336 336 334 336 337 336 335 335 335 333 332 332 332 332 332 331 330 330 329 329 328 329 329 328 325 325 325 323 323 324 323 325 324 320 317 319 318 318 317 316 316 318 317
333 334 333 332 334 336 336 337 335 333 327 332 333 333 332 331 330 330 329 329 329 328 328 327 326 326 324 324 323 324 324 324 324 321 317 317 317 317 317 317 316 316 316
332 334 333 332 334 333 334 334 335 334 333 331 330 327 326 328 331 329 329 329 329 328 328 325 326 324 323 324 325 324 324 324 324 324 321 317 317 316 317 317 318 317 316
326 328 329 330 329 330 330 333 333 333 330 330 328 324 324 324 328 330 331 330 329 328 328 325 325 324 324 324 323 324 324 324 323 324 322 318 316 317 317 317 317 317 317
321 324 326 328 328 329 330 330 329 329 328 329 329 329 329 330 331 331 331 331 328 328 328 325 324 324 324 324 324 323 323 322 323 322 320 320 319 318 318 318 318 318 317
320 321 322 324 325 326 326 326 327 327 328 328 328 328 329 330 330 329 330 330 328 327 326 325 326 323 323 324 324 323 322 322 321 321 320 320 320 319 319 319 319 319 317
312 312 314 317 319 321 322 324 325 326 326 326 327 326 326 327 327 328 328 328 327 326 325 324 322 323 324 323 323 322 321 321 321 321 321 320 319 319 319 320 320 319 319
307 308 310 310 312 313 315 318 319 320 322 323 324 323 324 324 325 325 325 325 323 320 323 322 322 322 323 322 322 322 321 320 319 320 320 319 318 320 319 319 320 320 319
302 304 304 305 306 307 309 311 313 314 315 316 317 318 320 322 323 323 324 322 322 322 321 322 322 322 322 322 322 321 320 320 320 320 320 318 317 317 316 317 319 319 320
298 299 299 300 301 303 304 305 306 307 307 307 308 309 314 316 317 321 321 321 321 321 321 322 322 321 321 322 321 321 321 319 318 318 318 317 317 315 315 313 315 318 318
297 296 297 297 298 298 300 301 302 302 303 303 304 305 306 308 310 312 313 314 316 317 320 321 321 321 321 320 320 320 319 318 317 318 318 317 315 312 311 308 312 313 314
293 293 293 293 294 295 296 297 298 299 300 300 300 301 302 303 304 307 309 309 308 307 307 315 311 313 318 318 319 319 319 318 318 318 317 315 314 312 303 303 305 302 306

GFSMA_850_thetae_126.txt.gz
Theta_e
337 340 337 338 337 336 334 334 332 329 334 335 335 334 333 333 333 333 332 330 329 328 329 327 326 325 326 326 326 324 320 320 321 321 321 320 319 317 314 312 308 304 304
338 340 337 338 338 337 336 336 335 336 334 335 335 333 334 334 333 332 332 330 329 328 326 327 325 326 325 325 324 323 319 318 322 319 319 320 318 320 317 316 311 304 305
338 337 337 338 338 336 336 336 335 335 334 334 334 333 333 333 332 332 332 331 329 328 327 327 327 326 326 326 324 323 320 320 320 320 320 320 319 319 317 315 307 304 306
338 338 339 337 338 336 336 335 335 334 334 334 334 334 333 332 331 331 331 331 330 329 328 327 327 326 326 327 324 321 319 320 319 318 320 319 318 318 318 314 308 306 306
337 335 337 338 335 335 335 334 335 335 335 334 333 334 334 333 331 330 330 330 330 330 330 328 327 326 326 327 324 322 319 319 319 319 318 319 317 317 318 314 308 306 306
335 336 337 340 336 337 335 335 335 335 335 334 334 332 333 333 332 330 330 329 329 329 329 329 328 327 326 326 325 325 323 321 317 318 317 319 317 316 317 316 311 305 306
328 337 335 340 338 338 337 335 335 335 336 335 333 332 332 331 330 331 332 330 329 329 329 329 329 328 327 326 326 326 324 323 321 318 316 316 317 316 317 317 316 312 307
325 329 338 334 333 336 335 335 334 336 336 334 333 333 333 330 331 330 331 332 331 330 329 328 328 328 327 327 326 325 325 324 323 322 320 317 317 316 317 317 316 315 313
334 327 328 335 330 327 332 335 335 337 335 334 334 333 331 329 329 330 330 328 328 328 328 329 327 328 327 327 327 326 325 323 323 322 322 320 316 317 317 316 316 315 313
335 333 327 333 331 330 330 335 336 338 338 334 334 333 330 332 331 332 332 330 328 327 326 327 328 328 328 327 327 326 325 324 322 321 322 321 318 316 318 317 315 313 311
336 334 329 334 335 330 326 328 337 339 337 334 333 333 332 331 331 332 332 331 330 328 327 325 326 327 327 326 329 326 326 325 323 321 321 321 320 318 317 318 315 313 311
338 335 332 332 335 333 326 325 330 334 338 335 332 331 329 332 332 331 331 329 329 330 329 328 326 325 325 326 327 326 326 326 323 321 319 320 321 320 317 317 317 316 314
338 335 335 336 338 335 329 328 330 329 333 337 334 332 331 332 331 332 331 330 329 330 329 328 328 327 326 325 326 326 325 325 324 323 322 319 319 320 319 318 317 317 317
339 337 336 334 339 336 337 335 335 336 335 335 333 333 332 330 331 331 330 329 330 330 330 328 328 328 326 325 325 325 325 325 325 325 324 321 320 319 318 319 319 317 317
336 335 337 338 337 335 334 333 333 332 331 331 332 331 329 331 331 331 330 329 329 330 329 329 329 329 327 325 324 325 324 324 324 324 325 322 321 319 319 318 319 320 318
324 333 333 333 333 334 334 335 335 334 334 332 332 331 330 327 330 331 330 330 330 329 328 328 329 329 327 325 324 324 324 323 324 323 324 324 322 318 319 318 318 318 318
327 328 329 331 332 332 331 332 332 333 333 333 333 330 325 324 328 323 323 324 328 331 330 328 328 328 327 326 325 324 323 324 324 324 324 324 324 319 317 318 317 317 317
325 325 329 330 330 331 331 330 331 333 333 331 330 332 331 330 328 322 322 323 324 324 325 330 328 328 328 326 324 323 324 324 323 324 324 324 323 323 317 318 319 317 317
322 321 322 325 328 329 329 329 329 329 329 329 329 329 331 329 328 325 324 326 328 326 326 328 329 327 328 326 324 323 322 322 323 323 323 323 323 323 321 317 319 317 317
319 320 322 320 321 324 325 326 326 326 326 326 327 328 328 328 329 329 330 330 331 328 329 329 327 327 327 325 324 323 323 323 323 323 323 322 322 323 322 318 317 318 317
312 311 314 316 316 317 318 319 321 322 323 323 324 324 325 325 326 327 328 329 329 328 329 326 327 324 325 323 323 322 323 322 322 323 322 321 321 322 321 318 318 317 317
303 306 305 306 307 308 309 312 314 315 315 316 319 320 321 322 323 324 326 326 326 327 327 327 325 323 324 324 323 322 323 322 321 322 321 321 321 321 320 320 319 318 318
299 299 301 301 302 303 304 305 307 308 308 309 310 311 312 314 316 319 321 323 324 324 324 324 322 323 322 321 321 322 322 322 322 322 321 320 320 320 320 321 320 319 318
295 297 298 299 300 300 300 302 303 303 302 303 304 305 306 307 309 312 314 315 315 318 320 321 321 322 321 321 322 322 322 321 321 320 320 319 319 318 318 319 319 318 319
294 294 295 295 296 296 297 298 299 299 300 300 300 300 301 302 304 306 308 309 310 310 312 311 312 315 316 319 319 321 321 320 319 319 319 319 317 314 313 314 315 316 316
290 290 291 291 291 292 293 295 296 296 297 297 297 297 298 298 299 301 303 304 305 303 304 304 306 307 307 307 310 313 317 316 318 318 318 317 316 314 309 309 309 309 309

GFSMA_850_thetae_129.txt.gz
Theta_e
332 333 335 334 335 334 333 332 332 332 327 333 335 334 333 334 333 332 332 330 330 329 329 328 326 327 327 326 327 326 325 322 320 320 320 320 320 319 318 316 315 310 306
331 334 338 336 336 336 335 332 332 332 328 334 336 334 333 333 332 331 331 331 329 329 328 327 327 325 327 326 326 326 325 323 321 320 321 320 319 319 315 318 313 308 305
334 335 338 338 336 335 336 335 335 333 333 334 334 333 332 332 332 331 331 331 329 329 328 326 327 326 326 326 325 325 324 322 319 320 320 319 319 319 318 317 313 306 304
334 336 337 339 337 336 336 335 335 335 334 333 333 333 332 332 331 330 330 330 330 329 328 327 327 327 326 326 326 325 324 321 319 320 319 320 318 318 318 317 312 306 304
339 335 335 337 337 337 337 335 336 334 333 333 333 332 332 331 330 330 329 329 329 329 329 328 327 327 326 326 326 326 323 320 319 320 320 318 319 318 318 317 315 310 306
339 335 336 337 337 337 336 335 335 334 333 333 333 332 331 332 330 330 329 328 328 327 328 328 329 328 327 326 326 326 323 321 319 320 320 319 318 317 318 317 316 313 309
338 335 337 338 336 336 336 333 333 333 334 334 334 332 332 331 331 329 328 329 328 328 327 329 328 328 328 327 326 326 324 324 322 320 319 319 318 317 316 316 316 315 309
337 335 336 337 335 336 337 335 333 333 334 334 335 333 332 332 331 330 330 330 330 328 328 327 327 326 327 328 327 326 326 326 325 324 321 318 318 317 316 316 316 316 312
337 333 336 337 336 338 337 335 335 333 334 335 335 333 333 332 331 330 330 330 331 330 330 329 328 327 327 327 327 327 326 326 325 325 324 322 319 316 316 316 316 316 316
336 334 334 333 337 338 337 335 335 334 334 334 335 334 331 329 329 330 329 330 331 330 330 327 327 327 326 327 327 326 327 326 325 324 324 323 322 318 315 315 315 316 316
336 334 333 333 328 338 339 338 336 333 333 332 334 334 333 331 332 333 331 331 329 329 327 327 326 325 325 326 325 326 326 326 325 325 323 323 322 322 318 316 317 316 315
332 336 335 336 332 332 329 327 332 333 335 334 333 333 333 333 330 330 331 332 331 330 329 328 328 326 326 325 325 324 325 326 326 325 324 322 321 322 321 318 317 317 316
320 336 337 338 335 332 334 338 336 336 334 334 332 333 332 333 332 331 327 330 330 330 329 329 329 328 327 327 326 325 324 325 325 326 325 324 321 321 321 321 318 317 317
320 334 338 338 336 330 329 337 336 335 335 333 332 331 332 331 330 329 330 331 332 331 330 329 329 328 328 327 327 325 324 324 324 325 325 325 323 320 320 320 320 317 317
320 324 338 336 334 331 333 334 333 334 334 332 333 332 332 332 331 330 330 331 330 330 329 329 329 329 328 328 328 326 324 323 324 323 324 324 324 322 321 319 320 320 318
324 318 335 335 334 333 332 333 332 333 332 333 333 332 332 331 330 330 331 331 327 325 327 326 328 327 327 327 328 327 326 324 323 323 323 324 324 324 323 321 320 320 319
321 317 328 334 334 334 334 333 333 333 332 331 331 332 331 330 330 330 328 325 324 324 322 323 326 324 328 328 327 327 327 325 324 323 323 324 324 323 325 323 321 319 318
321 322 323 327 330 326 331 332 332 332 332 333 332 332 332 333 332 331 328 327 326 323 324 324 325 325 325 328 328 327 327 326 324 323 323 323 324 324 324 325 323 320 319
314 322 321 321 321 323 327 327 329 328 329 330 329 329 329 330 329 330 330 329 327 325 325 327 326 326 327 327 328 327 327 326 324 323 321 322 323 323 324 324 324 322 317
311 313 315 316 318 319 321 323 324 325 324 325 326 326 325 327 327 327 327 327 328 328 327 327 327 327 330 328 326 326 324 326 323 323 322 323 323 323 323 323 323 323 319
304 302 308 311 315 316 317 318 318 319 319 320 320 320 320 322 322 324 324 324 325 325 326 328 327 328 327 327 326 325 323 325 323 323 322 322 321 321 322 322 322 322 322
301 302 302 304 305 304 305 307 311 312 311 312 315 314 313 314 316 317 320 320 323 323 325 325 324 325 326 326 325 324 324 323 321 321 322 322 322 321 322 321 321 322 321
296 295 297 299 298 298 300 302 304 305 306 306 307 308 309 310 312 312 312 313 314 316 319 321 322 321 323 323 323 322 321 321 320 320 322 322 322 321 321 321 322 321 321
295 295 296 297 297 297 298 299 300 300 301 301 301 302 302 303 304 306 307 308 309 310 312 312 314 313 317 318 318 319 320 319 320 320 321 321 321 320 319 320 320 320 321
292 292 292 293 293 294 294 296 297 297 297 297 297 297 299 299 300 301 302 303 304 304 304 305 306 306 308 310 310 316 315 318 317 316 321 321 320 320 320 319 317 317 318
290 290 290 290 290 291 291 292 292 293 295 295 295 296 296 296 296 298 299 300 300 300 300 301 301 302 302 304 305 309 309 310 311 311 315 316 319 319 315 314 314 313 314

GFSMA_850_thetae_132.txt.gz
Theta_e
331 332 334 334 333 333 332 331 331 331 332 328 332 333 332 332 332 332 333 331 329 329 329 328 327 328 330 328 327 326 325 323 320 318 318 320 320 320 320 320 320 320 315
332 332 333 333 332 333 332 332 331 331 331 328 332 332 333 332 332 331 331 331 330 329 329 328 327 327 328 327 326 326 326 325 323 320 318 319 320 320 319 318 319 318 313
334 332 333 333 332 333 335 334 332 332 332 329 333 332 333 332 331 331 331 331 330 329 328 328 327 327 326 327 326 326 326 325 324 321 319 316 319 318 319 318 318 317 312
337 334 334 334 333 335 336 336 335 332 332 330 332 334 333 331 331 331 331 330 329 329 328 328 326 327 325 325 325 325 325 326 325 322 320 320 319 319 317 318 318 316 313
339 337 334 334 336 337 337 335 335 334 333 332 333 332 332 332 331 330 329 329 329 329 329 328 326 326 326 326 326 326 326 326 325 322 320 320 319 318 316 317 317 315 311
337 336 336 334 336 338 339 335 335 334 334 333 332 332 331 332 331 330 329 328 327 327 327 327 328 328 327 326 326 326 327 326 323 321 321 320 320 319 317 317 317 316 314
333 337 336 336 335 338 337 335 336 334 334 333 331 332 332 332 331 329 330 329 327 327 327 327 327 327 328 328 326 326 327 326 324 321 321 321 320 319 316 317 316 316 316
330 333 336 335 336 337 337 335 336 335 335 333 332 333 333 332 331 330 329 329 328 328 328 327 326 327 327 327 328 327 326 326 325 325 323 321 320 319 319 316 317 316 315
322 331 335 335 334 335 337 336 336 334 334 333 333 333 332 331 331 330 329 329 329 329 329 328 328 328 327 326 327 327 327 326 326 326 325 324 321 320 318 317 316 315 316
324 326 331 335 335 333 337 335 336 335 333 331 334 334 331 330 331 332 330 330 329 329 330 330 329 329 329 328 326 326 327 327 326 326 325 325 325 319 318 318 316 316 315
317 324 326 333 335 334 334 336 337 337 334 332 333 334 333 331 329 328 329 329 330 329 329 329 327 327 326 326 326 326 326 323 326 326 326 324 325 324 321 318 312 310 307
311 313 321 326 333 334 334 336 335 336 335 334 333 334 333 332 330 329 329 329 328 329 330 328 327 327 327 326 325 324 325 325 325 326 326 325 324 324 323 322 319 316 316
311 309 311 320 327 332 334 335 336 336 335 335 334 333 334 334 333 331 330 330 330 330 330 330 329 328 328 328 326 326 325 324 324 326 326 325 325 324 323 322 322 319 317
308 313 314 313 323 321 334 333 336 335 335 334 333 331 330 332 333 333 332 331 331 329 330 330 329 329 328 328 328 327 327 326 324 324 325 325 325 325 323 322 321 322 319
311 320 318 315 316 320 333 334 332 335 334 332 330 329 331 330 331 331 332 332 330 331 330 329 329 326 327 327 327 328 327 327 324 323 324 324 324 325 325 324 322 321 321
320 320 316 318 322 331 328 334 334 331 329 331 329 330 329 329 330 330 329 329 330 330 330 327 323 321 324 327 327 327 327 327 326 325 323 323 324 324 324 325 324 322 320
320 321 321 321 321 323 329 333 333 331 331 330 330 329 329 329 329 330 329 330 330 329 329 324 323 323 322 325 324 322 324 327 327 327 324 323 323 323 323 324 325 323 322
318 318 319 318 319 323 322 332 331 330 330 331 330 330 330 330 330 330 329 330 329 326 326 323 325 323 323 324 324 324 324 326 327 326 327 325 323 323 323 323 324 324 324
315 315 317 317 316 315 312 326 328 318 328 328 329 327 329 329 330 330 330 330 328 328 327 326 325 325 325 325 326 326 325 326 326 325 326 326 325 323 323 323 324 323 323
313 313 313 313 317 314 312 312 318 313 313 324 323 324 322 327 327 325 327 328 326 326 327 326 327 327 326 326 326 326 327 328 326 325 324 323 325 323 322 322 322 323 323
305 306 308 308 306 310 308 312 313 312 313 314 314 316 312 313 321 318 320 322 324 325 325 324 325 325 325 324 324 325 325 326 326 325 325 325 323 322 322 322 322 322 323
302 305 303 303 303 299 298 302 306 306 307 306 306 305 311 311 314 314 316 318 317 320 320 320 321 322 322 323 323 324 325 326 324 325 323 323 322 322 322 322 321 321 322
299 302 303 302 301 299 299 301 302 303 304 305 304 303 306 307 306 307 307 310 311 312 313 313 314 315 317 317 320 321 323 322 323 323 322 321 320 320 320 321 320 321 321
290 293 293 293 293 292 294 295 296 297 298 298 299 299 299 299 301 301 302 304 305 306 307 307 309 309 309 311 311 315 317 319 319 320 320 319 320 319 319 321 321 320 320
290 289 288 290 291 291 291 291 292 292 293 294 294 296 298 298 298 298 300 300 300 301 301 302 303 303 304 304 305 307 309 311 314 315 316 316 317 318 319 320 319 320 320
285 286 287 287 287 288 288 289 290 291 291 291 291 292 293 293 294 295 296 297 297 297 297 297 298 298 299 301 302 303 304 305 306 307 308 309 312 312 314 316 318 319 318